[[{"header":{"parameterUnit":"m.s-1","parameterCategory":1,"la1":30.6,"la2":28.766,"lo1":-90.7593,"lo2":-88.6598,"dy":0.0162,"dx":0.0183,"nx":116,"ny":114,"refTime":"2023-10-20T12:00:00:Z","depth":0,"parameterNumber":2,"parameterNumberName":"U-component_of_WINDS"},"data":[0.0,0.0,0.0,0.0,0.0,0.0,0.0,0.0,0.0,0.0,0.0,0.0,0.0,0.0,0.0,0.0,0.0,0.0,0.0,0.0,0.0,0.0,0.0,0.0,0.0,0.0,0.0,0.0,0.0,0.0,0.0,0.0,0.0,0.0,0.0,0.0,0.0,0.0,0.0,0.0,0.0,0.0,0.0,0.0,0.0,0.0,0.0,0.0,0.0,0.0,0.0,0.0,0.0,0.0,0.0,0.0,0.0,0.0,0.0,0.0,0.0,0.0,0.0,0.0,0.0,0.0,0.0,0.0,0.0,0.0,0.0,0.0,0.0,0.0,0.0,0.0,0.0,0.0,0.0,0.0,0.0,0.0,0.0,0.0,0.0,0.0,0.0,0.0,0.0,0.0,0.0,0.0,0.0,0.0,0.0,0.0,0.0,0.0,0.0,0.0,0.0,0.0,0.0,0.0,0.0,0.0,0.0,0.0,0.0,0.0,0.0,0.0,0.0,0.0,0.0,0.0,0.0,0.0,0.0,0.0,0.0,0.0,0.0,0.0,0.0,0.0,0.0,0.0,0.0,0.0,0.0,0.0,0.0,0.0,0.0,0.0,0.0,0.0,0.0,0.0,0.0,0.0,0.0,0.0,0.0,0.0,0.0,0.0,0.0,0.0,0.0,0.0,0.0,0.0,0.0,0.0,0.0,0.0,0.0,0.0,0.0,0.0,0.0,0.0,0.0,0.0,0.0,0.0,0.0,0.0,0.0,0.0,0.0,0.0,0.0,0.0,0.0,0.0,0.0,0.0,0.0,0.0,0.0,0.0,0.0,0.0,0.0,0.0,0.0,0.0,0.0,0.0,0.0,0.0,0.0,0.0,0.0,0.0,0.0,0.0,0.0,0.0,0.0,0.0,0.0,0.0,0.0,0.0,0.0,0.0,0.0,0.0,0.0,0.0,0.0,0.0,0.0,0.0,0.0,0.0,0.0,0.0,0.0,0.0,0.0,0.0,0.0,0.0,0.0,0.0,0.0,0.0,0.0,0.0,0.0,0.0,0.0,0.0,0.0,0.0,0.0,0.0,0.0,0.0,0.0,0.0,0.0,0.0,0.0,0.0,0.0,0.0,0.0,0.0,0.0,0.0,0.0,0.0,0.0,0.0,0.0,0.0,0.0,0.0,0.0,0.0,0.0,0.0,0.0,0.0,0.0,0.0,0.0,0.0,0.0,0.0,0.0,0.0,0.0,0.0,0.0,0.0,0.0,0.0,0.0,0.0,0.0,0.0,0.0,0.0,0.0,0.0,0.0,0.0,0.0,0.0,0.0,0.0,0.0,0.0,0.0,0.0,0.0,0.0,0.0,0.0,0.0,0.0,0.0,0.0,0.0,0.0,0.0,0.0,0.0,0.0,0.0,0.0,0.0,0.0,0.0,0.0,0.0,0.0,0.0,0.0,0.0,0.0,0.0,0.0,0.0,0.0,0.0,0.0,0.0,0.0,0.0,0.0,0.0,0.0,0.0,0.0,0.0,0.0,0.0,0.0,0.0,0.0,0.0,0.0,0.0,0.0,0.0,0.0,0.0,0.0,0.0,0.0,0.0,0.0,0.0,0.0,0.0,0.0,0.0,0.0,0.0,0.0,0.0,0.0,0.0,0.0,0.0,0.0,0.0,0.0,0.0,0.0,0.0,0.0,0.0,0.0,0.0,0.0,0.0,0.0,0.0,0.0,0.0,0.0,0.0,0.0,0.0,0.0,0.0,0.0,0.0,0.0,0.0,0.0,0.0,0.0,0.0,0.0,0.0,0.0,0.0,0.0,0.0,0.0,0.0,0.0,0.0,0.0,0.0,0.0,0.0,0.0,0.0,0.0,0.0,0.0,0.0,0.0,0.0,0.0,0.0,0.0,0.0,0.0,0.0,0.0,0.0,0.0,0.0,0.0,0.0,0.0,0.0,0.0,0.0,0.0,0.0,0.0,0.0,0.0,0.0,0.0,0.0,0.0,0.0,0.0,0.0,0.0,0.0,0.0,0.0,0.0,0.0,0.0,0.0,0.0,0.0,0.0,0.0,0.0,0.0,0.0,0.0,0.0,0.0,0.0,0.0,0.0,0.0,0.0,0.0,0.0,0.0,0.0,0.0,0.0,0.0,0.0,0.0,0.0,0.0,0.0,0.0,0.0,0.0,0.0,0.0,0.0,0.0,0.0,0.0,0.0,0.0,0.0,0.0,0.0,0.0,0.0,0.0,0.0,0.0,0.0,0.0,0.0,0.0,0.0,0.0,0.0,0.0,0.0,0.0,0.0,0.0,0.0,0.0,0.0,0.0,0.0,0.0,0.0,0.0,0.0,0.0,0.0,0.0,0.0,0.0,0.0,0.0,0.0,0.0,0.0,0.0,0.0,0.0,0.0,0.0,0.0,0.0,0.0,0.0,0.0,0.0,0.0,0.0,0.0,0.0,0.0,0.0,0.0,0.0,0.0,0.0,0.0,0.0,0.0,0.0,0.0,0.0,0.0,0.0,0.0,0.0,0.0,0.0,0.0,0.0,0.0,0.0,0.0,0.0,0.0,0.0,0.0,0.0,0.0,0.0,0.0,0.0,0.0,0.0,0.0,0.0,0.0,0.0,0.0,0.0,0.0,0.0,0.0,0.0,0.0,0.0,0.0,0.0,0.0,0.0,0.0,0.0,0.0,0.0,0.0,0.0,0.0,0.0,0.0,0.0,0.0,0.0,0.0,0.0,0.0,0.0,0.0,0.0,0.0,0.0,0.0,0.0,0.0,0.0,0.0,0.0,0.0,0.0,0.0,0.0,0.0,0.0,0.0,0.0,0.0,0.0,0.0,0.0,0.0,0.0,0.0,0.0,0.0,0.0,0.0,0.0,0.0,0.0,0.0,0.0,0.0,0.0,0.0,0.0,0.0,0.0,0.0,0.0,0.0,0.0,0.0,0.0,0.0,0.0,0.0,0.0,0.0,0.0,0.0,0.0,0.0,0.0,0.0,0.0,0.0,0.0,0.0,0.0,0.0,0.0,0.0,0.0,0.0,0.0,0.0,0.0,0.0,0.0,0.0,0.0,0.0,0.0,0.0,0.0,0.0,0.0,0.0,0.0,0.0,0.0,0.0,0.0,0.0,0.0,0.0,0.0,0.0,0.0,0.0,0.0,0.0,0.0,0.0,0.0,0.0,0.0,0.0,0.0,0.0,0.0,0.0,0.0,0.0,0.0,0.0,0.0,0.0,0.0,0.0,0.0,0.0,0.0,0.0,0.0,0.0,0.0,0.0,0.0,0.0,0.0,0.0,0.0,0.0,0.0,0.0,0.0,0.0,0.0,0.0,0.0,0.0,0.0,0.0,0.0,0.0,0.0,0.0,0.0,0.0,0.0,0.0,0.0,0.0,0.0,0.0,0.0,0.0,0.0,0.0,0.0,0.0,0.0,0.0,0.0,0.0,0.0,0.0,0.0,0.0,0.0,0.0,0.0,0.0,0.0,0.0,0.0,0.0,0.0,0.0,0.0,0.0,0.0,0.0,0.0,0.0,0.0,0.0,0.0,0.0,0.0,0.0,0.0,0.0,0.0,0.0,0.0,0.0,0.0,0.0,0.0,0.0,0.0,0.0,0.0,0.0,0.0,0.0,0.0,0.0,0.0,0.0,0.0,0.0,0.0,0.0,0.0,0.0,0.0,0.0,0.0,0.0,0.0,0.0,0.0,0.0,0.0,0.0,0.0,0.0,0.0,0.0,0.0,0.0,0.0,0.0,0.0,0.0,0.0,0.0,0.0,0.0,0.0,0.0,0.0,0.0,0.0,0.0,0.0,0.0,0.0,0.0,0.0,0.0,0.0,0.0,0.0,0.0,0.0,0.0,0.0,0.0,0.0,0.0,0.0,0.0,0.0,0.0,0.0,0.0,0.0,0.0,0.0,0.0,0.0,0.0,0.0,0.0,0.0,0.0,0.0,0.0,0.0,0.0,0.0,0.0,0.0,0.0,0.0,0.0,0.0,0.0,0.0,0.0,0.0,0.0,0.0,0.0,0.0,0.0,0.0,0.0,0.0,0.0,0.0,0.0,0.0,0.0,0.0,0.0,0.0,0.0,0.0,0.0,0.0,0.0,0.0,0.0,0.0,0.0,0.0,0.0,0.0,0.0,0.0,0.0,0.0,0.0,0.0,0.0,0.0,0.0,0.0,0.0,0.0,0.0,0.0,0.0,0.0,0.0,0.0,0.0,0.0,0.0,0.0,0.0,0.0,0.0,0.0,0.0,0.0,0.0,0.0,0.0,0.0,0.0,0.0,0.0,0.0,0.0,0.0,0.0,0.0,0.0,0.0,0.0,0.0,0.0,0.0,0.0,0.0,0.0,0.0,0.0,0.0,0.0,0.0,0.0,0.0,0.0,0.0,0.0,0.0,0.0,0.0,0.0,0.0,0.0,0.0,0.0,0.0,0.0,0.0,0.0,0.0,0.0,0.0,0.0,0.0,0.0,0.0,0.0,0.0,0.0,0.0,0.0,0.0,0.0,0.0,0.0,0.0,0.0,0.0,0.0,0.0,0.0,0.0,0.0,0.0,0.0,0.0,0.0,0.0,0.0,0.0,0.0,0.0,0.0,0.0,0.0,0.0,0.0,0.0,0.0,0.0,0.0,0.0,0.0,0.0,0.0,0.0,0.0,0.0,0.0,0.0,0.0,0.0,0.0,0.0,0.0,0.0,0.0,0.0,0.0,0.0,0.0,0.0,0.0,0.0,0.0,0.0,0.0,0.0,0.0,0.0,0.0,0.0,0.0,0.0,0.0,0.0,0.0,0.0,0.0,0.0,0.0,0.0,0.0,0.0,0.0,0.0,0.0,0.0,0.0,0.0,0.0,0.0,0.0,0.0,0.0,0.0,0.0,0.0,0.0,0.0,0.0,0.0,0.0,0.0,0.0,0.0,0.0,0.0,0.0,0.0,0.0,0.0,0.0,0.0,0.0,0.0,0.0,0.0,0.0,0.0,0.0,0.0,0.0,0.0,0.0,0.0,0.0,0.0,0.0,0.0,0.0,0.0,0.0,0.0,0.0,0.0,0.0,0.0,0.0,0.0,0.0,0.0,0.0,0.0,0.0,0.0,0.0,0.0,0.0,0.0,0.0,0.0,0.0,0.0,0.0,0.0,0.0,0.0,0.0,0.0,0.0,0.0,0.0,0.0,0.0,0.0,0.0,0.0,0.0,0.0,0.0,0.0,0.0,0.0,0.0,0.0,0.0,0.0,0.0,0.0,0.0,0.0,0.0,0.0,0.0,0.0,0.0,0.0,0.0,0.0,0.0,0.0,0.0,0.0,0.0,0.0,0.0,0.0,0.0,0.0,0.0,0.0,0.0,0.0,0.0,0.0,0.0,0.0,0.0,0.0,0.0,0.0,0.0,0.0,0.0,0.0,0.0,0.0,0.0,0.0,0.0,0.0,0.0,0.0,0.0,0.0,0.0,0.0,0.0,0.0,0.0,0.0,0.0,0.0,0.0,0.0,0.0,0.0,0.0,0.0,0.0,0.0,0.0,0.0,0.0,0.0,0.0,0.0,0.0,0.0,0.0,0.0,0.0,0.0,0.0,0.0,0.0,0.0,0.0,0.0,0.0,0.0,0.0,0.0,0.0,0.0,0.0,0.0,0.0,0.0,0.0,0.0,0.0,0.0,0.0,0.0,0.0,0.0,0.0,0.0,0.0,0.0,0.0,0.0,0.0,0.0,0.0,0.0,0.0,0.0,0.0,0.0,0.0,0.0,0.0,0.0,0.0,0.0,0.0,0.0,0.0,0.0,0.0,0.0,0.0,0.0,0.0,0.0,0.0,0.0,0.0,0.0,0.0,0.0,0.0,0.0,0.0,0.0,0.0,0.0,0.0,0.0,0.0,0.0,0.0,0.0,0.0,0.0,0.0,0.0,0.0,0.0,0.0,0.0,0.0,0.0,0.0,0.0,0.0,0.0,0.0,0.0,0.0,0.0,0.0,0.0,0.0,0.0,0.0,0.0,0.0,0.0,0.0,0.0,0.0,0.0,0.0,0.0,0.0,0.0,0.0,0.0,0.0,0.0,0.0,0.0,0.0,0.0,0.0,0.0,0.0,0.0,0.0,-3.3294,0.0,0.0,0.0,0.0,0.0,0.0,0.0,0.0,0.0,0.0,0.0,0.0,0.0,0.0,0.0,0.0,0.0,0.0,0.0,0.0,0.0,0.0,0.0,0.0,0.0,0.0,0.0,0.0,0.0,0.0,0.0,0.0,0.0,0.0,0.0,0.0,0.0,0.0,0.0,0.0,0.0,0.0,0.0,0.0,0.0,0.0,0.0,0.0,0.0,0.0,0.0,0.0,0.0,0.0,0.0,0.0,0.0,0.0,0.0,0.0,0.0,0.0,0.0,0.0,0.0,0.0,0.0,0.0,0.0,0.0,0.0,0.0,0.0,0.0,0.0,0.0,0.0,0.0,0.0,0.0,0.0,0.0,0.0,0.0,0.0,0.0,0.0,0.0,0.0,0.0,0.0,0.0,0.0,0.0,0.0,0.0,0.0,0.0,0.0,0.0,0.0,0.0,0.0,0.0,0.0,0.0,0.0,0.0,0.0,0.0,0.0,0.0,0.0,0.0,0.0,0.0,-3.3766,0.0,0.0,0.0,0.0,0.0,0.0,0.0,0.0,0.0,0.0,0.0,0.0,0.0,0.0,0.0,0.0,0.0,0.0,0.0,0.0,0.0,0.0,0.0,0.0,0.0,0.0,0.0,0.0,0.0,0.0,0.0,0.0,0.0,0.0,0.0,0.0,0.0,0.0,0.0,0.0,0.0,0.0,0.0,0.0,0.0,0.0,0.0,0.0,0.0,0.0,0.0,0.0,0.0,0.0,0.0,0.0,0.0,0.0,0.0,0.0,0.0,0.0,0.0,0.0,0.0,0.0,0.0,0.0,0.0,0.0,0.0,0.0,0.0,0.0,0.0,0.0,0.0,0.0,0.0,0.0,0.0,0.0,0.0,0.0,0.0,0.0,0.0,0.0,0.0,0.0,0.0,0.0,0.0,0.0,0.0,0.0,0.0,0.0,0.0,0.0,0.0,0.0,0.0,0.0,0.0,0.0,0.0,0.0,0.0,-3.6868,-3.7445,-3.8033,-3.8308,-3.8172,-3.5997,-3.5394,-3.5824,0.0,0.0,0.0,0.0,0.0,0.0,0.0,0.0,0.0,0.0,0.0,0.0,0.0,0.0,0.0,0.0,0.0,0.0,0.0,0.0,0.0,0.0,0.0,0.0,0.0,0.0,0.0,0.0,0.0,0.0,0.0,0.0,0.0,0.0,0.0,0.0,0.0,0.0,0.0,-2.6611,-2.7837,-2.8965,-2.9864,-2.8167,0.0,0.0,0.0,0.0,0.0,0.0,0.0,0.0,0.0,0.0,0.0,0.0,0.0,0.0,0.0,0.0,0.0,0.0,0.0,0.0,0.0,0.0,0.0,0.0,0.0,0.0,0.0,0.0,0.0,0.0,0.0,0.0,0.0,0.0,0.0,0.0,0.0,0.0,0.0,0.0,0.0,0.0,0.0,-3.2636,-3.3799,0.0,0.0,0.0,0.0,0.0,0.0,0.0,0.0,0.0,0.0,0.0,0.0,0.0,0.0,-3.3988,-3.6307,-3.7197,-3.6683,-3.8892,-3.9661,-3.9073,-3.876,-3.8624,-3.8585,-3.7908,0.0,-3.6783,-3.5292,0.0,0.0,0.0,0.0,0.0,0.0,0.0,0.0,0.0,0.0,0.0,0.0,0.0,0.0,0.0,0.0,0.0,0.0,0.0,0.0,0.0,0.0,0.0,0.0,0.0,0.0,0.0,0.0,0.0,0.0,0.0,0.0,0.0,0.0,0.0,0.0,-2.4053,-2.6312,-2.7395,-2.8632,-2.9697,-3.0518,-2.9262,-2.9247,-3.0115,-2.9355,0.0,0.0,0.0,0.0,0.0,0.0,0.0,0.0,0.0,0.0,0.0,0.0,0.0,0.0,0.0,0.0,0.0,0.0,0.0,0.0,0.0,0.0,0.0,0.0,0.0,0.0,0.0,0.0,0.0,0.0,0.0,0.0,0.0,0.0,0.0,0.0,0.0,0.0,0.0,-2.9782,-3.1656,-3.2086,-3.0869,-2.935,0.0,0.0,0.0,0.0,0.0,0.0,0.0,0.0,0.0,-3.249,-3.2611,-3.3364,-3.4918,-3.684,-3.7785,-3.776,-3.9253,-3.9828,-3.9514,-3.9323,-3.9203,-3.9187,-3.8528,-3.8099,-3.7679,-3.5515,-3.3923,-3.266,0.0,0.0,0.0,0.0,0.0,-3.0039,0.0,0.0,0.0,0.0,0.0,0.0,0.0,0.0,0.0,0.0,0.0,0.0,0.0,0.0,0.0,-2.2041,0.0,0.0,0.0,0.0,0.0,0.0,0.0,0.0,0.0,0.0,0.0,-2.1232,-2.4902,-2.7101,-2.7761,-2.8752,-2.9781,-3.0699,-3.0188,-3.0388,-3.1082,-3.0404,-2.9187,0.0,0.0,0.0,0.0,0.0,0.0,0.0,0.0,0.0,0.0,0.0,0.0,0.0,0.0,0.0,0.0,0.0,0.0,0.0,0.0,0.0,0.0,0.0,0.0,0.0,0.0,0.0,0.0,0.0,0.0,0.0,0.0,0.0,0.0,0.0,0.0,0.0,0.0,-2.9634,-3.1056,-3.082,-3.0923,-2.9695,0.0,0.0,0.0,0.0,0.0,0.0,-2.8898,-2.9175,-3.0282,-3.2474,-3.3299,-3.4422,-3.5844,-3.6853,-3.75,-3.7942,-3.836,-3.8695,-3.8884,-3.8692,-3.8601,-3.8532,-3.7737,-3.7299,-3.6974,-3.4986,-3.3833,-3.3114,-3.131,-3.016,-2.9577,-3.015,-2.9987,-2.986,0.0,0.0,0.0,0.0,0.0,0.0,0.0,0.0,0.0,0.0,0.0,0.0,0.0,0.0,-2.0192,-2.0852,-2.037,-1.9651,0.0,0.0,0.0,0.0,0.0,0.0,0.0,0.0,0.0,-2.0886,-2.3579,-2.5716,-2.715,-2.7729,-2.9021,-3.0997,-3.097,-3.1931,-3.3395,-3.0046,-2.9378,-3.03,0.0,0.0,0.0,0.0,0.0,0.0,0.0,0.0,0.0,0.0,0.0,0.0,0.0,0.0,0.0,0.0,0.0,0.0,0.0,0.0,0.0,0.0,0.0,0.0,0.0,0.0,0.0,0.0,0.0,0.0,0.0,0.0,0.0,0.0,0.0,0.0,0.0,0.0,0.0,-3.2484,-3.3149,0.0,0.0,0.0,0.0,-2.5777,-2.6206,-2.739,-2.9278,-3.0202,-3.205,-3.4957,-3.6004,-3.6894,-3.763,-3.7102,-3.6876,-3.686,-3.6292,-3.6339,-3.6903,-3.6224,-3.5849,-3.5762,-3.5016,-3.4287,-3.3658,-3.3631,-3.3597,-3.3349,-3.1034,-2.9672,-2.9042,-2.9095,-2.9107,-2.9187,0.0,0.0,0.0,0.0,0.0,0.0,0.0,0.0,0.0,0.0,0.0,0.0,0.0,-1.7823,-1.8769,-1.8685,-1.9275,-1.8784,-1.6775,0.0,0.0,0.0,0.0,0.0,0.0,0.0,-1.7529,-1.9172,-2.1912,-2.3494,-2.403,-2.6054,-2.7197,-2.7645,-2.7992,-2.8799,-3.0046,-3.0291,-2.9826,-2.8774,-2.729,-2.5692,0.0,0.0,0.0,0.0,0.0,0.0,0.0,0.0,0.0,0.0,0.0,0.0,0.0,0.0,0.0,0.0,0.0,0.0,0.0,0.0,0.0,0.0,0.0,0.0,0.0,0.0,0.0,0.0,0.0,0.0,0.0,0.0,0.0,0.0,0.0,0.0,0.0,-3.0597,-3.1619,0.0,0.0,-2.8463,-2.8477,-2.7074,-2.8326,-2.9602,-3.0726,-3.1148,-3.199,-3.3465,-3.4105,-3.452,-3.4745,-3.5208,-3.4965,-3.4085,-3.434,-3.4094,-3.3454,-3.3161,-3.3062,-3.3006,-3.2744,-3.2482,-3.2187,-3.1762,-3.2063,-3.2586,-3.0795,-2.9644,-2.9007,-2.9007,-2.868,-2.8401,0.0,0.0,0.0,0.0,0.0,0.0,0.0,0.0,0.0,0.0,0.0,-1.3451,-1.4352,-1.6123,-1.7098,-1.6754,-1.7429,-1.6977,-1.4842,0.0,0.0,0.0,0.0,0.0,0.0,-1.4774,-1.5894,-1.7,-1.9859,-2.1172,-2.1127,-2.2928,-2.3836,-2.3953,-2.4259,-2.5185,-2.6528,-2.8306,-2.8619,-2.7868,-2.6985,-2.58,-2.4547,0.0,0.0,0.0,0.0,0.0,0.0,0.0,0.0,0.0,0.0,0.0,0.0,0.0,0.0,0.0,0.0,0.0,0.0,0.0,0.0,0.0,0.0,0.0,0.0,0.0,0.0,0.0,0.0,0.0,0.0,0.0,0.0,0.0,0.0,0.0,-2.847,-2.7806,-2.9533,-2.9458,-2.6003,-2.7699,-2.862,-2.7613,-2.8663,-2.9638,-3.0395,-3.0224,-3.0493,-3.1294,-3.1654,-3.2069,-3.2393,-3.265,-3.236,-3.1432,-3.1518,-3.1186,-3.0538,-3.077,-3.0907,-3.0863,-3.1118,-3.0956,-3.0475,-3.0009,-3.0131,-3.0583,-2.9842,-2.8921,-2.8094,-2.8094,-2.7574,-2.7031,0.0,0.0,0.0,0.0,0.0,0.0,0.0,0.0,0.0,0.0,-1.1833,-1.2565,-1.3241,-1.441,-1.513,-1.513,-1.4783,-1.4123,-1.2952,-1.1499,0.0,0.0,0.0,0.0,-1.0439,-1.2891,-1.42,-1.4502,-1.7508,-1.8745,-1.8476,-1.8485,-1.9127,-2.0208,-2.0227,-2.1366,-2.3345,-2.3798,-2.5444,-2.7562,-2.57,-2.5281,-2.575,0.0,0.0,0.0,0.0,0.0,0.0,0.0,0.0,0.0,0.0,0.0,0.0,0.0,0.0,0.0,0.0,0.0,0.0,0.0,0.0,0.0,0.0,0.0,0.0,0.0,0.0,0.0,0.0,0.0,0.0,0.0,0.0,0.0,-2.4767,-2.5828,-2.5902,-2.4638,-2.7273,-2.7914,-2.4536,-2.6626,-2.7937,-2.7323,-2.7061,-2.725,-2.7956,-2.7442,-2.7569,-2.86,-2.9106,-2.982,-3.0862,-2.9656,-2.9032,-2.8976,-2.7797,-2.7653,-2.8306,-2.902,-2.9331,-2.9288,-3.0006,-2.955,-2.8302,-2.8318,-2.7945,-2.7377,-2.8068,-2.7506,-2.6278,-2.623,-2.5766,-2.5083,0.0,0.0,0.0,0.0,0.0,0.0,0.0,0.0,0.0,0.0,-0.9528,-1.0873,-1.1253,-1.2618,-1.3514,-1.3514,-1.3029,-1.2112,-1.0528,0.0,0.0,0.0,0.0,0.0,-1.0042,-1.105,-1.1827,-1.2338,-1.4059,-1.5144,-1.5576,-1.682,-1.7851,-1.8674,-1.8939,-1.9382,-1.9964,-2.0072,-2.0993,-2.2532,-2.4204,-2.4522,-2.3855,0.0,0.0,0.0,0.0,0.0,0.0,0.0,0.0,0.0,0.0,0.0,0.0,0.0,0.0,0.0,0.0,0.0,0.0,0.0,0.0,0.0,0.0,0.0,0.0,0.0,0.0,0.0,0.0,0.0,0.0,0.0,0.0,-2.2199,-2.4249,-2.4952,-2.5398,-2.5879,-2.6691,-2.6898,-2.5916,-2.652,-2.6933,-2.6748,-2.6644,-2.6541,-2.6417,-2.6246,-2.614,-2.6182,-2.6456,-2.6972,-2.7553,-2.743,-2.7284,-2.7145,-2.6812,-2.6524,-2.6217,-2.5957,-2.6101,-2.6476,-2.6347,-2.6314,-2.6325,-2.6334,-2.5955,-2.5477,-2.6487,-2.6615,-2.6166,-2.5163,-2.4344,-2.3738,0.0,0.0,0.0,0.0,0.0,0.0,0.0,0.0,0.0,0.0,-0.8159,-0.9205,-0.9531,-1.049,-1.1075,-1.1075,-1.0597,-0.9835,-0.8753,0.0,0.0,0.0,0.0,-0.627,-0.7664,-0.8673,-0.9502,-1.0187,-1.1575,-1.2418,-1.2784,-1.3793,-1.4467,-1.481,-1.512,-1.5433,-1.5834,-1.6107,-1.7134,-1.8774,-2.0771,-2.2216,-2.3187,-2.2548,-2.2916,-2.3828,-2.3232,-2.4183,-2.5548,-2.4864,0.0,0.0,0.0,0.0,0.0,0.0,0.0,0.0,0.0,0.0,0.0,0.0,0.0,0.0,0.0,0.0,0.0,0.0,0.0,0.0,0.0,0.0,0.0,0.0,-1.9713,-2.0701,-2.2564,-2.3556,-2.4291,-2.4734,-2.486,-2.4785,-2.4594,-2.4573,-2.4727,-2.5207,-2.4809,-2.4609,-2.4792,-2.4207,-2.3971,-2.4171,-2.3929,-2.4198,-2.4855,-2.5003,-2.4998,-2.4831,-2.4739,-2.4456,-2.411,-2.3825,-2.3906,0.0,-2.4278,-2.4276,-2.4347,-2.4384,-2.4163,0.0,0.0,0.0,0.0,0.0,-2.2828,-2.2378,0.0,0.0,0.0,0.0,0.0,0.0,0.0,0.0,0.0,0.0,0.0,-0.7613,-0.781,-0.8244,-0.8456,-0.8456,-0.8054,-0.7542,0.0,0.0,0.0,-0.257,-0.2827,-0.3441,-0.4548,-0.6068,-0.7206,-0.782,-0.94,-1.0074,-0.9809,-1.0179,-1.0269,-1.0193,-1.0479,-1.1048,-1.1869,-1.241,-1.3793,-1.5609,-1.6095,-1.8879,-2.2806,-2.2088,-2.2555,-2.3689,-2.3289,-2.3952,-2.4971,-2.4394,0.0,0.0,0.0,0.0,0.0,0.0,0.0,0.0,0.0,0.0,0.0,0.0,0.0,0.0,0.0,0.0,0.0,0.0,0.0,0.0,0.0,0.0,0.0,0.0,-1.7744,-1.8498,-2.0323,-2.1858,-2.2746,-2.2559,-2.2471,-2.2295,-2.1924,-2.1885,-2.2267,-2.3273,-2.2381,-2.2249,-2.3106,0.0,0.0,0.0,0.0,-2.1645,-2.2648,-2.2417,-2.2403,-2.2524,-2.2223,-2.2106,-2.2196,-2.2328,-2.2405,-2.2511,-2.3101,-2.3078,-2.2586,-2.2511,-2.2437,-2.2392,-2.3171,-2.3071,-2.2383,-2.1799,-2.1379,0.0,0.0,0.0,0.0,0.0,0.0,0.0,0.0,0.0,0.0,-0.3195,-0.5023,-0.6151,-0.5596,-0.6861,-0.774,-0.774,-0.688,-0.5713,0.0,0.0,-0.204,-0.2641,-0.2276,-0.2526,-0.3536,-0.4062,-0.4367,-0.4516,-0.5638,-0.6222,-0.6341,-0.8057,-0.8888,-0.9144,-1.005,-1.0578,-1.0877,-1.0971,-1.1257,-1.1699,-1.2124,-1.5353,-1.9939,-1.9783,-2.0526,-2.1722,-2.2192,-2.3327,-2.4711,-2.4827,-2.4981,-2.4873,-2.38,0.0,0.0,0.0,0.0,0.0,0.0,0.0,0.0,0.0,0.0,0.0,0.0,0.0,0.0,0.0,0.0,0.0,0.0,0.0,0.0,-1.7631,-1.8189,-1.8894,-1.9594,-2.0536,-2.1519,-2.2434,-2.2207,-2.1982,-2.1894,-2.1885,-2.1967,-2.2195,-2.1634,-2.1271,-2.1134,-2.0554,0.0,-2.046,-1.9955,-2.0113,-2.1023,-2.0293,-2.0395,-2.1305,0.0,0.0,-2.1631,-2.123,-2.1326,-2.1695,-2.1432,-2.1526,-2.1792,-2.1411,-2.067,-2.0021,-2.2066,-2.2128,-2.1081,-2.0946,-2.0542,-1.9999,0.0,0.0,0.0,0.0,0.0,0.0,0.0,0.0,0.0,0.0,-0.3372,-0.4134,-0.3729,-0.4786,-0.5545,-0.5545,-0.4991,0.0,0.0,-0.1527,-0.1195,-0.1331,-0.1077,-0.1419,-0.2389,-0.2579,-0.2837,-0.3318,-0.3928,-0.4214,-0.4336,-0.5501,-0.5984,-0.6096,-0.6698,-0.6997,-0.699,-0.7051,-0.7823,-0.9004,-0.91,-1.1636,-1.5354,-1.6779,-1.8076,-1.9351,-2.0386,-2.1705,-2.284,-2.3012,-2.3426,-2.3801,-2.3678,-2.2638,-2.1271,0.0,0.0,0.0,0.0,0.0,0.0,0.0,0.0,0.0,0.0,0.0,0.0,0.0,0.0,-1.6828,0.0,0.0,-1.6625,-1.6498,-1.6877,-1.741,-1.8198,-1.8991,-1.973,-2.035,-2.0936,-2.0973,-2.0184,-2.038,-2.0586,-2.0586,-2.0381,-2.0156,-1.9941,-1.9717,-1.96,-1.96,-1.918,-1.9061,-1.9322,-1.9044,-1.9336,-2.0072,-1.9634,-1.9885,-2.0627,-1.9682,-1.95,-1.9862,-1.9581,-1.9639,-1.9907,-1.996,-1.9452,-1.8793,-2.0286,-2.0473,-1.9832,-2.0109,-1.9989,-1.969,0.0,0.0,0.0,0.0,0.0,0.0,0.0,0.0,0.0,0.0,-0.217,-0.2439,-0.2439,-0.3078,-0.3425,0.0,0.0,0.0,0.0,-0.0888,-0.0649,0.0,0.0233,-0.0078,-0.094,-0.0783,-0.1094,-0.1871,-0.2226,-0.2268,-0.2063,-0.2642,-0.2756,-0.2391,-0.2744,-0.2934,-0.3053,-0.3156,-0.4572,-0.6597,-0.659,-0.8026,-1.0485,-1.3003,-1.4832,-1.6375,-1.8053,-1.915,-1.9912,-2.0457,-2.12,-2.2006,-2.2562,-2.1802,-2.0423,-1.9802,-1.8701,0.0,0.0,0.0,0.0,0.0,0.0,0.0,0.0,0.0,-1.5799,-1.556,-1.561,-1.5567,-1.5324,-1.5546,-1.5756,-1.5817,-1.5971,-1.6373,-1.7334,-1.7993,-1.8294,-1.8124,-1.9353,-1.9629,-1.8366,-1.8723,-1.9102,-1.917,-1.9082,-1.9004,-1.8926,-1.8916,-1.8955,-1.9033,-1.8623,-1.8271,-1.8008,-1.8009,-1.8193,-1.8585,-1.8067,-1.8391,-1.9256,-1.8244,-1.7933,-1.8204,-1.8204,-1.8141,-1.8088,-1.8578,-1.8419,-1.7922,-1.8506,-1.8735,-1.8817,-1.9369,-1.9603,-1.969,0.0,0.0,0.0,0.0,0.0,0.0,0.0,0.0,0.0,0.0,0.0,0.0,0.0,0.0,0.0,0.0,0.0,0.0,-0.0193,-0.0139,-0.0074,0.0,0.0929,0.1333,0.1254,0.211,0.2497,0.2418,0.1482,0.1487,0.2359,0.047,0.0,0.0731,-0.0083,-0.1023,-0.2127,-0.2048,-0.2798,-0.4042,-0.3978,-0.4904,-0.6368,-0.7804,-0.9994,-1.2478,-1.4751,-1.5476,-1.5698,-1.8124,-1.8812,-1.8759,-1.9042,-1.8931,-1.8431,-1.7098,0.0,-1.5955,-1.4471,-1.4321,-1.4882,-1.5938,-1.5823,-1.5731,0.0,0.0,-1.5573,-1.5363,-1.5524,-1.5667,-1.5454,-1.655,-1.7412,-1.7431,-1.8001,-1.8507,-1.8588,-1.8667,-1.8262,-1.7376,-1.8136,-1.851,-1.8033,-1.8035,-1.8229,-1.8669,-1.8369,-1.7988,-1.7617,-1.7598,-1.7773,-1.8144,-1.7744,-1.7676,-1.8008,-1.6478,-1.6123,-1.68,-1.5945,-1.6265,-1.7544,-1.7435,-1.769,-1.8204,-1.8204,-1.7928,-1.7476,-1.7554,-1.7213,-1.6726,-1.7293,-1.776,-1.8263,-1.8779,-1.9281,-1.969,0.0,0.0,0.0,0.0,0.0,0.0,0.0,0.0,0.0,0.0,0.0,0.0,0.0,0.0,0.0,0.0,0.0,0.0,0.0707,0.0744,0.0992,0.1548,0.2013,0.2266,0.2376,0.2757,0.3004,0.3124,0.265,0.2671,0.3107,0.2195,0.1986,0.2307,0.2076,0.1612,0.1138,0.1256,0.0182,-0.1655,-0.166,-0.3227,-0.5613,-0.6074,-0.757,-0.9838,-1.2516,-1.3523,0.0,0.0,-1.5708,-1.5943,-1.6737,-1.64,-1.5569,-1.5319,-1.4874,0.0,-1.3044,-1.222,0.0,0.0,-1.2862,-1.2961,-1.3635,-1.3929,-1.4129,-1.4428,-1.5119,-1.594,-1.6586,-1.7223,-1.7963,0.0,-1.8741,-1.8875,-1.8931,-1.8801,-1.8188,-1.6788,-1.7096,-1.7325,-1.7018,-1.7093,-1.7312,-1.7473,-1.7363,-1.7187,-1.7012,-1.7002,-1.708,-1.7266,-1.71,-1.6846,-1.6504,-1.5771,-1.5545,-1.572,-1.4963,-1.5354,-1.6753,-1.6311,-1.6551,-1.7225,-1.7225,-1.7087,-1.6886,-1.6886,-1.6735,-1.6522,-1.6752,-1.7353,-1.8185,-1.8688,-1.9244,-1.969,0.0,0.0,0.0,0.0,0.0,0.0,0.0,0.0,0.0,0.0,0.0,0.0,0.0,0.0,0.0,0.0,0.0,0.0,0.0,0.1573,0.1914,0.2625,0.2973,0.3255,0.3315,0.3642,0.3991,0.4363,0.4363,0.4557,0.4785,0.4781,0.4833,0.4831,0.4943,0.4703,0.4241,0.437,0.2909,0.0368,0.0372,-0.1847,-0.501,-0.5137,-0.6238,-0.8196,-1.0626,-1.1784,0.0,0.0,-1.3039,-1.3231,-1.3992,-1.3447,-1.2708,-1.3113,-1.2444,-1.1528,-1.0809,0.0,0.0,-0.9871,-1.0576,-1.1101,-1.088,-1.1734,-1.2867,-1.3222,-1.4644,-1.6149,-1.7279,-1.8087,0.0,-1.9709,-1.9904,-1.9876,-2.0024,-1.9634,-1.8936,-1.7722,-1.7101,-1.6788,-1.6833,-1.6429,-1.6292,-1.6553,-1.6436,-1.6318,-1.6201,-1.6416,-1.6436,-1.6201,-1.6309,-1.6006,-1.5244,-1.5,-1.4835,-1.4697,-1.4089,-1.4547,-1.5916,-1.573,-1.5956,-1.6522,-1.6522,-1.6522,-1.6522,-1.6522,-1.6522,-1.6522,-1.668,-1.7312,-1.8185,-1.8688,-1.9244,-1.969,0.0,0.0,0.0,0.0,0.0,0.0,0.0,0.0,0.0,0.0,0.0,0.0,0.0,0.0,0.0,0.0,0.0,0.0,0.0,0.2369,0.2485,0.249,0.3763,0.4438,0.444,0.5631,0.671,0.7625,0.7625,0.8161,0.9074,0.9145,0.915,0.9094,0.9213,0.8226,0.6354,0.6537,0.4685,0.1751,0.1717,-0.0447,-0.3733,-0.4248,-0.5755,-0.7819,-0.9085,0.0,0.0,0.0,-1.0899,-1.0592,-1.0077,-1.0073,0.0,-0.9818,-0.8822,0.0,0.0,0.0,-0.8643,-0.8681,-1.0122,-1.1267,-1.0227,-1.1053,-1.193,-1.1945,-1.3933,-1.5926,-1.6865,-1.8952,-2.0647,-2.0647,-2.1719,-2.2527,-2.2449,-2.1672,-2.1074,-2.1086,-1.8751,-1.7363,0.0,-1.599,-1.5145,-1.6023,-1.5693,-1.5273,-1.4863,-1.5635,-1.5703,-1.4873,-1.5244,-1.5244,-1.4805,-1.3975,-1.3555,-1.3567,-1.3115,-1.3556,-1.4766,-1.5944,-1.6491,-1.6522,-1.6522,-1.6522,-1.6522,-1.6522,-1.6522,-1.6552,-1.7076,-1.7626,-1.8185,-1.8688,-1.9244,-1.969,0.0,0.0,0.0,0.0,0.0,0.0,0.0,0.0,0.0,0.0,0.0,0.0,0.0,0.0,0.0,0.0,0.0,0.0,0.0,0.3202,0.3501,0.4223,0.4683,0.5352,0.6353,0.6787,0.7599,0.8765,0.8981,0.913,0.9301,0.9448,0.9438,0.9306,0.9441,0.9204,0.8712,0.7986,0.6332,0.4041,0.3192,0.0342,-0.3486,-0.3828,-0.5787,-0.837,0.0,0.0,0.0,-0.9873,-1.0024,-1.0108,-0.9317,0.0,-0.8857,-0.8122,-0.7085,-0.6044,0.0,0.0,-0.5387,-0.6502,-0.7292,-0.8041,-0.851,-1.0386,-1.1945,-1.1945,-1.3676,-1.5619,-1.6699,-1.8085,-1.9326,-2.041,-2.1281,-2.1807,-2.2025,-2.1628,-2.1116,-2.0426,-1.9371,0.0,0.0,0.0,0.0,-1.5615,-1.4961,-1.4629,-1.4775,-1.4785,-1.4648,-1.4365,-1.4492,-1.4365,-1.3945,-1.3652,-1.3369,-1.3086,-1.3347,-1.392,-1.4744,-1.5555,-1.6139,-1.6522,-1.6522,-1.671,-1.7034,-1.7034,-1.7229,-1.7585,-1.7747,-1.8185,-1.865,-1.8817,-1.8943,-1.9091,0.0,0.0,0.0,0.0,0.0,0.0,0.0,0.0,0.0,0.0,0.0,0.0,0.0,0.0,0.0,0.0,0.0,0.0,0.0,0.0,0.5049,0.5689,0.5817,0.6359,0.7247,0.7322,0.7966,0.918,0.9761,1.016,1.0372,1.1083,1.1255,1.0936,1.1193,1.1,1.0466,0.937,0.7453,0.5046,0.3493,0.0401,-0.325,-0.3957,-0.5933,0.0,0.0,0.0,0.0,-0.895,-0.8958,-0.8958,-0.7952,-0.7245,-0.6652,-0.529,-0.4135,-0.3238,-0.3088,-0.2566,-0.2511,-0.4094,-0.5178,-0.6218,-0.7072,-0.9591,-1.1702,-1.1728,-1.3882,-1.5996,-1.6661,-1.7588,-1.8583,-1.9555,-2.0044,-2.0558,-2.1084,-2.0903,-2.0608,-2.0392,-1.95,0.0,0.0,0.0,0.0,-1.5391,-1.4619,-1.4204,-1.4531,-1.4287,-1.3941,-1.3691,-1.3828,-1.3711,-1.3281,-1.3281,-1.3154,-1.2929,-1.3528,-1.4033,-1.4429,-1.5081,-1.5672,-1.622,-1.622,-1.6645,-1.7312,-1.7312,-1.7626,-1.8145,-1.8302,-1.8612,-1.8902,-1.9002,-1.8947,-1.8982,0.0,0.0,0.0,0.0,0.0,0.0,0.0,0.0,0.0,0.0,0.0,0.0,0.0,0.0,0.0,0.0,0.0,0.0,0.0,0.0,0.0,0.6956,0.719,0.7365,0.7447,0.7575,0.8195,0.918,1.0269,1.1314,1.23,1.3755,1.4295,1.3975,1.4303,1.3507,1.176,1.0533,0.8066,0.4691,0.2711,-0.0074,-0.3105,-0.4544,0.0,0.0,0.0,0.0,0.0,0.0,0.0,0.0,0.0,-0.4674,-0.3591,-0.1437,-0.0225,0.0479,0.0436,0.0272,-0.028,-0.1682,-0.4009,-0.5884,-0.5874,-0.8806,-1.1407,-1.1385,-1.4315,-1.6766,0.0,0.0,-1.8308,-1.8027,-1.8446,-1.9089,-1.9854,-1.9672,-1.984,0.0,0.0,0.0,0.0,0.0,0.0,-1.542,0.0,-1.4058,-1.4077,-1.4038,-1.3711,-1.29,-1.3271,-1.3281,-1.2881,-1.2861,-1.289,-1.2929,-1.3512,-1.3838,-1.3914,-1.4562,-1.5166,-1.5734,-1.5734,-1.634,-1.7341,-1.7381,-1.7679,-1.8207,-1.875,-1.8977,-1.8987,-1.9155,-1.9194,-1.9258,0.0,0.0,0.0,0.0,0.0,0.0,0.0,0.0,0.0,0.0,0.0,0.0,0.0,0.0,0.0,0.0,0.0,0.0,0.0,0.0,0.0,0.0,0.0,0.0,0.0,0.0,0.0,1.1703,1.215,1.2672,1.3197,1.3781,1.4158,1.4273,1.4371,1.3748,1.2453,1.0152,0.743,0.4437,0.0,-0.1041,-0.3783,0.0,0.0,0.0,0.0,0.0,0.0,0.0,0.0,0.0,0.0,-0.2642,-0.1514,-0.0305,0.088,0.1689,0.1474,0.1361,0.0757,-0.1443,-0.3182,-0.4805,-0.6673,-0.9095,-1.114,-1.18,-1.3015,-1.3855,0.0,0.0,0.0,-1.7309,-1.8602,0.0,-2.075,-2.1145,0.0,0.0,0.0,-1.9123,-1.8091,-1.6465,0.0,0.0,-1.4326,-1.3799,-1.4058,-1.3545,-1.3105,-1.2891,-1.2988,-1.2988,-1.2881,-1.2559,-1.2569,-1.2955,-1.2792,-1.3158,-1.3971,-1.4125,-1.4983,-1.6297,-1.6297,-1.6832,-1.781,-1.8299,-1.8738,-1.9114,-1.9702,-1.9836,-1.9653,-1.9704,-1.9072,-1.8295,0.0,0.0,0.0,0.0,0.0,0.0,0.0,0.0,0.0,0.0,0.0,0.0,0.0,0.0,0.0,0.0,0.0,0.0,0.0,0.0,0.0,0.0,0.0,0.0,0.0,0.0,0.0,0.0,0.0,0.0,1.3459,1.4601,1.5107,1.5094,1.5285,1.4524,1.2866,0.949,0.0,0.0,0.0,0.0,0.0,0.0,0.0,0.0,0.0,0.0,0.0,0.0,0.0,-0.3278,-0.1816,-0.0871,0.0,0.1897,0.0,0.3408,0.2677,0.2506,0.185,-0.1111,-0.3141,-0.4754,-0.6307,-0.8803,-1.0861,-1.1163,-1.1978,0.0,0.0,0.0,0.0,0.0,0.0,0.0,-1.923,-1.9742,-1.993,0.0,-1.9226,0.0,-1.7542,-1.5957,-1.5046,0.0,-1.3962,-1.3508,-1.4068,-1.334,-1.2881,-1.2881,-1.2881,-1.2881,-1.2881,-1.2666,-1.2701,-1.2986,-1.2784,-1.2986,-1.3592,-1.3648,-1.4387,-1.574,0.0,-1.6811,-1.7935,-1.8448,-1.9121,-1.9789,-1.9686,-1.9752,-1.9842,-1.9367,-1.87,-1.8087,0.0,0.0,0.0,0.0,0.0,0.0,0.0,0.0,0.0,0.0,0.0,0.0,0.0,0.0,0.0,0.0,0.0,0.0,0.0,0.0,0.0,0.0,0.0,0.0,0.0,0.0,0.0,0.0,0.0,0.0,0.0,0.0,0.0,0.0,0.0,0.0,0.0,0.0,0.0,0.0,0.0,0.0,0.0,0.0,0.0,0.0,0.0,0.0,0.0,0.0,-0.1913,-0.2219,-0.0082,0.0657,0.1309,0.4078,0.5117,0.5043,0.3516,0.3137,0.2378,-0.0882,-0.3591,-0.5483,-0.5885,-0.8604,-1.0871,-1.0498,0.0,-1.2322,-1.254,0.0,-1.3459,-1.3671,0.0,-1.5977,-1.7316,-1.7603,-1.8008,-1.885,-1.8018,-1.7103,-1.6287,-1.5116,-1.4443,-1.4559,-1.3461,-1.3176,-1.4,-1.3311,-1.2881,-1.2881,-1.2832,-1.2793,-1.2793,-1.2828,-1.2864,-1.2941,-1.2986,-1.3087,-1.3213,-1.3281,-1.3891,-1.4927,0.0,0.0,-1.7853,-1.8332,-1.911,-1.9967,-1.9194,-1.926,-1.9653,-1.8729,-1.8325,-1.8194,0.0,0.0,0.0,0.0,0.0,0.0,0.0,0.0,0.0,0.0,0.0,0.0,0.0,0.0,0.0,0.0,0.0,0.0,0.0,0.0,0.0,0.0,0.0,0.0,0.0,0.0,0.0,0.0,0.0,0.0,0.0,0.0,0.0,0.0,0.0,0.0,0.0,0.0,0.0,0.0,0.0,0.0,0.0,0.0,0.0,0.0,0.0,0.0,0.0,0.0,-0.1628,-0.1412,0.0808,0.214,0.2979,0.3614,0.4486,0.4687,0.2609,0.1498,0.0411,-0.1886,-0.4574,-0.7022,-0.8425,-1.0255,0.0,0.0,0.0,-1.2509,-1.1974,-1.261,0.0,-1.5854,0.0,0.0,0.0,0.0,-1.8556,0.0,0.0,0.0,0.0,0.0,0.0,0.0,0.0,0.0,-1.3562,-1.3154,-1.2881,-1.2881,-1.2529,-1.2344,-1.2344,-1.2052,-1.2105,-1.2498,-1.2579,-1.3006,-1.3765,-1.3775,-1.4539,-1.5905,0.0,0.0,-1.7486,-1.8587,-1.892,-1.8762,-1.9159,-1.9201,-1.9035,-1.8857,-1.8411,-1.7889,0.0,0.0,0.0,0.0,0.0,0.0,0.0,0.0,0.0,0.0,0.0,0.0,0.0,0.0,0.0,0.0,0.0,0.0,0.0,0.0,0.0,0.0,0.0,0.0,0.0,0.0,0.0,0.0,0.0,0.0,0.0,0.0,0.0,0.0,0.0,0.0,0.0,0.0,0.0,0.0,0.0,0.0,0.0,0.0,0.0,0.0,0.0,0.0,0.0,0.0,-0.1077,-0.103,0.1076,0.2165,0.2661,0.3308,0.3451,0.3134,0.1432,0.0,-0.174,-0.4643,-0.7146,-0.9254,-1.0451,0.0,0.0,0.0,0.0,-1.2265,-1.211,0.0,0.0,0.0,0.0,0.0,0.0,0.0,0.0,0.0,0.0,0.0,0.0,0.0,0.0,0.0,0.0,0.0,-1.3445,-1.3105,-1.3065,-1.3372,-1.2888,-1.2746,-1.3107,-1.2658,-1.253,-1.275,-1.3081,-1.3454,-1.3901,-1.4117,-1.4717,-1.5624,-1.629,0.0,-1.7355,-1.8155,-1.8642,-1.8884,-1.8668,-1.8691,-1.8843,-1.8471,-1.8115,-1.7811,0.0,0.0,0.0,0.0,0.0,0.0,0.0,0.0,0.0,0.0,0.0,0.0,0.0,0.0,0.0,0.0,0.0,0.0,0.0,0.0,0.0,0.0,0.0,0.0,0.0,0.0,0.0,0.0,0.0,0.0,0.0,0.0,0.0,0.0,0.0,0.0,0.0,0.0,0.0,0.0,0.0,0.0,0.0,0.0,0.0,0.0,0.0,0.0,0.0,0.0,-0.1399,-0.1823,-0.0335,0.0602,0.1374,0.2256,0.1788,0.076,-0.0597,-0.2312,-0.4552,-0.7885,-1.0186,-1.1784,-1.239,-1.3218,0.0,0.0,-1.2318,-1.2321,-1.2589,0.0,0.0,0.0,0.0,0.0,0.0,0.0,0.0,0.0,0.0,0.0,0.0,0.0,0.0,0.0,0.0,0.0,-1.3299,-1.3057,-1.3102,-1.3632,-1.3135,-1.3063,-1.3571,-1.3166,-1.2979,-1.2979,-1.3591,-1.3967,-1.4019,-1.4438,-1.4845,-1.5298,-1.5922,0.0,0.0,-1.7626,-1.8313,-1.8972,-1.8135,-1.8149,-1.8589,-1.8014,-1.7811,-1.7811,0.0,0.0,0.0,0.0,0.0,0.0,0.0,0.0,0.0,0.0,0.0,0.0,0.0,0.0,0.0,0.0,0.0,0.0,0.0,0.0,0.0,0.0,0.0,0.0,0.0,0.0,0.0,0.0,0.0,0.0,0.0,0.0,0.0,0.0,0.0,0.0,0.0,0.0,0.0,0.0,0.0,0.0,0.0,0.0,0.0,0.0,0.0,0.0,0.0,0.0,0.0,-0.4563,-0.5033,-0.316,-0.078,-0.0445,0.0,0.0,-0.4217,-0.6443,-0.8783,-1.0705,-1.2951,-1.4668,-1.4626,0.0,0.0,-1.4286,-1.3729,-1.3359,-1.3407,-1.3445,-1.3662,0.0,0.0,0.0,0.0,0.0,0.0,0.0,0.0,0.0,0.0,0.0,0.0,0.0,0.0,0.0,0.0,-1.29,-1.2972,-1.308,-1.2611,-1.2414,-1.2547,-1.2559,-1.2579,-1.2579,-1.348,-1.4084,-1.447,-1.4845,-1.5299,-1.5771,0.0,0.0,0.0,-1.7545,-1.786,-1.7929,-1.7839,-1.7845,-1.7896,-1.7828,-1.7811,-1.7816,0.0,0.0,0.0,0.0,0.0,0.0,0.0,0.0,0.0,0.0,0.0,0.0,0.0,0.0,0.0,0.0,0.0,0.0,0.0,0.0,0.0,0.0,0.0,0.0,0.0,0.0,0.0,0.0,0.0,0.0,0.0,0.0,0.0,0.0,0.0,0.0,0.0,0.0,0.0,0.0,0.0,0.0,0.0,0.0,0.0,0.0,0.0,0.0,0.0,0.0,0.0,0.0,-0.7295,-0.6977,0.0,0.0,-0.4594,-0.5684,-0.7033,-0.9536,-1.2374,-1.4885,-1.605,-1.6782,-1.7349,0.0,0.0,-1.5072,-1.445,-1.4023,-1.4023,-1.374,-1.3535,-1.3623,0.0,0.0,0.0,0.0,0.0,0.0,0.0,0.0,0.0,0.0,0.0,0.0,0.0,0.0,0.0,-1.249,-1.2812,-1.3531,-1.2782,-1.2681,-1.3431,-1.3094,-1.2908,-1.2943,-1.3822,-1.4342,-1.4533,-1.5195,-1.574,-1.6095,0.0,0.0,0.0,-1.7385,-1.7625,-1.7811,-1.7811,-1.7811,-1.7811,-1.7811,-1.7905,-1.8057,0.0,0.0,0.0,0.0,0.0,0.0,0.0,0.0,0.0,0.0,0.0,0.0,0.0,0.0,0.0,0.0,0.0,0.0,0.0,0.0,0.0,0.0,0.0,0.0,0.0,0.0,0.0,0.0,0.0,0.0,0.0,0.0,0.0,0.0,0.0,0.0,0.0,0.0,0.0,0.0,0.0,0.0,0.0,0.0,0.0,0.0,0.0,0.0,0.0,0.0,0.0,0.0,0.0,0.0,0.0,0.0,-0.8062,-0.9089,-1.0438,-1.2789,-1.5501,-1.8258,-1.8753,-1.8717,0.0,0.0,-1.6694,-1.5963,-1.5222,-1.4687,-1.4654,-1.4208,-1.3738,-1.3481,0.0,-1.3751,0.0,0.0,0.0,0.0,0.0,0.0,0.0,0.0,0.0,0.0,0.0,0.0,0.0,-1.2128,-1.248,-1.3448,-1.2889,-1.2998,-1.3846,-1.3547,-1.3425,-1.3425,-1.4278,-1.469,-1.469,-1.5448,-1.5983,-1.6301,0.0,0.0,0.0,-1.7296,-1.7502,-1.7811,-1.7811,-1.7811,-1.7811,-1.7811,-1.7927,-1.8103,0.0,0.0,0.0,0.0,0.0,0.0,0.0,0.0,0.0,0.0,0.0,0.0,0.0,0.0,0.0,0.0,0.0,0.0,0.0,0.0,0.0,0.0,0.0,0.0,0.0,0.0,0.0,-1.6803,-1.8544,0.0,0.0,0.0,0.0,0.0,0.0,0.0,0.0,0.0,0.0,0.0,0.0,0.0,0.0,0.0,0.0,0.0,0.0,0.0,0.0,0.0,0.0,0.0,0.0,-1.3755,-1.3107,0.0,-1.1386,-1.2582,-1.4563,-1.6336,-1.8027,-2.0083,-2.0685,-2.0584,0.0,0.0,-1.7835,-1.7205,-1.6211,-1.5459,-1.5314,-1.4976,-1.4709,-1.4698,-1.419,0.0,0.0,0.0,0.0,0.0,0.0,0.0,0.0,0.0,0.0,0.0,0.0,0.0,0.0,-1.1933,-1.1922,-1.2385,-1.285,-1.313,-1.321,-1.3648,-1.3901,-1.3901,-1.4721,-1.5104,-1.5104,-1.558,-1.5983,0.0,0.0,0.0,0.0,-1.7296,-1.7502,-1.7811,-1.7811,-1.7811,-1.7811,-1.7811,-1.7811,-1.7883,0.0,0.0,0.0,0.0,0.0,0.0,0.0,0.0,0.0,0.0,0.0,0.0,0.0,0.0,0.0,0.0,0.0,0.0,0.0,0.0,0.0,0.0,0.0,0.0,0.0,0.0,0.0,-2.0821,-2.1487,-2.2379,0.0,0.0,0.0,0.0,0.0,0.0,0.0,0.0,0.0,0.0,0.0,0.0,0.0,0.0,0.0,0.0,0.0,0.0,0.0,0.0,0.0,0.0,0.0,0.0,0.0,-1.5283,-1.4968,-1.5033,-1.6402,-1.7875,-1.9362,-2.0973,-2.0739,-2.023,-2.0542,0.0,-1.8018,-1.7826,-1.7186,-1.6549,-1.6122,-1.5603,-1.5139,-1.4744,-1.4514,0.0,0.0,0.0,0.0,0.0,0.0,0.0,0.0,0.0,0.0,0.0,0.0,0.0,0.0,0.0,-1.2456,-1.2866,-1.2777,-1.302,-1.3682,-1.3835,-1.4019,-1.431,-1.4845,-1.5104,-1.5134,-1.558,0.0,0.0,0.0,0.0,0.0,-1.7549,-1.7704,-1.7811,-1.7811,-1.7811,-1.7811,-1.7811,-1.7905,-1.8125,0.0,0.0,0.0,0.0,0.0,0.0,0.0,0.0,0.0,0.0,0.0,0.0,0.0,0.0,0.0,0.0,0.0,0.0,0.0,0.0,0.0,0.0,0.0,0.0,0.0,0.0,-2.2105,-2.2828,-2.315,-2.3693,-2.4422,-2.4915,-2.5186,0.0,0.0,0.0,0.0,0.0,0.0,0.0,0.0,0.0,-1.3254,0.0,0.0,0.0,0.0,0.0,0.0,0.0,0.0,0.0,0.0,0.0,0.0,0.0,-1.7334,-1.7256,0.0,-1.9062,-2.0035,-2.1367,-2.0936,0.0,0.0,0.0,-1.865,-1.8458,-1.7946,-1.7369,-1.6857,-1.6262,-1.5784,-1.5421,-1.5197,0.0,0.0,0.0,0.0,0.0,0.0,0.0,0.0,0.0,0.0,0.0,0.0,0.0,0.0,0.0,-1.2935,-1.3385,-1.3148,-1.3183,-1.3519,-1.4073,-1.4345,-1.4356,-1.5049,-1.5359,-1.5359,-1.5668,0.0,0.0,0.0,0.0,0.0,-1.7704,-1.7811,-1.7811,-1.7811,-1.7811,-1.7811,-1.7811,-1.7922,-1.8103,0.0,0.0,0.0,0.0,0.0,0.0,0.0,0.0,0.0,0.0,0.0,0.0,0.0,0.0,0.0,0.0,0.0,0.0,0.0,0.0,0.0,0.0,0.0,0.0,0.0,-2.3536,-2.34,-2.3253,-2.371,-2.4078,-2.4393,-2.4869,-2.5171,-2.5342,-2.5159,0.0,0.0,0.0,0.0,0.0,0.0,0.0,0.0,0.0,0.0,0.0,0.0,0.0,0.0,0.0,0.0,0.0,0.0,0.0,0.0,0.0,0.0,0.0,0.0,-1.9883,0.0,0.0,0.0,0.0,0.0,0.0,0.0,-1.9006,-1.8458,-1.7947,-1.7463,-1.6909,-1.6552,-1.6522,-1.6008,0.0,0.0,0.0,0.0,0.0,0.0,0.0,0.0,0.0,0.0,0.0,0.0,0.0,0.0,0.0,-1.3403,-1.3934,-1.3967,-1.3669,-1.3076,-1.441,-1.4788,-1.4227,-1.5298,-1.5799,-1.5799,-1.5799,0.0,0.0,0.0,0.0,0.0,-1.7789,-1.7811,-1.7811,-1.7811,-1.7811,-1.7811,-1.7811,-1.7811,-1.7878,0.0,0.0,0.0,0.0,0.0,0.0,0.0,0.0,0.0,0.0,0.0,0.0,0.0,0.0,0.0,0.0,0.0,0.0,0.0,0.0,0.0,0.0,0.0,0.0,0.0,-2.3757,-2.3527,-2.3566,-2.3352,-2.3569,-2.4182,-2.4654,-2.4895,-2.4932,-2.4946,0.0,0.0,0.0,0.0,0.0,0.0,0.0,0.0,0.0,0.0,0.0,-1.7679,-1.7188,0.0,0.0,0.0,0.0,0.0,0.0,0.0,0.0,-1.8185,-1.9037,-1.9699,0.0,-1.9931,-2.0729,-2.0438,0.0,0.0,0.0,0.0,0.0,0.0,0.0,0.0,-1.7463,-1.6993,-1.6552,-1.6008,0.0,0.0,0.0,0.0,0.0,0.0,0.0,0.0,0.0,0.0,0.0,0.0,0.0,0.0,0.0,-1.3907,-1.4342,-1.4658,-1.4744,-1.4572,-1.4927,-1.5212,-1.5401,-1.5651,-1.5799,-1.5799,-1.5799,0.0,0.0,0.0,0.0,-1.7455,-1.7681,-1.7811,-1.7811,-1.7811,-1.7811,-1.7811,-1.7811,-1.7811,-1.7878,0.0,0.0,0.0,0.0,0.0,0.0,0.0,0.0,0.0,0.0,0.0,0.0,0.0,0.0,0.0,0.0,0.0,0.0,0.0,0.0,0.0,0.0,0.0,0.0,0.0,-2.3835,-2.3484,-2.3459,-2.3064,-2.3195,-2.3842,-2.4397,-2.4736,-2.4881,-2.4863,0.0,0.0,0.0,0.0,0.0,-2.2548,0.0,0.0,0.0,0.0,0.0,-1.8011,-1.7353,0.0,-1.6909,-1.6752,-1.6522,0.0,0.0,0.0,0.0,-1.7909,-1.8698,-1.9262,-2.0026,-2.0767,-2.144,-2.1335,-2.095,0.0,0.0,0.0,0.0,0.0,0.0,0.0,0.0,0.0,0.0,0.0,0.0,0.0,0.0,0.0,0.0,0.0,0.0,0.0,0.0,0.0,0.0,0.0,0.0,0.0,0.0,-1.4278,-1.4501,-1.5104,-1.5169,-1.4659,-1.5169,-1.5475,-1.5582,-1.5887,-1.6123,-1.6274,-1.6274,0.0,0.0,0.0,0.0,-1.7549,-1.7726,-1.7811,-1.7811,-1.7811,-1.7811,-1.7811,-1.7811,-1.7811,-1.7878,0.0,0.0,0.0,0.0,0.0,0.0,0.0,0.0,0.0,0.0,0.0,0.0,0.0,0.0,0.0,0.0,0.0,0.0,0.0,0.0,0.0,0.0,0.0,0.0,-2.4335,-2.366,-2.3209,-2.2937,-2.2609,-2.2735,-2.3285,-2.3995,-2.4559,-2.5017,-2.486,0.0,0.0,0.0,0.0,0.0,-2.3637,0.0,0.0,0.0,0.0,0.0,0.0,0.0,0.0,-1.6795,-1.6552,-1.6522,-1.6595,0.0,0.0,0.0,0.0,0.0,-1.8764,-2.0343,-2.1916,-2.2313,-2.2401,-2.2085,-2.0997,0.0,0.0,0.0,0.0,0.0,0.0,0.0,0.0,0.0,0.0,0.0,0.0,0.0,0.0,0.0,0.0,0.0,0.0,0.0,0.0,0.0,0.0,0.0,0.0,0.0,0.0,-1.469,-1.5418,-1.5328,-1.4356,-1.537,-1.5722,-1.5474,-1.6075,-1.6528,-1.6789,-1.6789,0.0,0.0,0.0,0.0,-1.7811,-1.7811,-1.7811,-1.7811,-1.7811,-1.7811,-1.7811,-1.7811,-1.7811,-1.7839,0.0,0.0,0.0,0.0,0.0,0.0,0.0,0.0,0.0,0.0,0.0,0.0,0.0,0.0,0.0,0.0,0.0,0.0,0.0,0.0,0.0,0.0,0.0,-2.3876,-2.3476,-2.2888,-2.2315,-2.1745,-2.1442,-2.1619,-2.2329,-2.3105,-2.4062,-2.5072,-2.4889,-2.449,-2.3929,-2.3512,-2.3623,-2.3989,-2.3878,0.0,0.0,0.0,0.0,0.0,0.0,0.0,0.0,-1.7188,-1.6879,-1.6595,-1.7034,0.0,0.0,0.0,0.0,0.0,-1.8764,-2.0748,-2.2253,-2.1304,-2.1035,-2.0781,0.0,0.0,0.0,0.0,0.0,0.0,0.0,0.0,0.0,0.0,0.0,0.0,0.0,0.0,0.0,0.0,0.0,0.0,0.0,0.0,0.0,0.0,0.0,0.0,0.0,0.0,0.0,-1.558,-1.5741,-1.5725,-1.5548,-1.6006,-1.62,-1.6146,-1.6533,-1.6738,-1.6789,-1.6789,-1.6977,0.0,0.0,-1.7502,-1.7811,-1.7811,-1.7811,-1.7811,-1.7811,-1.7811,-1.7811,-1.7811,-1.7811,-1.7861,0.0,0.0,0.0,0.0,0.0,0.0,0.0,0.0,0.0,0.0,0.0,0.0,0.0,0.0,0.0,0.0,0.0,0.0,0.0,0.0,0.0,0.0,-2.2917,-2.2927,-2.2503,-2.1813,-2.1207,-2.0623,-2.0589,-2.0958,-2.1719,-2.3199,-2.4341,-2.509,-2.4889,-2.4496,-2.3988,-2.3803,-2.378,-2.3871,0.0,0.0,0.0,0.0,0.0,0.0,0.0,0.0,0.0,0.0,-1.671,-1.6552,-1.6795,0.0,0.0,0.0,0.0,0.0,-1.8029,-1.9586,-2.0946,-2.042,-2.1663,-2.2814,0.0,0.0,0.0,0.0,0.0,0.0,0.0,0.0,0.0,0.0,0.0,0.0,0.0,0.0,0.0,0.0,0.0,0.0,0.0,0.0,0.0,0.0,0.0,0.0,0.0,0.0,0.0,0.0,-1.5551,-1.5799,-1.5799,-1.6136,-1.6394,-1.6581,-1.6901,-1.7175,-1.7337,-1.7337,-1.7432,-1.7572,0.0,-1.7658,-1.7811,-1.7811,-1.7811,-1.7811,-1.7811,-1.7811,-1.7811,-1.7811,-1.7811,-1.7856,0.0,0.0,0.0,0.0,0.0,0.0,0.0,0.0,0.0,0.0,0.0,0.0,0.0,0.0,0.0,0.0,0.0,0.0,0.0,0.0,-2.3152,-2.2874,-2.2504,-2.1999,-2.1394,-2.0623,-1.9922,-1.9276,-1.9547,-2.0333,-2.1625,-2.3515,-2.4685,-2.5168,-2.499,-2.4631,-2.4188,-2.4155,-2.4018,-2.3862,0.0,0.0,0.0,0.0,0.0,0.0,0.0,0.0,0.0,0.0,0.0,0.0,0.0,0.0,0.0,-1.6522,-1.6835,-1.7212,-1.735,-1.8568,-1.9773,-1.9648,0.0,0.0,0.0,0.0,0.0,0.0,0.0,0.0,0.0,0.0,0.0,0.0,0.0,0.0,0.0,0.0,0.0,0.0,0.0,0.0,0.0,0.0,0.0,0.0,0.0,0.0,0.0,0.0,0.0,0.0,-1.5389,-1.5799,-1.5799,-1.6136,-1.6474,-1.6815,-1.715,-1.7479,-1.7811,-1.7811,-1.7811,-1.7811,-1.7811,-1.7811,-1.7811,-1.7811,-1.7811,-1.7811,-1.7811,-1.7811,-1.7811,-1.7811,-1.7811,-1.7856,0.0,0.0,0.0,0.0,0.0,0.0,0.0,0.0,0.0,0.0,0.0,0.0,0.0,0.0,0.0,0.0,0.0,0.0,0.0,0.0,-2.3891,-2.4245,-2.2765,-2.1399,-2.0252,-1.9259,-1.8309,-1.7383,-1.7903,-1.9621,-2.2447,-2.3836,-2.4822,-2.5361,-2.524,-2.5005,-2.4702,-2.4222,-2.408,-2.4172,-2.4357,0.0,0.0,0.0,0.0,0.0,0.0,0.0,0.0,0.0,0.0,0.0,0.0,0.0,-1.6522,-1.6522,-1.6547,-1.6697,-1.7237,-1.8568,-1.9685,-1.9196,-2.0065,0.0,0.0,0.0,0.0,0.0,0.0,0.0,0.0,0.0,0.0,0.0,0.0,0.0,0.0,0.0,0.0,0.0,0.0,0.0,0.0,0.0,0.0,0.0,0.0,0.0,0.0,0.0,0.0,0.0,0.0,-1.5799,-1.5799,-1.6136,-1.6474,-1.6815,-1.715,-1.7479,-1.7811,-1.7811,-1.7811,-1.7811,-1.7811,-1.7811,-1.7811,-1.7811,-1.7811,-1.7811,-1.7811,-1.7811,-1.7811,-1.7811,-1.7811,-1.7856,0.0,0.0,0.0,0.0,0.0,0.0,0.0,0.0,0.0,0.0,0.0,0.0,0.0,0.0,0.0,0.0,0.0,0.0,0.0,0.0,-2.433,-2.3676,-2.3262,-2.2093,-2.0124,-1.8212,-1.6892,-1.6194,-1.8214,-2.0731,-2.37,-2.4725,-2.581,-2.6957,-2.6867,-2.6701,-2.6496,-2.5659,-2.5299,-2.53,-2.4931,-2.4821,0.0,0.0,0.0,0.0,0.0,0.0,0.0,0.0,-1.7463,-1.7229,-1.6909,-1.668,-1.6522,-1.6522,-1.6522,-1.6572,-1.6785,-1.7802,-1.8659,-1.8093,-1.8495,0.0,0.0,0.0,0.0,0.0,0.0,0.0,0.0,0.0,0.0,0.0,0.0,0.0,0.0,0.0,0.0,0.0,0.0,0.0,0.0,0.0,0.0,0.0,0.0,0.0,0.0,0.0,0.0,0.0,0.0,-1.5799,-1.5799,-1.5926,-1.6274,-1.6815,-1.715,-1.7479,-1.7811,-1.7811,-1.7811,-1.7811,-1.7971,-1.7949,-1.7811,-1.7992,-1.7949,-1.7811,-1.7811,-1.7811,-1.7811,-1.7811,-1.7811,-1.7811,0.0,0.0,0.0,0.0,0.0,0.0,0.0,0.0,0.0,0.0,0.0,0.0,0.0,0.0,0.0,0.0,0.0,0.0,0.0,0.0,-2.5114,-2.4364,-2.3999,-2.2865,-2.0889,-1.8607,-1.6983,-1.612,-1.8897,-2.1528,-2.3938,-2.5192,-2.6355,-2.7426,-2.7474,-2.739,-2.7198,-2.6216,-2.575,-2.5627,-2.5225,-2.5074,0.0,0.0,0.0,0.0,0.0,0.0,0.0,0.0,-1.7693,-1.7422,-1.671,-1.6522,-1.6522,-1.6522,-1.6647,-1.6742,-1.651,-1.7267,-1.7897,0.0,0.0,0.0,0.0,0.0,0.0,0.0,0.0,0.0,0.0,0.0,0.0,0.0,0.0,0.0,0.0,0.0,0.0,0.0,0.0,0.0,0.0,0.0,0.0,0.0,0.0,0.0,0.0,0.0,0.0,0.0,0.0,0.0,-1.5799,-1.5898,-1.6246,-1.6815,-1.715,-1.7479,-1.7811,-1.7811,-1.7811,-1.7811,-1.8082,-1.81,-1.7949,-1.8208,-1.8166,-1.7927,-1.7816,-1.7811,-1.7811,-1.7811,-1.7811,-1.7811,0.0,0.0,0.0,0.0,0.0,0.0,0.0,0.0,0.0,0.0,0.0,0.0,0.0,0.0,0.0,0.0,0.0,0.0,0.0,-2.6232,-2.6366,-2.6759,-2.5072,-2.3575,-2.2442,-2.0648,-1.8891,-1.7247,-1.9834,-2.1718,-2.2987,-2.5107,-2.6228,-2.6419,-2.6711,-2.6718,-2.6466,-2.5574,-2.51,-2.4918,-2.5136,-2.5157,-2.5077,0.0,0.0,0.0,0.0,0.0,0.0,0.0,-1.8517,-1.7907,-1.6837,-1.6522,-1.6522,-1.6522,-1.6923,-1.7239,-1.6513,-1.7059,-1.7596,0.0,0.0,0.0,0.0,0.0,0.0,0.0,0.0,0.0,0.0,0.0,0.0,0.0,0.0,0.0,0.0,0.0,0.0,0.0,0.0,0.0,0.0,0.0,0.0,0.0,0.0,0.0,0.0,0.0,0.0,0.0,0.0,0.0,-1.5799,-1.6136,-1.6474,-1.6815,-1.715,-1.7479,-1.7811,-1.7811,-1.7811,-1.7811,-1.81,-1.8208,-1.8229,-1.8489,-1.845,-1.8166,-1.7905,-1.7811,-1.7811,-1.7811,-1.7811,-1.7811,0.0,0.0,0.0,0.0,0.0,0.0,0.0,0.0,0.0,0.0,0.0,0.0,0.0,0.0,0.0,0.0,0.0,0.0,0.0,-2.5935,-2.6079,-2.5623,-2.5354,-2.4629,-2.3345,-2.2094,-2.0809,-1.9455,-2.0891,-2.2799,-2.5113,-2.6536,-2.7535,-2.8109,-2.8811,-2.8546,-2.7497,-2.6673,-2.6287,-2.6191,-2.5621,-2.5422,-2.5424,0.0,0.0,0.0,0.0,0.0,0.0,0.0,0.0,0.0,-1.7368,-1.7076,-1.7049,-1.6635,-1.6923,-1.7197,-1.608,-1.6551,0.0,0.0,0.0,0.0,0.0,0.0,0.0,0.0,0.0,0.0,0.0,0.0,0.0,0.0,0.0,0.0,0.0,0.0,0.0,0.0,0.0,0.0,0.0,0.0,0.0,0.0,0.0,0.0,0.0,0.0,0.0,0.0,0.0,0.0,-1.5799,-1.566,-1.6004,-1.6815,-1.715,-1.7479,-1.7811,-1.7811,-1.7811,-1.7833,-1.829,-1.8371,-1.8229,-1.8489,-1.8547,-1.845,-1.8187,-1.8082,-1.8057,-1.7861,-1.7811,-1.7879,0.0,0.0,0.0,0.0,0.0,0.0,0.0,0.0,0.0,0.0,-1.9394,-2.0244,0.0,0.0,0.0,0.0,0.0,0.0,0.0,0.0,-2.5699,-2.5317,-2.551,-2.5312,-2.467,-2.4135,-2.3395,-2.2437,-2.2201,-2.3371,-2.5835,-2.6779,-2.7755,-2.8692,-2.8983,-2.8684,-2.7926,-2.6769,-2.6308,-2.6288,-2.5744,-2.5559,-2.5586,0.0,0.0,0.0,0.0,0.0,0.0,0.0,0.0,0.0,-1.7944,0.0,-1.725,-1.6608,-1.6831,-1.7024,-1.5932,0.0,0.0,0.0,0.0,0.0,0.0,0.0,0.0,0.0,0.0,0.0,0.0,0.0,0.0,0.0,0.0,0.0,0.0,0.0,0.0,0.0,0.0,0.0,0.0,0.0,0.0,0.0,0.0,0.0,0.0,0.0,0.0,0.0,0.0,0.0,-1.4992,-1.5304,-1.5643,-1.5983,-1.6713,-1.7009,-1.6948,-1.754,-1.749,-1.6953,-1.7462,-1.7879,-1.8163,-1.8235,-1.8253,-1.8235,-1.8327,-1.8351,-1.833,-1.8057,-1.7949,-1.8017,0.0,0.0,0.0,0.0,0.0,0.0,0.0,0.0,0.0,0.0,-2.0623,-2.1199,0.0,0.0,0.0,0.0,0.0,0.0,0.0,0.0,-2.5329,-2.5573,-2.5602,-2.5812,-2.6244,-2.6299,-2.6103,-2.5648,-2.3737,-2.3763,0.0,0.0,-2.723,-2.8282,0.0,-2.7689,-2.7636,-2.6126,-2.5535,-2.5598,-2.5598,-2.5598,-2.5573,-2.5526,0.0,0.0,0.0,0.0,0.0,0.0,0.0,0.0,-1.8602,-1.7826,-1.7303,-1.6514,-1.6681,-1.6895,-1.5882,0.0,0.0,0.0,0.0,0.0,0.0,0.0,0.0,0.0,0.0,0.0,0.0,0.0,0.0,0.0,0.0,0.0,0.0,0.0,0.0,0.0,0.0,0.0,0.0,0.0,0.0,0.0,0.0,0.0,0.0,0.0,0.0,0.0,0.0,0.0,-1.3848,-1.499,-1.528,0.0,-1.5966,-1.6204,-1.5544,-1.7033,-1.6931,-1.5673,-1.6116,-1.692,-1.7943,-1.7799,-1.7738,-1.7794,-1.8395,-1.8641,-1.8604,-1.833,-1.8229,-1.8225,0.0,0.0,0.0,0.0,0.0,0.0,0.0,0.0,0.0,0.0,0.0,0.0,0.0,0.0,0.0,0.0,0.0,0.0,0.0,0.0,-2.5415,-2.5526,-2.621,-2.6868,-2.7428,-2.6395,-2.6117,-2.6666,-2.5199,0.0,0.0,0.0,0.0,-2.6833,0.0,-2.7304,-2.5707,-2.5507,-2.5465,-2.5511,-2.5511,-2.5511,-2.5503,-2.5453,-2.5255,0.0,0.0,0.0,0.0,0.0,0.0,0.0,-1.9924,-1.9084,-1.8205,-1.6784,-1.6733,-1.6744,0.0,-1.5529,0.0,0.0,0.0,0.0,0.0,0.0,0.0,0.0,0.0,0.0,0.0,0.0,0.0,0.0,0.0,0.0,0.0,0.0,0.0,0.0,0.0,0.0,0.0,0.0,0.0,0.0,0.0,0.0,0.0,0.0,0.0,0.0,0.0,-1.4227,-1.4037,-1.4414,-1.4624,0.0,-1.526,-1.5265,-1.48,-1.6255,-1.6567,-1.5938,-1.6202,-1.6536,-1.698,-1.772,-1.8005,-1.8082,-1.8676,-1.8914,-1.8878,-1.8604,-1.8508,-1.8596,0.0,0.0,0.0,0.0,0.0,0.0,0.0,0.0,0.0,0.0,0.0,0.0,0.0,0.0,0.0,0.0,0.0,0.0,0.0,0.0,0.0,0.0,-2.6599,-2.7121,-2.7737,-2.674,-2.6283,0.0,0.0,0.0,0.0,0.0,0.0,-2.749,0.0,-2.6973,-2.6205,-2.5494,-2.5305,-2.5453,-2.5453,-2.5477,-2.5484,-2.5421,-2.5337,-2.5195,-2.4891,0.0,0.0,0.0,0.0,0.0,0.0,0.0,-1.9213,-1.772,-1.694,-1.6392,0.0,0.0,0.0,0.0,0.0,0.0,0.0,0.0,0.0,0.0,0.0,0.0,0.0,0.0,0.0,0.0,0.0,0.0,0.0,0.0,0.0,0.0,0.0,0.0,0.0,0.0,0.0,0.0,0.0,0.0,0.0,0.0,0.0,0.0,-1.3926,-1.4027,-1.3472,-1.4318,-1.4491,-1.3987,-1.4783,-1.4934,-1.4511,-1.4919,-1.5444,-1.5975,-1.5409,-1.547,-1.6067,-1.6689,-1.7179,-1.7605,-1.8292,-1.8806,-1.9117,-1.8878,-1.8789,-1.8824,0.0,0.0,0.0,0.0,0.0,0.0,0.0,0.0,0.0,0.0,0.0,0.0,0.0,0.0,0.0,0.0,0.0,0.0,0.0,0.0,0.0,0.0,-2.6798,0.0,0.0,-2.7044,-2.6407,0.0,0.0,0.0,0.0,0.0,0.0,-2.8377,0.0,-2.6767,-2.7101,-2.5754,-2.5228,-2.5324,-2.5324,-2.5374,-2.5465,-2.5406,-2.5376,-2.5352,-2.5135,-2.5046,-2.4979,-2.4561,0.0,0.0,0.0,0.0,-2.032,-1.8904,-1.7531,-1.6372,0.0,0.0,0.0,0.0,0.0,0.0,0.0,0.0,0.0,0.0,0.0,0.0,0.0,0.0,0.0,0.0,0.0,0.0,0.0,0.0,0.0,0.0,0.0,0.0,0.0,0.0,0.0,0.0,0.0,0.0,0.0,0.0,-1.2973,-1.2517,-1.369,-1.3826,-1.2789,-1.4222,-1.4375,-1.3211,-1.4239,-1.4559,-1.422,-1.365,-1.4178,-1.5488,-1.4375,-1.4367,-1.5193,-1.5689,-1.6298,-1.7,-1.795,-1.8702,-1.9274,-1.9101,-1.9052,-1.9018,0.0,0.0,0.0,0.0,0.0,0.0,0.0,0.0,0.0,0.0,-2.3917,-2.4113,0.0,0.0,0.0,0.0,0.0,0.0,0.0,0.0,0.0,0.0,-2.6773,0.0,-2.8039,-2.6779,-2.6151,0.0,0.0,0.0,0.0,0.0,0.0,-2.7006,0.0,0.0,-2.5942,-2.5898,-2.5555,-2.505,-2.505,-2.5146,-2.534,-2.5322,-2.5313,-2.5303,-2.5274,-2.5264,-2.5224,-2.4979,-2.4704,0.0,0.0,0.0,-2.1589,-2.019,-1.8899,-1.7721,0.0,0.0,0.0,0.0,0.0,0.0,0.0,0.0,0.0,0.0,0.0,0.0,0.0,0.0,0.0,0.0,0.0,0.0,0.0,0.0,0.0,0.0,0.0,0.0,0.0,0.0,0.0,0.0,0.0,0.0,0.0,-1.2768,-1.2977,-1.2431,-1.3222,-1.3355,-1.2718,-1.3568,-1.3712,-1.3211,-1.3254,-1.3244,-1.32,-1.3328,-1.3532,-1.3752,-1.3859,-1.398,-1.425,-1.6019,-1.6798,-1.7055,-1.8555,-1.9213,-1.9289,-1.9259,-1.9259,-1.9243,0.0,0.0,0.0,0.0,0.0,0.0,0.0,0.0,0.0,0.0,0.0,-2.4685,0.0,0.0,0.0,0.0,0.0,0.0,0.0,0.0,0.0,0.0,0.0,0.0,-2.7299,0.0,0.0,0.0,0.0,0.0,0.0,-2.5502,-2.6075,0.0,0.0,0.0,0.0,-2.5891,-2.5468,-2.4891,-2.4974,-2.5046,-2.5152,-2.5264,-2.5303,-2.5303,-2.5303,-2.5303,-2.5293,-2.5203,-2.508,-2.4929,-2.4507,0.0,0.0,0.0,-2.0376,0.0,0.0,0.0,0.0,0.0,0.0,0.0,0.0,0.0,0.0,0.0,0.0,0.0,0.0,0.0,0.0,0.0,0.0,0.0,0.0,0.0,0.0,0.0,0.0,0.0,0.0,0.0,0.0,0.0,0.0,0.0,-1.2174,-1.2579,-1.2753,-1.2692,-1.3565,-1.3871,-1.3502,-1.4448,-1.4535,-1.376,-1.3457,-1.3206,-1.3013,-1.3277,-1.3396,-1.3413,-1.3634,-1.4056,-1.4648,-1.5637,-1.6657,-1.7642,-1.8353,-1.8904,-1.9305,-1.9305,-1.9305,-1.9305,0.0,0.0,0.0,0.0,0.0,0.0,0.0,0.0,0.0,0.0,0.0,0.0,0.0,0.0,0.0,0.0,0.0,0.0,0.0,0.0,0.0,0.0,0.0,0.0,-2.635,0.0,0.0,0.0,0.0,0.0,-2.5231,-2.5014,-2.5743,0.0,-2.7077,-2.6892,0.0,0.0,0.0,-2.5013,-2.4966,-2.4974,-2.5022,-2.5224,-2.5303,-2.5303,-2.5303,-2.5303,-2.5303,-2.5303,-2.5303,-2.5274,-2.5111,-2.467,0.0,0.0,0.0,0.0,0.0,0.0,0.0,0.0,0.0,0.0,0.0,0.0,0.0,0.0,0.0,0.0,0.0,0.0,0.0,0.0,0.0,0.0,0.0,0.0,0.0,0.0,0.0,0.0,0.0,0.0,0.0,0.0,0.0,0.0,-1.209,-1.2354,-1.2535,-1.2583,-1.3565,-1.4076,-1.4013,-1.502,-1.5068,-1.4087,-1.3678,-1.3279,-1.2906,-1.3357,-1.3514,-1.3413,-1.354,-1.4173,-1.514,-1.5548,-1.6656,-1.8115,-1.8335,-1.8775,-1.9305,-1.9305,-1.9335,-1.9383,0.0,0.0,0.0,0.0,0.0,0.0,0.0,0.0,0.0,0.0,0.0,0.0,0.0,0.0,-2.4631,-2.4775,0.0,0.0,0.0,0.0,0.0,0.0,0.0,0.0,0.0,0.0,0.0,0.0,0.0,0.0,-2.5005,-2.4811,-2.5502,-2.6964,-2.7565,-2.7805,-2.7658,0.0,0.0,0.0,0.0,0.0,-2.5022,-2.5224,0.0,0.0,0.0,0.0,-2.5303,-2.5303,-2.5303,-2.5303,-2.5303,-2.5178,-2.4974,0.0,0.0,0.0,0.0,0.0,0.0,0.0,0.0,0.0,0.0,0.0,0.0,0.0,0.0,0.0,0.0,0.0,0.0,0.0,0.0,0.0,0.0,0.0,0.0,0.0,0.0,0.0,0.0,0.0,0.0,0.0,0.0,0.0,-1.1094,-1.1982,-1.227,-1.1769,-1.2564,-1.3208,-1.3722,-1.4467,-1.4498,-1.382,-1.3413,-1.301,-1.2646,-1.3631,-1.3824,-1.3413,-1.354,-1.4173,-1.5175,-1.6142,-1.7151,-1.8188,-1.8941,-1.9253,-1.9305,-1.9305,-1.9409,-1.9582,0.0,0.0,0.0,0.0,0.0,0.0,0.0,0.0,0.0,0.0,0.0,0.0,0.0,-2.4962,-2.5283,-2.4827,-2.5097,0.0,0.0,0.0,0.0,0.0,0.0,0.0,0.0,0.0,0.0,0.0,0.0,-2.5154,-2.5512,-2.5321,-2.5759,-2.678,-2.7254,-2.745,-2.7422,-2.7368,0.0,0.0,0.0,0.0,0.0,0.0,0.0,0.0,0.0,0.0,0.0,-2.614,-2.614,-2.6034,-2.552,-2.5332,-2.5219,-2.487,-2.3926,0.0,0.0,0.0,0.0,0.0,0.0,0.0,0.0,0.0,0.0,0.0,0.0,0.0,0.0,0.0,0.0,0.0,0.0,0.0,0.0,0.0,0.0,0.0,0.0,0.0,0.0,0.0,0.0,0.0,0.0,0.0,-1.0981,-1.1653,-1.2093,-1.22,-1.3093,-1.3871,-1.458,-1.4727,-1.4677,-1.4438,-1.4032,-1.3881,-1.3972,-1.4504,-1.4768,-1.4819,-1.5037,-1.5449,-1.5993,-1.6826,-1.7842,-1.8904,-1.9179,-1.9305,-1.9305,-1.9305,-1.9335,-1.9442,0.0,0.0,0.0,0.0,0.0,0.0,0.0,0.0,0.0,0.0,0.0,0.0,0.0,0.0,-2.5442,-2.5069,-2.529,-2.5493,-2.5539,-2.5463,0.0,0.0,0.0,0.0,0.0,0.0,0.0,0.0,0.0,0.0,0.0,-2.5454,-2.5793,-2.6574,-2.6742,-2.6964,0.0,0.0,0.0,-2.6683,0.0,0.0,-2.6078,0.0,0.0,0.0,0.0,0.0,0.0,0.0,0.0,0.0,-2.5994,-2.5661,-2.5407,-2.5143,0.0,0.0,0.0,0.0,0.0,0.0,0.0,0.0,0.0,0.0,0.0,0.0,0.0,0.0,0.0,0.0,0.0,0.0,0.0,0.0,0.0,0.0,0.0,0.0,0.0,0.0,0.0,0.0,0.0,0.0,0.0,0.0,-1.0753,-1.1431,-1.2102,-1.2733,-1.3501,-1.4119,-1.4578,-1.479,-1.4631,-1.415,-1.4313,-1.4396,-1.4389,-1.5032,-1.5433,-1.5649,-1.6417,-1.6746,-1.6812,-1.7378,-1.8274,-1.9305,-1.9305,-1.9305,-1.9305,-1.9305,-1.9361,-1.949,0.0,0.0,0.0,0.0,0.0,0.0,0.0,0.0,0.0,0.0,0.0,0.0,0.0,0.0,0.0,-2.5507,-2.5577,-2.5601,-2.5601,-2.5543,0.0,0.0,0.0,0.0,0.0,0.0,0.0,0.0,0.0,0.0,0.0,0.0,-2.5514,-2.6265,-2.6144,-2.6491,-2.7151,0.0,-2.6935,-2.6935,0.0,-2.6935,-2.6954,0.0,0.0,0.0,-2.7231,-2.7373,0.0,0.0,0.0,0.0,0.0,0.0,0.0,0.0,0.0,0.0,0.0,0.0,0.0,0.0,0.0,0.0,0.0,0.0,0.0,0.0,0.0,0.0,0.0,0.0,0.0,0.0,0.0,0.0,0.0,0.0,0.0,0.0,0.0,0.0,0.0,0.0,0.0,0.0,0.0,-0.9744,-1.0244,-1.1217,-1.221,-1.3163,-1.3635,-1.3752,-1.3512,-1.4564,-1.4325,-1.2882,-1.4169,-1.4464,-1.3833,-1.522,-1.5774,-1.5767,-1.7466,-1.7953,-1.7542,-1.7742,-1.8419,-1.9305,-1.9305,-1.9305,-1.9305,-1.9305,-1.9518,-1.979,0.0,0.0,0.0,0.0,0.0,0.0,0.0,0.0,0.0,0.0,0.0,0.0,-2.4094,-2.506,-2.5876,-2.6409,-2.5872,-2.5551,-2.5601,-2.5543,-2.5477,-2.5406,-2.5339,0.0,0.0,0.0,0.0,0.0,0.0,0.0,0.0,0.0,0.0,0.0,-2.5655,-2.5745,-2.599,-2.7427,0.0,0.0,-2.7773,-2.7675,0.0,0.0,0.0,0.0,0.0,-2.8271,0.0,0.0,-2.8165,-2.7335,0.0,0.0,0.0,0.0,0.0,0.0,-2.4958,0.0,0.0,0.0,0.0,0.0,0.0,0.0,0.0,0.0,0.0,0.0,0.0,0.0,0.0,0.0,0.0,0.0,0.0,0.0,0.0,0.0,0.0,0.0,0.0,0.0,0.0,0.0,-0.9622,-1.0125,-0.9753,-1.0667,-1.1678,-1.265,-1.311,-1.3472,-1.3792,-1.4174,-1.4429,-1.4456,-1.4691,-1.52,-1.5951,-1.6335,-1.6782,-1.7241,-1.8099,-1.8404,-1.8322,-1.8573,-1.8933,-1.9305,-1.9305,-1.9305,-1.9305,-1.9305,-1.9452,-1.9669,0.0,0.0,0.0,0.0,0.0,0.0,0.0,0.0,0.0,0.0,0.0,0.0,0.0,-2.5742,-2.6422,-2.7078,-2.6682,-2.6473,-2.6638,-2.6237,-2.5978,-2.594,-2.5523,-2.5303,0.0,0.0,0.0,0.0,0.0,0.0,0.0,0.0,0.0,0.0,0.0,0.0,0.0,0.0,0.0,0.0,-2.8143,0.0,0.0,-2.8068,-2.796,0.0,0.0,0.0,-2.9322,-2.9449,-2.8791,0.0,0.0,0.0,0.0,0.0,0.0,0.0,0.0,0.0,0.0,0.0,0.0,0.0,-1.7942,-1.5839,0.0,0.0,0.0,0.0,0.0,0.0,0.0,0.0,0.0,0.0,0.0,0.0,0.0,0.0,0.0,0.0,0.0,0.0,0.0,0.0,-0.9268,-0.9701,-0.9774,-1.0762,-1.1562,-1.2186,-1.2637,-1.2964,-1.3148,-1.3898,-1.4268,-1.4314,-1.5054,-1.5759,-1.6392,-1.6822,-1.7313,-1.7833,-1.8371,-1.8643,-1.8699,-1.9081,-1.9277,-1.9305,-1.938,-1.9442,-1.9423,-1.949,-1.9606,-1.9786,0.0,0.0,0.0,0.0,0.0,0.0,0.0,0.0,0.0,0.0,0.0,0.0,0.0,0.0,-2.6745,-2.7579,-2.7652,-2.7765,-2.8002,-2.7156,-2.6663,-2.6655,-2.588,-2.5437,-2.5437,0.0,0.0,0.0,0.0,0.0,0.0,0.0,0.0,0.0,0.0,0.0,0.0,0.0,0.0,-2.7698,-2.824,-2.894,0.0,0.0,-2.9696,0.0,-2.9731,-2.9845,-2.9994,-2.9942,-2.911,0.0,0.0,0.0,0.0,0.0,-2.5573,0.0,0.0,0.0,0.0,0.0,0.0,0.0,-2.0425,-1.8358,-1.6528,0.0,0.0,0.0,0.0,0.0,0.0,0.0,0.0,0.0,0.0,0.0,0.0,0.0,0.0,0.0,0.0,0.0,-0.7721,-0.8997,-0.8621,-0.8864,-1.0065,-1.1025,-1.1541,-1.1627,-1.2138,-1.2328,-1.2144,-1.3725,-1.4114,-1.337,-1.5337,-1.6119,-1.5943,-1.6856,-1.7462,-1.7861,-1.8371,-1.8681,-1.8872,-1.9387,-1.9495,-1.9361,-1.9536,-1.9623,-1.9636,-1.9762,-1.989,-1.9993,-1.541,0.0,0.0,0.0,0.0,0.0,0.0,0.0,0.0,0.0,0.0,0.0,0.0,0.0,0.0,-2.7865,-2.7599,-2.7402,-2.744,-2.6779,-2.6387,-2.6388,-2.6357,-2.6351,-2.6351,0.0,0.0,0.0,0.0,0.0,0.0,0.0,0.0,0.0,0.0,0.0,0.0,0.0,0.0,-2.7974,-2.8502,0.0,-2.9696,-2.9696,-2.9696,-2.9731,-2.9893,-2.9969,-2.9942,0.0,-2.9218,-2.8799,0.0,0.0,0.0,0.0,0.0,0.0,0.0,0.0,0.0,0.0,0.0,0.0,-2.0979,-1.9418,-1.7921,0.0,0.0,0.0,0.0,0.0,0.0,0.0,0.0,0.0,0.0,0.0,0.0,0.0,0.0,0.0,0.0,0.0,-0.7244,-0.8484,-0.8597,-0.8982,-0.9748,-1.0088,-1.0309,-1.0504,-1.1457,-1.208,-1.24,-1.3808,-1.4408,-1.4279,-1.5374,-1.6157,-1.6607,-1.6802,-1.7368,-1.8125,-1.8469,-1.8734,-1.8999,-1.9409,-1.9643,-1.9707,-1.975,-1.9762,-1.9762,-1.9797,-1.989,-1.9993,-1.541,0.0,0.0,0.0,0.0,0.0,0.0,0.0,0.0,0.0,0.0,0.0,0.0,0.0,0.0,0.0,0.0,-2.8181,0.0,0.0,-2.7357,-2.7346,-2.7053,-2.6898,-2.6898,-2.7,0.0,0.0,0.0,0.0,0.0,0.0,0.0,0.0,0.0,0.0,0.0,0.0,-2.6232,-2.8062,-2.8315,0.0,-3.0037,-3.0037,-2.977,-2.9475,-3.0042,-3.0263,-3.026,-3.0024,-2.9399,0.0,0.0,-2.6933,-2.6064,0.0,-2.544,-2.5401,0.0,0.0,0.0,-2.5357,0.0,0.0,0.0,-2.1297,-2.0184,0.0,0.0,0.0,0.0,0.0,0.0,0.0,0.0,0.0,0.0,0.0,0.0,0.0,0.0,0.0,0.0,0.0,-0.6381,-0.7246,-0.8167,-0.8672,-0.868,-0.9379,-0.9856,-1.0043,-1.0681,-1.1372,-1.2138,-1.347,-1.4283,-1.4501,-1.5536,-1.6313,-1.6815,-1.6977,-1.7469,-1.8208,-1.8489,-1.8789,-1.9146,-1.9526,-1.9786,-1.9901,-1.9901,-1.9901,-1.9912,-2.0011,-2.0079,-2.0152,-1.5352,0.0,0.0,0.0,0.0,0.0,0.0,0.0,0.0,0.0,0.0,0.0,0.0,0.0,0.0,0.0,0.0,0.0,0.0,0.0,0.0,0.0,-2.7667,-2.7363,-2.7194,-2.7325,-2.7307,0.0,0.0,0.0,0.0,0.0,0.0,0.0,0.0,0.0,0.0,0.0,0.0,-2.822,0.0,-2.8977,-3.0398,-3.0246,-2.9734,-2.9205,-2.9831,-3.0171,-3.0358,-3.0446,0.0,-2.8368,-2.8299,-2.7127,0.0,0.0,0.0,0.0,0.0,0.0,0.0,0.0,0.0,-2.4877,0.0,0.0,0.0,-2.0968,0.0,0.0,0.0,0.0,0.0,0.0,0.0,0.0,0.0,0.0,0.0,0.0,0.0,0.0,0.0,0.0,-0.5466,-0.584,-0.7227,-0.7877,-0.7351,-0.8652,-0.9394,-0.9476,-0.9993,-1.0769,-1.1711,-1.3007,-1.3952,-1.4501,-1.5579,-1.634,-1.6815,-1.7076,-1.7608,-1.829,-1.8508,-1.886,-1.9291,-1.9651,-1.988,-1.9993,-2.0031,-2.006,-2.0078,-2.0241,-2.03,-2.0296,-1.5235,-1.541,0.0,0.0,0.0,0.0,0.0,0.0,0.0,0.0,0.0,0.0,0.0,0.0,0.0,0.0,0.0,0.0,-2.9562,0.0,0.0,0.0,0.0,0.0,-2.7207,-2.8465,-2.8742,0.0,0.0,0.0,0.0,0.0,0.0,0.0,-2.5056,0.0,0.0,0.0,-2.7419,0.0,-2.8193,-2.8993,0.0,-2.9698,-2.9326,-2.9117,-2.8579,-2.8831,-2.9477,0.0,-2.95,-2.9216,0.0,-2.7482,0.0,0.0,0.0,0.0,0.0,0.0,0.0,0.0,-2.5395,0.0,0.0,0.0,-2.3217,-2.1405,0.0,0.0,0.0,0.0,0.0,0.0,0.0,0.0,0.0,0.0,0.0,0.0,0.0,0.0,0.0,0.0,0.0,-0.4616,-0.5383,-0.6004,-0.6365,-0.7604,-0.8165,-0.7863,-0.9667,-1.0893,-1.1445,-1.2603,-1.3611,-1.4501,-1.4998,-1.5781,-1.6789,-1.6841,-1.7476,-1.8547,-1.8585,-1.8946,-1.9582,-1.9738,-1.988,-2.0022,-2.0197,-2.0269,-2.0277,-2.0285,-2.0306,-2.0295,-1.5352,-1.541,0.0,0.0,0.0,0.0,0.0,0.0,0.0,0.0,0.0,0.0,0.0,0.0,0.0,0.0,0.0,-2.9094,0.0,0.0,0.0,0.0,0.0,0.0,0.0,-2.8312,-2.8347,-2.7985,-2.8232,0.0,0.0,0.0,0.0,0.0,-2.517,0.0,-2.5932,0.0,0.0,0.0,0.0,0.0,0.0,-2.8664,-2.8588,-2.8515,-2.7706,-2.7966,-2.873,0.0,-2.8471,0.0,0.0,0.0,0.0,0.0,0.0,0.0,0.0,0.0,0.0,0.0,0.0,0.0,0.0,0.0,-2.3242,0.0,0.0,0.0,0.0,0.0,0.0,0.0,0.0,0.0,0.0,0.0,0.0,0.0,0.0,0.0,0.0,0.0,0.0,0.0,0.0,-0.466,-0.5743,-0.6127,-0.6823,-0.7879,-0.8967,-1.0274,-1.1861,-1.2906,-1.3977,-1.4979,-1.552,-1.616,-1.6815,-1.7166,-1.7798,-1.8604,-1.877,-1.9115,-1.9609,-1.9738,-1.9895,-2.0071,-2.0241,-2.0295,-2.0302,-2.0332,-2.0366,-2.0352,-1.5352,0.0,0.0,0.0,0.0,0.0,0.0,0.0,0.0,0.0,0.0,0.0,-2.4843,-2.6686,0.0,0.0,0.0,-2.9779,0.0,0.0,-2.8994,0.0,0.0,0.0,0.0,0.0,0.0,0.0,0.0,0.0,0.0,0.0,0.0,0.0,0.0,-2.4991,-2.5727,0.0,0.0,-2.7226,-2.7335,-2.7274,-2.714,-2.7442,-2.7515,-2.7381,-2.6737,-2.7109,-2.7884,-2.7884,-2.7474,0.0,-2.6874,0.0,0.0,0.0,0.0,0.0,-2.5303,0.0,0.0,0.0,0.0,0.0,0.0,0.0,0.0,0.0,0.0,0.0,0.0,0.0,0.0,0.0,0.0,0.0,0.0,0.0,0.0,0.0,0.0,0.0,0.0,0.0,0.0,0.0,-0.2872,0.0,-0.4827,-0.512,-0.6081,-0.791,-0.8882,-1.0381,-1.2542,-1.3658,-1.4792,-1.5976,-1.6367,-1.686,-1.7353,-1.7589,-1.8101,-1.8771,-1.8982,-1.9301,-1.9713,-1.9839,-1.9992,-2.0178,-2.0297,-2.0347,-2.0352,-2.0379,-2.0418,-2.0429,-1.5235,-1.541,0.0,0.0,0.0,0.0,0.0,0.0,0.0,0.0,0.0,0.0,0.0,0.0,0.0,0.0,0.0,-3.0888,-3.1666,0.0,-2.9382,0.0,0.0,-2.8994,0.0,0.0,0.0,0.0,0.0,0.0,0.0,0.0,0.0,0.0,0.0,-2.4762,-2.5787,-2.5967,-2.6322,-2.6666,-2.6096,-2.5438,-2.492,0.0,-2.6096,-2.558,-2.5561,0.0,0.0,-2.6851,-2.6831,0.0,0.0,0.0,0.0,0.0,0.0,0.0,0.0,0.0,0.0,-2.501,0.0,0.0,0.0,0.0,-2.3711,0.0,0.0,0.0,0.0,0.0,-2.0105,-1.9247,0.0,0.0,0.0,0.0,0.0,0.0,0.0,0.0,0.0,0.0,0.0,-0.1062,-0.1807,-0.2563,-0.3342,-0.4689,-0.6138,-0.7594,-0.9823,-1.183,-1.3541,-1.4878,-1.6236,-1.7631,-1.7375,-1.7776,-1.8711,-1.8031,-1.8233,-1.9167,-1.9182,-1.9492,-1.9984,-2.0052,-2.0171,-2.0299,-2.0438,-2.0486,-2.0482,-2.0425,-2.0438,-2.0506,0.0,0.0,0.0,0.0,0.0,0.0,0.0,-1.9933,0.0,0.0,0.0,0.0,0.0,0.0,-2.9642,0.0,0.0,-3.0325,-3.009,-3.0091,0.0,0.0,0.0,-2.911,0.0,0.0,0.0,0.0,0.0,0.0,0.0,0.0,0.0,0.0,0.0,-2.4469,0.0,0.0,0.0,0.0,0.0,-2.4585,-2.4363,0.0,0.0,-2.5299,-2.5299,-2.5587,0.0,-2.5941,-2.5851,-2.5738,-2.5661,-2.5351,-2.5009,-2.4993,-2.4981,0.0,0.0,0.0,-2.4663,-2.4663,0.0,0.0,0.0,0.0,0.0,0.0,0.0,0.0,0.0,0.0,-1.866,-1.7402,-1.6841,-1.6228,0.0,0.0,0.0,0.0,0.0,0.0,0.0,0.0,0.0,-0.5148,-0.385,-0.3202,0.0,-0.4042,-0.5358,-0.8157,-1.0529,-1.2851,-1.5169,-1.685,-1.817,-1.9042,-1.9412,-1.979,-2.0143,-2.0427,-2.0717,-2.102,-2.0629,-2.0634,-2.0877,-2.0323,-2.0219,-2.0371,-2.0425,-2.0429,-2.0433,-2.0467,-2.0488,-2.0485,-1.5615,0.0,0.0,0.0,0.0,0.0,0.0,0.0,0.0,0.0,-2.5249,0.0,-2.7139,0.0,-2.9485,0.0,-3.003,-3.0158,-2.9685,-2.9791,0.0,-2.908,-2.9098,0.0,0.0,0.0,0.0,0.0,0.0,-2.7164,0.0,0.0,0.0,0.0,0.0,0.0,0.0,0.0,-2.3125,0.0,0.0,-2.3112,0.0,0.0,-2.4166,-2.4886,0.0,-2.5034,-2.5247,-2.5247,-2.5157,-2.5062,-2.5007,-2.4903,-2.479,-2.4795,-2.4804,-2.4804,-2.4804,-2.4572,0.0,-2.4318,-2.3925,0.0,-2.3522,0.0,0.0,0.0,0.0,0.0,0.0,0.0,-1.8195,-1.6939,-1.5876,-1.5383,0.0,-1.3455,0.0,0.0,0.0,0.0,0.0,0.0,-0.2838,-0.7866,-0.6135,-0.514,0.0,0.0,-0.625,-0.9509,-1.2263,-1.4766,-1.7088,-1.9023,-2.0278,-2.088,-2.1298,-2.157,-2.1688,-2.1952,-2.2142,-2.2255,-2.1538,-2.1336,-2.1443,-2.0574,-2.0286,-2.0391,-2.0404,-2.0399,-2.0414,-2.0441,-2.0425,-2.0386,0.0,0.0,0.0,0.0,-1.825,0.0,0.0,0.0,-2.3568,0.0,-2.5577,-2.623,-2.7172,-2.8414,-2.9252,-2.95,-3.0022,0.0,-3.0382,-2.9774,0.0,0.0,-2.9038,-2.9,-2.8188,0.0,0.0,0.0,0.0,0.0,0.0,0.0,0.0,0.0,-2.3752,0.0,-2.256,-2.256,-2.1917,-2.0837,-2.072,-2.1299,-2.2326,-2.2187,0.0,-2.4185,-2.4255,-2.4511,-2.479,-2.4804,-2.479,-2.4756,-2.4756,-2.4741,-2.4727,-2.4727,-2.4727,-2.4727,-2.4727,-2.4349,-2.3969,-2.3969,0.0,0.0,0.0,0.0,-2.2521,0.0,0.0,0.0,0.0,0.0,0.0,-1.7803,-1.5891,-1.4966,-1.6132,0.0,0.0,0.0,0.0,0.0,0.0,-0.674,-0.7962,-0.9328,-0.8605,0.0,0.0,0.0,-0.8955,-1.1568,-1.4893,-1.7483,-1.9239,-2.1211,-2.2488,-2.3073,-2.2963,-2.3081,-2.3367,-2.2671,-2.257,-2.2865,-2.1962,-2.1643,-2.1682,-2.0777,-2.039,-2.0389,-2.0399,-2.0379,-2.0374,-2.0379,-2.0303,-2.016,-1.6037,-1.6513,-1.7,0.0,-1.8713,-1.9719,0.0,0.0,0.0,0.0,-2.5296,-2.6126,-2.6377,-2.6842,-2.7381,-2.7974,-2.8132,0.0,0.0,0.0,0.0,-2.915,-2.931,-2.9291,-2.9054,-2.9258,0.0,-2.8459,0.0,0.0,-2.5806,0.0,0.0,0.0,0.0,0.0,-2.0718,-2.0718,-2.0489,-2.0281,-2.1924,-2.2167,0.0,0.0,-2.2742,-2.2797,-2.3739,-2.4242,-2.4476,-2.4723,-2.4551,-2.4209,-2.4209,-2.393,-2.3605,-2.3605,-2.3605,-2.3605,-2.3605,-2.3516,-2.3424,-2.3424,-2.3106,-2.2754,0.0,0.0,0.0,0.0,0.0,0.0,0.0,0.0,0.0,-1.7213,-1.6114,-1.5518,0.0,0.0,0.0,-1.3874,0.0,0.0,-0.8036,-0.6656,-0.8172,-1.3602,-1.2908,0.0,0.0,0.0,0.0,-1.3704,-1.7098,-1.9695,-2.1379,-2.3004,-2.3926,-2.4124,-2.4432,-2.4593,-2.4633,-2.4608,-2.4606,-2.458,-2.3095,-2.2517,-2.2479,-2.095,-2.0263,-2.0183,-2.018,-2.0084,-1.9974,-2.0123,-2.0068,-1.9896,-1.623,0.0,0.0,-1.8374,0.0,0.0,-2.0312,0.0,0.0,-2.3954,-2.4885,0.0,-2.5664,-2.5754,-2.6013,-2.6551,-2.6533,0.0,0.0,0.0,0.0,-2.7659,-2.7984,-2.8242,-2.8513,-2.8841,0.0,-2.877,0.0,0.0,-2.5436,0.0,0.0,0.0,0.0,-2.1199,0.0,-2.0091,-2.0089,-2.0359,-2.1709,0.0,0.0,-2.2457,-2.2417,-2.2172,-2.2998,-2.3513,-2.3856,-2.4044,-2.3911,-2.3648,-2.3648,-2.345,-2.3189,-2.3189,-2.3189,-2.3189,-2.3189,-2.3093,-2.2947,-2.2762,-2.2468,-2.2113,-2.1694,-2.1458,-2.1165,0.0,0.0,0.0,0.0,0.0,0.0,0.0,0.0,0.0,0.0,0.0,0.0,0.0,0.0,0.0,-1.1062,-1.0443,-1.1707,-1.5339,0.0,0.0,0.0,0.0,0.0,-1.6488,-1.9488,-2.1646,-2.2848,-2.406,-2.4698,-2.4775,-2.5122,-2.5273,-2.5272,-2.539,-2.5424,-2.5315,-2.3985,-2.34,-2.3275,-2.1877,-2.0991,-2.0479,-1.9993,-1.9688,-1.9537,-1.9519,-1.9532,-1.9516,0.0,0.0,0.0,0.0,0.0,0.0,0.0,-2.2554,0.0,-2.3704,0.0,-2.452,-2.4797,-2.4799,-2.4858,-2.5216,0.0,-2.5287,-2.5398,-2.5398,-2.5398,-2.5398,-2.6014,-2.6611,-2.7107,-2.7868,0.0,0.0,0.0,-2.6032,-2.5435,0.0,0.0,0.0,0.0,0.0,0.0,-2.0245,-2.0356,0.0,-2.1108,-2.1709,-2.234,-2.234,-2.2181,-2.1963,-2.2167,-2.2562,-2.2986,-2.31,-2.31,-2.3052,-2.3052,-2.3028,-2.2979,-2.293,-2.2912,-2.2912,-2.2912,-2.2686,-2.2371,-2.204,-2.1728,-2.1399,-2.091,-2.0813,-2.0534,-1.9606,-1.9667,-1.9531,0.0,0.0,0.0,0.0,0.0,0.0,0.0,0.0,0.0,0.0,0.0,0.0,0.0,-1.5187,0.0,0.0,0.0,0.0,0.0,0.0,0.0,-1.8715,-2.1208,0.0,-2.3488,0.0,-2.4843,-2.4965,-2.5177,-2.5308,-2.5356,-2.5387,-2.5407,-2.5356,-2.4496,-2.4012,-2.3807,-2.2863,-2.1937,-2.0984,-1.9987,-1.9467,-1.9315,-1.9022,-1.8985,-1.9016,0.0,0.0,0.0,0.0,0.0,-1.95,-2.052,-2.135,-2.1969,-2.2205,-2.2354,0.0,-2.3397,-2.3039,-2.3251,-2.4368,-2.4509,0.0,0.0,0.0,0.0,-2.5398,-2.5508,-2.5673,-2.5755,-2.6467,-2.6901,0.0,-2.6111,-2.5369,-2.4796,-2.2765,0.0,0.0,0.0,0.0,-1.9393,-2.0341,0.0,-2.0999,-2.2498,-2.2951,-2.2611,-2.2611,-2.2125,-2.1428,-2.1483,-2.1601,-2.1888,-2.2514,-2.2505,-2.23,-2.23,-2.2096,-2.1816,-2.1472,-2.1381,-2.1381,-2.1381,-2.1336,-2.1274,-2.1228,-2.115,-2.0878,-2.0028,-1.9869,-1.957,-1.8584,-1.843,-1.8377,-1.8131,0.0,0.0,0.0,0.0,0.0,0.0,0.0,0.0,0.0,0.0,0.0,0.0,0.0,0.0,0.0,0.0,0.0,0.0,0.0,0.0,0.0,0.0,0.0,0.0,0.0,-2.3804,-2.4202,-2.45,-2.4632,-2.4594,-2.482,-2.4924,-2.4879,-2.3999,-2.3447,-2.3116,-2.2219,-2.153,-2.0989,-2.0688,-2.0329,-1.9985,-1.9726,-1.9104,-1.8407,0.0,0.0,0.0,0.0,0.0,0.0,0.0,-1.9094,0.0,-2.071,-2.0676,-2.0696,-2.1117,-2.1255,-2.1666,-2.2611,-2.3025,-2.3502,-2.4195,-2.4208,-2.4208,-2.4208,-2.461,0.0,-2.4851,-2.5563,-2.596,-2.596,-2.5258,-2.4455,-2.3585,-2.2228,0.0,0.0,0.0,-1.9649,0.0,0.0,0.0,-2.0941,-2.2121,-2.2433,-2.2146,-2.1873,-2.1265,-2.0538,-2.024,-2.0167,-2.0325,-2.1404,-2.1661,-2.1532,-2.1532,-2.1428,-2.1244,-2.1055,-2.0991,-2.0991,-2.0991,-2.0991,-2.0894,-2.04,-2.0283,-2.0028,-1.9059,-1.8835,-1.8622,-1.7854,-1.7706,-1.7585,-1.7312,-1.6574,0.0,0.0,0.0,0.0,0.0,0.0,0.0,0.0,0.0,0.0,0.0,0.0,0.0,0.0,0.0,0.0,0.0,0.0,0.0,0.0,0.0,0.0,0.0,0.0,0.0,-2.3582,-2.3758,-2.3919,-2.4087,-2.422,-2.4279,-2.4255,-2.3828,-2.3507,-2.3179,-2.2243,-2.1718,-2.1448,-2.0616,-2.0178,-1.9916,-1.9458,-1.8947,-1.8524,0.0,-1.6097,0.0,0.0,-1.7101,0.0,0.0,-1.6934,-1.7284,-1.9258,-1.9088,-1.8952,-1.9301,-1.9738,-2.0239,-2.076,-2.1352,-2.1829,-2.226,-2.2416,-2.2536,-2.2536,-2.3405,-2.3877,-2.3877,-2.4727,-2.5175,0.0,-2.4627,-2.3744,-2.2564,-2.2035,-2.1093,0.0,0.0,0.0,0.0,0.0,-2.0823,-2.0844,-2.1484,-2.1697,-2.1627,-2.0969,-2.0374,-1.9804,-1.9114,-1.8826,-1.8902,-1.9993,-2.0601,-2.0813,-2.0601,-2.0667,-2.0781,-2.0485,-2.0452,-2.0534,-2.0534,-2.0467,-2.0234,-1.9621,-1.9368,-1.9059,-1.8131,-1.7947,-1.7787,-1.7229,-1.7105,-1.6951,-1.6411,-1.582,0.0,0.0,0.0,0.0,0.0,0.0,0.0,0.0,0.0,0.0,0.0,0.0,0.0,0.0,0.0,0.0,0.0,0.0,0.0,0.0,0.0,-1.8896,-2.0373,0.0,-2.1747,0.0,-2.281,-2.3062,-2.3428,-2.3529,-2.3587,-2.3666,-2.3666,-2.3482,-2.3132,-2.2181,-2.1801,-2.1658,-2.0384,-1.9844,-1.9705,-1.9146,-1.8734,-1.847,0.0,0.0,0.0,0.0,0.0,0.0,0.0,-1.5976,-1.6637,-1.7996,-1.7708,-1.7879,-1.9137,-1.8905,-1.8895,-1.9454,-1.9547,-1.957,-1.9675,-2.0276,-2.0637,-2.0637,-2.1807,-2.2501,-2.2501,-2.3728,-2.4408,0.0,0.0,-2.3731,0.0,-2.2373,0.0,0.0,0.0,0.0,0.0,-2.0534,-2.0818,-2.0864,-2.1459,-2.1697,-2.1572,-2.0426,-1.9956,-1.9749,-1.8589,-1.8187,-1.8224,-1.8327,-1.928,-2.0196,-1.9273,-1.9611,-2.0112,-1.876,-1.8712,-1.9103,-1.9103,-1.875,-1.8468,-1.8878,-1.8598,-1.8092,-1.7504,-1.7394,-1.7229,-1.668,-1.6552,-1.6411,-1.5776,-1.5186,-1.4606,0.0,0.0,0.0,0.0,0.0,0.0,0.0,0.0,0.0,0.0,0.0,0.0,0.0,0.0,0.0,0.0,0.0,0.0,-1.3746,0.0,-1.6411,-1.8719,-1.9449,0.0,-2.1194,-2.1493,-2.1871,-2.2265,-2.2556,-2.2915,-2.3264,-2.3264,-2.287,-2.2173,-2.142,-2.11,-2.1052,-2.0414,-1.9919,-1.9622,-1.9532,-1.8542,-1.7441,0.0,0.0,0.0,0.0,0.0,0.0,0.0,-1.4118,-1.4441,-1.4943,-1.5623,-1.6313,-1.6898,-1.7158,-1.7521,-1.8104,-1.8558,-1.8938,-1.929,-1.9608,-1.9726,-1.9726,-2.0439,-2.0828,-2.0828,-2.2188,-2.2847,0.0,0.0,0.0,0.0,0.0,0.0,0.0,0.0,-2.0072,-2.0353,-2.0246,-2.0207,-2.0194,-2.0471,-2.0374,-1.9995,-1.9198,-1.8675,-1.8301,-1.7447,-1.7353,-1.7585,-1.7229,-1.7959,-1.891,-1.8531,-1.8646,-1.8873,-1.8288,-1.8263,-1.8419,-1.8419,-1.8263,-1.8066,-1.7987,-1.7787,-1.7463,-1.6951,-1.6837,-1.6667,-1.6095,-1.5688,-1.5332,-1.5096,-1.456,-1.4097,0.0,0.0,0.0,0.0,0.0,0.0,0.0,0.0,0.0,0.0,0.0,-1.2009,0.0,0.0,0.0,0.0,0.0,0.0,-1.2467,0.0,-1.5425,-1.7042,-1.8481,-1.9499,-2.0181,-2.0602,-2.1022,-2.1442,-2.1589,-2.172,-2.1881,-2.1881,-2.1707,-2.1428,-2.1102,-2.0797,-2.0487,-2.0032,-1.9525,-1.9104,-1.8797,-1.8275,-1.7735,-1.2126,0.0,-1.2492,0.0,-1.2718,-1.2978,-1.2674,-1.2818,-1.3009,-1.3009,-1.3974,-1.4805,-1.4991,-1.5748,-1.6331,-1.6757,-1.7312,-1.7741,-1.8137,-1.8335,-1.8463,-1.8463,-1.9157,0.0,-1.9475,-2.0673,-2.1331,-2.1331,-2.2041,0.0,0.0,0.0,0.0,0.0,-1.94,-1.9542,-1.994,-1.9381,-1.9254,-1.9475,-1.9475,-1.9368,-1.9183,-1.8468,-1.7965,-1.7526,-1.6785,-1.6752,-1.6993,-1.6398,-1.6854,-1.7626,-1.7626,-1.7867,-1.8027,-1.7706,-1.7747,-1.7867,-1.7867,-1.7747,-1.7585,-1.7353,-1.705,-1.6714,-1.6312,-1.6107,-1.5832,-1.541,-1.5017,-1.4663,-1.4468,-1.4097,-1.3674,-1.3283,0.0,0.0,0.0,0.0,0.0,0.0,0.0,-1.1516,-1.1516,0.0,0.0,0.0,0.0,0.0,0.0,0.0,0.0,0.0,0.0,0.0,0.0,-1.7956,-1.8932,-1.9411,-1.9551,-1.9889,-2.0369,-2.0487,-2.052,-2.052,-2.0387,-2.0335,-2.0335,-2.02,-1.9928,-1.9531,-1.9104,-1.8693,-1.831,-1.7786,-1.7518,-1.73,-1.012,-1.0127,-1.0282,-1.0571,-1.1296,-1.1834,-1.1834,-1.2512,-1.3009,-1.3009,-1.3009,-1.3304,-1.4154,-1.4932,-1.541,-1.542,-1.542,-1.542,-1.543,-1.6104,-1.6503,0.0,0.0,-1.8532,-1.8532,-1.9418,-1.9913,-1.9913,0.0,0.0,-1.9705,0.0,-1.9694,-1.966,-1.9253,-1.8832,-1.8293,-1.7846,-1.8058,-1.8715,-1.8715,-1.915,-1.9673,-1.8606,-1.8204,-1.8041,-1.6923,-1.6522,-1.6423,-1.582,-1.6008,-1.6522,-1.6522,-1.7229,-1.7907,-1.6837,-1.6879,-1.7312,-1.7312,-1.6909,-1.6637,-1.7146,-1.6446,-1.5632,-1.5632,-1.5141,-1.4709,-1.4698,-1.4709,-1.4514,-1.3909,-1.3815,-1.3379,-1.2061,0.0,0.0,0.0,0.0,0.0,0.0,-1.0813,-1.0813,-1.0813,0.0,0.0,0.0,0.0,0.0,0.0,0.0,0.0,-1.2111,-1.4379,0.0,-1.7545,-1.7987,-1.8441,-1.8893,-1.8382,-1.8377,-1.8852,-1.922,-1.9405,-1.942,-1.9009,-1.8829,-1.8792,-1.8352,-1.8131,-1.8052,-1.7544,-1.7299,-1.7271,-1.6646,-1.6089,-1.562,-0.9157,-0.9459,-0.9913,-1.0207,-1.0328,-1.0432,-1.0641,-1.0852,-1.1034,-1.1034,-1.1699,-1.2258,-1.2565,-1.3295,-1.3965,0.0,-1.4569,-1.4805,0.0,-1.5642,-1.5748,-1.5748,-1.6463,-1.697,-1.7298,-1.8171,-1.8889,-1.9458,0.0,0.0,0.0,-1.8671,-1.8716,-1.8955,-1.8422,-1.8436,-1.8762,-1.7924,-1.7743,-1.7961,-1.7961,-1.7863,-1.7694,-1.7082,-1.6567,-1.616,-1.5486,-1.5242,-1.5242,-1.5062,-1.5107,-1.5242,-1.5242,-1.6071,-1.6854,-1.6126,-1.6312,-1.6667,-1.6244,-1.6027,-1.582,-1.5576,-1.5276,-1.4971,-1.4971,-1.4503,-1.4097,-1.4097,-1.3742,-1.3266,-1.255,-1.2453,-1.215,-1.1266,-1.1116,0.0,0.0,0.0,0.0,0.0,0.0,-0.9349,0.0,-0.9438,0.0,0.0,0.0,0.0,0.0,0.0,0.0,0.0,-1.4719,0.0,-1.6288,-1.7786,-1.8414,-1.8215,-1.8528,-1.8519,-1.8352,-1.8464,-1.8489,-1.8503,-1.8377,-1.8299,-1.826,-1.7733,-1.7504,-1.7463,-1.6439,-1.6108,-1.6058,-1.5443,-1.5141,-1.496,-0.8114,-0.864,-0.9202,-0.9477,-0.9623,-0.9746,-0.9927,-0.9953,-0.9953,-0.9953,-1.0681,-1.1164,-1.1164,-1.1705,0.0,-1.3666,-1.4034,-1.4392,-1.4932,-1.5225,-1.541,-1.541,-1.5674,-1.5947,-1.623,0.0,0.0,-1.8086,-1.8533,-1.8501,-1.8114,-1.7734,-1.7635,-1.7838,-1.7379,-1.748,-1.7899,-1.713,-1.6912,-1.7202,-1.7202,-1.7126,-1.7064,-1.6584,-1.6204,-1.5786,-1.5166,-1.492,-1.4851,-1.4488,-1.4514,-1.4617,-1.4165,-1.4835,-1.5744,-1.5365,-1.5511,-1.5744,-1.5365,-1.5276,-1.5186,-1.4789,-1.4514,-1.4283,-1.4071,-1.3532,-1.3034,-1.3034,-1.257,-1.199,-1.1516,-1.1416,-1.1216,-1.0517,-1.0415,-1.0364,-1.0064,0.0,0.0,0.0,0.0,0.0,0.0,-0.8533,0.0,0.0,0.0,0.0,0.0,0.0,0.0,-1.2862,-1.4953,0.0,-1.6008,-1.7306,-1.7816,-1.7506,-1.7543,-1.7388,-1.7029,-1.6879,-1.6831,-1.6831,-1.6831,-1.6831,-1.6777,-1.6439,-1.628,-1.6262,-1.5496,-1.5252,-1.5186,-1.4595,-1.4376,-1.4329,-0.7007,-0.7571,0.0,0.0,-0.904,0.0,-0.9588,-0.9595,-0.9601,-0.9679,-0.9933,-1.0127,-1.0147,-1.0374,-1.1149,-1.2704,0.0,0.0,0.0,-1.4874,-1.5294,-1.5294,-1.5294,-1.5303,-1.5332,-1.576,-1.6035,-1.6125,-1.6514,-1.6943,-1.7334,-1.6924,-1.6665,-1.6709,-1.626,-1.6125,-1.6096,-1.5596,-1.5806,-1.6436,-1.6436,-1.681,-1.7401,-1.6837,-1.6638,-1.6453,-1.5483,-1.5152,-1.5011,-1.41,-1.4172,-1.4485,-1.3298,-1.3699,-1.4605,-1.4617,-1.4652,-1.4709,-1.4652,-1.4652,-1.4606,-1.4617,-1.4097,-1.3494,-1.2958,-1.2246,-1.1715,-1.1715,-1.1216,-1.0762,-1.0762,-1.0712,-1.0517,-0.9865,-0.971,-0.951,-0.8798,0.0,0.0,0.0,0.0,0.0,0.0,-0.8673,-0.9199,0.0,0.0,0.0,0.0,0.0,-1.2852,-1.2639,-1.5109,-1.6436,-1.6436,-1.6645,-1.6769,-1.6777,-1.5864,-1.5385,-1.5307,-1.4909,-1.4731,-1.4698,-1.4698,-1.4698,-1.4698,-1.4652,-1.4663,-1.4709,-1.4617,-1.4606,-1.456,-1.3956,-1.3732,-1.3637,0.0,0.0,-0.707,-0.7415,-0.7365,-0.7638,-0.8458,-0.8545,-0.8852,-0.9595,-0.9933,-1.02,-1.0428,-1.0314,-1.0492,-1.1094,-1.1896,-1.2626,-1.3243,-1.4025,-1.451,-1.451,-1.451,-1.4657,-1.5032,-1.4768,-1.5115,-1.6125,-1.6514,-1.6787,-1.6885,-1.6777,-1.6665,-1.6709,-1.626,-1.6125,-1.6096,-1.5596,-1.5526,-1.5633,-1.5633,-1.5748,-1.582,-1.5043,-1.475,-1.4639,-1.3761,-1.366,-1.3872,-1.3671,-1.3851,-1.4122,-1.3559,-1.3551,-1.3809,-1.3979,-1.4329,-1.4606,-1.4143,-1.4003,-1.392,-1.343,-1.2822,-1.2258,-1.207,-1.1516,-1.1065,-1.1065,-1.0914,-1.0669,-1.0115,-1.0064,-0.9814,-0.9159,-0.9061,-0.8791,-0.8049,-0.783,0.0,0.0,-0.7228,-0.7354,-0.7822,-0.8635,-0.9237,0.0,0.0,0.0,0.0,-1.1531,-1.235,-1.2885,-1.469,-1.5633,-1.5633,-1.6265,-1.6634,-1.6788,-1.6554,-1.6053,-1.5319,-1.5207,-1.4998,-1.4698,-1.4698,-1.4698,-1.4652,-1.419,-1.4283,-1.4617,-1.3705,-1.361,-1.3956,-1.3334,-1.3104,-1.3007,-0.5113,-0.5601,-0.6182,-0.635,-0.6499,-0.6792,-0.7356,-0.7489,-0.776,-0.8689,-0.9068,-0.9421,-0.988,-1.0053,-1.018,-1.0341,-1.1128,-1.1852,-1.2443,-1.3183,-1.3666,-1.3666,-1.3666,-1.377,-1.404,-1.3778,-1.41,-1.4985,-1.5349,-1.5666,-1.5908,-1.6027,-1.5879,-1.5553,-1.5317,-1.5213,-1.5194,-1.4968,-1.505,-1.541,-1.541,-1.5293,-1.5098,-1.4824,-1.4253,-1.361,-1.3302,-1.3007,-1.2724,-1.2552,-1.2624,-1.2733,-1.2386,-1.2268,-1.2264,-1.2412,-1.287,-1.3263,-1.258,-1.2434,-1.2346,-1.2039,-1.1882,-1.1715,-1.1408,-1.0813,-1.0364,-1.0364,-1.0115,-0.9762,-0.9413,-0.9361,-0.9211,-0.8857,-0.8533,-0.8156,-0.7777,-0.722,0.0,-0.6634,-0.6777,-0.7163,-0.7754,-0.8728,-0.9466,-0.9849,0.0,0.0,-1.0624,-1.1351,-1.2143,-1.2948,-1.3855,-1.451,-1.4874,-1.4904,-1.5119,-1.5619,-1.5416,-1.5242,-1.508,-1.465,-1.4177,-1.3723,-1.3826,-1.3521,-1.2956,-1.3256,-1.3188,-1.286,-1.2521,-1.2423,-1.2395,-1.208,-1.195,-1.1891,-0.4519,-0.4948,-0.5324,-0.5324,-0.5873,-0.6317,-0.6421,-0.6421,-0.6707,-0.7507,-0.7859,-0.8241,-0.8901,-0.9356,-0.9633,-0.9678,-1.0398,-1.107,-1.1556,-1.2342,-1.2769,-1.2818,-1.2826,-1.2826,-1.2826,-1.2826,-1.3034,-1.3517,-1.3822,-1.4203,-1.4648,-1.4915,-1.4688,-1.4025,-1.4025,-1.4025,-1.4025,-1.4025,-1.4392,-1.505,-1.505,-1.4802,-1.4477,-1.4821,-1.4128,-1.2958,-1.3242,-1.2685,-1.1845,-1.1494,-1.1395,-1.1383,-1.1011,-1.0904,-1.0887,-1.0677,-1.1065,-1.1416,-1.0914,-1.0813,-1.0813,-1.0813,-1.1166,-1.1366,-1.0762,-1.0115,-0.9666,-0.9666,-0.9211,-0.8804,-0.8804,-0.8804,-0.8804,-0.8804,-0.8156,-0.7723,-0.7723,0.0,-0.5901,-0.6147,-0.6371,-0.698,-0.8014,-0.8884,-0.9705,-1.0428,-1.0571,-1.0604,0.0,-1.1155,-1.1966,-1.2818,-1.2948,-1.3287,-1.3945,-1.3228,-1.3228,-1.3936,-1.3607,-1.3807,-1.441,-1.3628,-1.2963,-1.2404,-1.2585,-1.2018,-1.1029,-1.2232,-1.2022,-1.0978,-1.1531,-1.1404,-1.0853,-1.091,-1.0894,-1.0853,-0.4519,-0.457,-0.468,-0.468,-0.4736,-0.5007,-0.5597,-0.5651,-0.6041,-0.7069,-0.7238,-0.739,-0.7704,-0.767,-0.7676,-0.7871,-0.8403,-0.9285,-1.069,-1.1275,-1.1714,-1.1943,-1.202,-1.202,-1.202,-1.202,-1.2351,-1.3091,-1.3155,-1.3216,-1.3275,-1.3338,-1.3312,-1.3191,-1.3191,-1.3191,-1.3191,-1.3191,-1.3252,-1.3364,-1.3364,-1.3212,-1.2946,-1.2889,-1.2512,-1.2069,-1.2016,-1.1944,-1.1886,-1.1828,-1.1875,-1.1889,-1.1497,-1.1381,-1.1218,-1.0252,-1.0012,-1.021,-1.0661,-1.0813,-1.0813,-1.0813,-1.0466,-1.0064,-0.9961,-0.9465,-0.8956,-0.8956,-0.8857,-0.8804,-0.8804,-0.8804,-0.8804,-0.8804,-0.8156,-0.7723,-0.7723,0.0,-0.6129,-0.6968,-0.7141,-0.7552,-0.8584,-0.9494,-0.9959,-0.984,-1.0342,-1.0448,-1.02,-1.0302,-1.0833,-1.1943,-1.2634,-1.292,-1.2856,-1.2421,-1.2421,-1.2848,-1.2797,-1.2763,-1.2755,-1.2355,-1.2032,-1.1795,-1.1654,-1.1556,-1.1564,-1.1784,-1.1784,-1.1564,-1.1666,-1.1485,-1.1264,-1.1459,-1.1431,-1.1051,-0.4519,-0.4519,-0.4519,-0.4519,-0.4519,-0.4625,-0.4897,-0.4948,-0.525,-0.611,-0.623,-0.6439,-0.6936,-0.7079,-0.7131,-0.7291,-0.7494,-0.797,-0.8877,-1.0013,-1.0777,-1.1156,-1.1163,-1.1163,-1.1163,-1.1163,-1.1358,-1.1725,-1.2151,-1.2328,-1.2389,-1.2818,-1.2765,-1.2328,-1.2328,-1.2328,-1.2312,-1.2185,-1.2354,-1.2763,-1.2564,-1.2322,-1.2031,-1.2381,-1.1769,-1.0809,-1.1308,-1.1165,-1.0714,-1.0528,-1.0595,-1.0718,-1.021,-1.0045,-0.9963,-0.9404,-0.9263,-0.9316,-0.9666,-0.9969,-1.0167,-0.9814,-0.9762,-0.9718,-0.9361,-0.9008,-0.8804,-0.8804,-0.8804,-0.8699,-0.8262,-0.8209,-0.8209,-0.8209,-0.7283,0.0,0.0,-0.5992,-0.5401,-0.5827,-0.6393,-0.6911,-0.737,-0.8177,-0.8676,-0.8498,-0.877,-0.8853,-0.8735,-0.8729,-0.8951,-0.9484,-1.1158,-1.1796,-1.1242,-1.0972,-1.1104,-1.1717,-1.1842,-1.2113,-1.253,-1.2291,-1.1914,-1.1487,-1.1535,-1.1201,-1.0679,-1.1399,-1.1287,-1.0679,-1.1012,-1.0864,-1.0423,-1.003,-0.9818,-0.9602,-0.4519,-0.4519,-0.4519,-0.4519,-0.4519,-0.4519,-0.4519,-0.4519,-0.4677,-0.5218,-0.5273,-0.5492,-0.6041,-0.635,-0.6501,-0.6501,-0.6609,-0.684,-0.7161,-0.8609,-0.9579,-0.9926,-1.0135,-1.0364,-1.0624,-1.0624,-1.0624,-1.0624,-1.1226,-1.1531,-1.1531,-1.2151,-1.2089,-1.1531,-1.1531,-1.1487,-1.1399,-1.115,-1.136,-1.1919,-1.1647,-1.1312,-1.1064,-1.1703,-1.0994,-0.978,-1.0646,-1.0333,-0.9546,-0.9263,-0.9345,-0.9406,-0.8951,-0.8804,-0.8752,-0.8593,-0.8533,-0.8593,-0.8752,-0.9159,-0.9465,-0.891,-0.9211,-0.9413,-0.891,-0.8804,-0.8752,-0.8593,-0.8533,-0.8321,-0.7563,-0.745,-0.745,-0.745,0.0,0.0,0.0,-0.5494,-0.4749,-0.4919,-0.5663,-0.6096,-0.6096,-0.687,-0.7379,-0.7269,-0.7421,-0.7457,-0.7405,-0.7405,-0.7405,-0.7405,-0.9454,-1.0293,-0.9669,-0.9568,-0.9874,-1.0629,-1.0741,-1.1292,-1.2123,-1.1905,-1.156,-1.1136,-1.1272,-1.0777,-1.0005,-1.1017,-1.085,-0.9946,-1.0455,-1.0172,-0.9427,-0.8819,-0.8437,-0.8093,-0.4519,-0.4519,-0.4519,-0.4519,-0.4519,-0.4519,-0.4519,-0.4519,-0.4515,-0.457,-0.457,-0.457,-0.4625,-0.4691,-0.4698,-0.4698,-0.5238,-0.5828,-0.6258,-0.7066,-0.7652,-0.7881,-0.888,-0.9786,-1.0561,-1.0624,-1.0624,-1.0624,-1.0681,-1.0688,-1.0688,-1.0744,-1.0744,-1.0688,-1.0688,-1.0525,-1.0201,-1.0181,-1.0073,-0.988,-0.986,-0.967,-0.9432,-0.9765,-0.9613,-0.9301,-0.9701,-0.9583,-0.9216,-0.919,-0.9072,-0.8864,-0.8824,-0.8804,-0.8646,-0.799,-0.7777,-0.7943,-0.8593,-0.8857,-0.8857,-0.8804,-0.8857,-0.8857,-0.8804,-0.8804,-0.8586,-0.7937,-0.7777,-0.7563,-0.6804,-0.6696,-0.6696,-0.6696,0.0,0.0,-0.648,-0.5494,-0.4977,-0.5657,-0.5785,-0.5851,-0.5851,-0.6597,-0.7028,-0.6708,-0.7187,-0.739,-0.7125,-0.7115,-0.7115,-0.7115,-0.7983,-0.8389,-0.8339,-0.8687,-0.92,-0.9795,-0.9475,-0.9849,-1.0759,-1.0139,-1.0186,-1.0634,-1.0329,-1.0363,-1.0557,-1.062,-1.062,-1.0557,-1.062,-0.9874,-0.8924,-0.9115,-0.8548,-0.7509,-0.4484,-0.4477,-0.4473,-0.4473,-0.4522,-0.4519,-0.4519,-0.4519,-0.4519,-0.4519,-0.4519,-0.4519,-0.4519,-0.4519,-0.4519,-0.4519,-0.4732,-0.4949,-0.5129,-0.5569,-0.6424,-0.7815,-0.8302,-0.8678,-0.9,-0.9,-0.9,-0.9,-0.9,-0.9,-0.9,-0.9,-0.9262,-0.9786,-0.9786,-0.9888,-1.0107,-0.9927,-0.9679,-0.9392,-0.9212,-0.9072,-0.9005,-0.9299,-0.9225,-0.9011,-0.9305,-0.9339,-0.9101,-0.8475,-0.8632,-0.8875,-0.777,-0.7723,-0.7996,-0.7235,-0.702,-0.7074,-0.7343,-0.7777,-0.8103,-0.8103,-0.7777,-0.745,-0.745,-0.745,-0.7343,-0.7074,-0.702,-0.6799,-0.6036,-0.5923,-0.5923,-0.5923,0.0,-0.5113,-0.5819,-0.5116,-0.4661,-0.4938,-0.499,-0.499,-0.499,-0.527,-0.5409,-0.5285,-0.5518,-0.5619,-0.5497,-0.5493,-0.5493,-0.5493,-0.6151,-0.6824,-0.7486,-0.7616,-0.7711,-0.796,-0.8117,-0.8304,-0.8703,-0.8663,-0.9074,-0.9779,-0.9093,-0.9168,-0.9722,-0.9192,-0.9,-0.9,-0.9,-0.8681,-0.8223,-0.7862,-0.739,-0.6883,-0.3697,-0.3805,-0.3913,-0.4425,-0.4477,-0.4473,-0.4473,-0.4473,-0.4473,-0.4522,-0.4522,-0.4522,-0.4519,-0.4519,-0.4519,-0.4519,-0.4519,-0.4539,-0.4587,-0.4775,-0.5728,-0.7488,-0.7567,-0.7697,-0.8027,-0.8027,-0.8027,-0.8027,-0.8027,-0.8027,-0.8021,-0.795,-0.8239,-0.8816,-0.8743,-0.888,-0.9163,-0.8982,-0.8682,-0.8361,-0.8176,-0.8103,-0.8121,-0.8306,-0.8263,-0.8127,-0.8306,-0.8373,-0.8294,-0.7561,-0.7841,-0.8172,-0.696,-0.6799,-0.6961,-0.6696,-0.6421,-0.6312,-0.6534,-0.6799,-0.7069,-0.7289,-0.6966,-0.6588,-0.6588,-0.6588,-0.6534,-0.6312,-0.6258,-0.6036,-0.5328,-0.5164,-0.5164,-0.5164,-0.4787,-0.468,-0.5109,-0.4787,-0.4519,-0.4519,-0.4519,-0.4519,-0.4519,-0.4519,-0.4519,-0.4522,-0.4522,-0.4525,-0.4473,-0.4473,-0.4525,-0.4522,-0.4956,-0.5559,-0.6248,-0.6704,-0.6939,-0.7009,-0.7255,-0.7474,-0.7671,-0.7756,-0.8222,-0.8877,-0.8285,-0.835,-0.8877,-0.8221,-0.8027,-0.8027,-0.8027,-0.7832,-0.7502,-0.6915,-0.6523,-0.6203,-0.1896,-0.2174,-0.2681,-0.4209,-0.4497,-0.4497,-0.4497,-0.4497,-0.4494,-0.448,-0.448,-0.4477,-0.4519,-0.4519,-0.4519,-0.4519,-0.4519,-0.4584,-0.468,-0.4833,-0.5414,-0.6633,-0.6715,-0.7107,-0.7957,-0.7962,-0.7962,-0.7962,-0.7962,-0.7957,-0.7952,-0.7782,-0.7675,-0.7665,-0.7576,-0.7353,-0.7089,-0.7089,-0.6905,-0.6588,-0.6588,-0.6588,-0.6588,-0.6588,-0.6588,-0.6588,-0.6588,-0.6588,-0.6588,-0.6588,-0.6588,-0.6588,-0.6588,-0.6091,-0.5651,-0.6367,-0.6091,-0.5651,-0.6367,-0.6036,-0.5651,-0.6421,-0.6588,-0.6588,-0.6588,-0.6588,-0.6367,-0.5651,-0.5487,-0.5269,-0.4625,-0.4519,-0.4519,-0.4519,-0.4519,-0.4519,-0.4519,-0.4519,-0.4519,-0.4519,-0.4519,-0.4519,-0.4519,-0.4519,-0.4522,-0.448,-0.448,-0.4484,-0.4497,-0.4497,-0.449,-0.448,-0.448,-0.4473,-0.4519,-0.607,-0.7019,-0.7289,-0.7121,-0.7414,-0.7952,-0.7603,-0.7686,-0.7962,-0.7962,-0.7962,-0.7962,-0.7962,-0.7962,-0.7962,-0.7962,-0.7437,-0.6719,-0.6719,-0.6137,-0.5428,-0.0559,-0.067,-0.0781,-0.1284,-0.2178,-0.2905,-0.2905,-0.2905,-0.2903,-0.2901,-0.3808,-0.449,-0.4487,-0.4487,-0.4484,-0.4473,-0.4473,-0.4535,-0.468,-0.4731,-0.4963,-0.5406,-0.5519,-0.5702,-0.5958,-0.6078,-0.6082,-0.5958,-0.5958,-0.5899,-0.5848,-0.5732,-0.6067,-0.6661,-0.6607,-0.6768,-0.7089,-0.7089,-0.6905,-0.6588,-0.6588,-0.6588,-0.6588,-0.6588,-0.6588,-0.6588,-0.6588,-0.6588,-0.6529,-0.5982,-0.6145,-0.6534,-0.5982,-0.5328,-0.4842,-0.5062,-0.4952,-0.4842,-0.5062,-0.4952,-0.4952,-0.5655,-0.5496,-0.5117,-0.5117,-0.5117,-0.5062,-0.4842,-0.4787,-0.4732,-0.4519,-0.4519,-0.4519,-0.4519,-0.4519,-0.4519,-0.4519,-0.4525,-0.4473,-0.4473,-0.448,-0.4487,-0.4487,-0.4487,-0.4487,-0.449,-0.3522,-0.2903,-0.2905,-0.2905,-0.2903,-0.2901,-0.3922,-0.449,-0.4487,-0.5188,-0.5524,-0.5638,-0.5813,-0.5982,-0.6141,-0.609,-0.6416,-0.7046,-0.647,-0.6531,-0.7046,-0.64,-0.6145,-0.6145,-0.6145,-0.6013,-0.5815,-0.5815,-0.5627,-0.5372,-0.0,-0.0,-0.0,-0.0,-0.0727,-0.134,-0.134,-0.134,-0.134,-0.1338,-0.2122,-0.2965,-0.3527,-0.3583,-0.358,-0.3574,-0.4144,-0.4521,-0.4602,-0.4609,-0.4646,-0.4735,-0.4877,-0.4986,-0.5047,-0.5138,-0.5142,-0.5047,-0.5047,-0.5003,-0.4918,-0.4857,-0.5121,-0.5581,-0.5568,-0.5711,-0.6057,-0.6057,-0.5934,-0.5773,-0.5773,-0.5773,-0.5773,-0.5773,-0.5773,-0.5773,-0.5773,-0.5773,-0.5714,-0.5273,-0.5386,-0.5714,-0.5218,-0.4842,-0.4519,-0.4519,-0.4519,-0.4519,-0.4519,-0.4522,-0.4577,-0.5011,-0.4791,-0.4519,-0.4519,-0.4522,-0.4525,-0.4525,-0.4473,-0.4477,-0.4477,-0.4477,-0.4477,-0.4477,-0.4477,-0.4477,-0.4477,-0.448,-0.4258,-0.3688,-0.358,-0.3583,-0.3583,-0.3583,-0.3869,-0.4445,-0.2517,-0.134,-0.134,-0.134,-0.134,-0.1338,-0.3418,-0.4185,-0.3597,-0.3779,-0.4241,-0.4992,-0.5159,-0.5304,-0.5428,-0.5428,-0.5686,-0.6141,-0.562,-0.5686,-0.6137,-0.562,-0.5428,-0.5428,-0.5428,-0.5432,-0.5369,-0.5369,-0.5376,-0.5316,-0.0,-0.0,-0.0,-0.0,-0.0,-0.0,-0.0,-0.0,-0.0,-0.0,-0.0,-0.0502,-0.184,-0.2009,-0.2009,-0.2007,-0.3413,-0.4317,-0.4307,-0.4425,-0.4477,-0.4522,-0.4599,-0.4738,-0.4877,-0.4908,-0.4911,-0.4897,-0.4897,-0.4891,-0.4874,-0.4735,-0.467,-0.4663,-0.458,-0.4519,-0.4519,-0.4519,-0.4519,-0.4519,-0.4519,-0.4519,-0.4519,-0.4519,-0.4519,-0.4519,-0.4519,-0.4519,-0.4519,-0.4519,-0.4519,-0.4519,-0.4519,-0.4519,-0.4519,-0.4519,-0.4519,-0.4519,-0.4522,-0.4473,-0.448,-0.4311,-0.4301,-0.4349,-0.4463,-0.4473,-0.448,-0.4311,-0.4317,-0.4268,-0.4268,-0.4268,-0.4268,-0.4268,-0.4268,-0.4268,-0.4268,-0.4442,-0.3984,-0.2569,-0.2176,-0.2009,-0.2009,-0.2009,-0.2571,-0.3999,-0.157,-0.0,-0.0,-0.0,-0.0,-0.0,-0.2647,-0.3496,-0.2237,-0.2182,-0.314,-0.5023,-0.5094,-0.5226,-0.5432,-0.5432,-0.5432,-0.5432,-0.5432,-0.5432,-0.5432,-0.5432,-0.5432,-0.5432,-0.5432,-0.5372,-0.5379,-0.5243,-0.5249,-0.5122,-0.0,-0.0,-0.0,-0.0,-0.0,-0.0,-0.0,-0.0,-0.0,-0.0,-0.0,-0.0112,-0.0448,-0.0504,-0.0503,-0.0502,-0.1842,-0.2679,-0.2679,-0.3808,-0.449,-0.449,-0.4521,-0.4555,-0.4589,-0.4806,-0.486,-0.4741,-0.4741,-0.4677,-0.4562,-0.4584,-0.4567,-0.4567,-0.4532,-0.4519,-0.4519,-0.4519,-0.4519,-0.4519,-0.4519,-0.4519,-0.4519,-0.4519,-0.4519,-0.4519,-0.4519,-0.4519,-0.4519,-0.4519,-0.4519,-0.4519,-0.4519,-0.4519,-0.4519,-0.4473,-0.4477,-0.4477,-0.4487,-0.449,-0.4206,-0.3016,-0.2676,-0.3014,-0.4203,-0.449,-0.415,-0.2959,-0.2679,-0.2681,-0.2681,-0.2681,-0.2681,-0.2681,-0.2681,-0.2681,-0.2681,-0.3761,-0.4396,-0.4051,-0.1903,-0.0504,-0.0504,-0.0504,-0.0616,-0.0953,-0.0392,-0.0,-0.0,-0.0,-0.0,-0.0,-0.0641,-0.1362,-0.2201,-0.2213,-0.2995,-0.4611,-0.5137,-0.5355,-0.5389,-0.5389,-0.5389,-0.5389,-0.5389,-0.5389,-0.5389,-0.5389,-0.5389,-0.5389,-0.5389,-0.5389,-0.5252,-0.3823,-0.4167,-0.4931,-0.0,-0.0,-0.0,-0.0,-0.0,-0.0,-0.0,-0.0,-0.0,-0.0,-0.0,-0.0,-0.0,-0.0,-0.0,-0.0,-0.0727,-0.1173,-0.1171,-0.1899,-0.2683,-0.3357,-0.3413,-0.3413,-0.3413,-0.3525,-0.3964,-0.4599,-0.4599,-0.4558,-0.448,-0.448,-0.448,-0.4477,-0.4473,-0.4473,-0.4477,-0.4473,-0.4525,-0.4525,-0.4477,-0.4477,-0.4525,-0.4477,-0.448,-0.448,-0.448,-0.448,-0.448,-0.448,-0.448,-0.448,-0.448,-0.448,-0.448,-0.4487,-0.3974,-0.3408,-0.3413,-0.3928,-0.4333,-0.3477,-0.2745,-0.2408,-0.3244,-0.3984,-0.4274,-0.3477,-0.2125,-0.1174,-0.1174,-0.1174,-0.1174,-0.1174,-0.1174,-0.1174,-0.1174,-0.1849,-0.2357,-0.2357,-0.0953,-0.0,-0.0,-0.0,-0.0,-0.0,-0.0,-0.0,-0.0,-0.0,-0.0,-0.0,-0.0,-0.0367,-0.1136,-0.1135,-0.1535,-0.2369,-0.3359,-0.398,-0.4097,-0.4097,-0.4097,-0.4097,-0.4097,-0.4097,-0.4097,-0.4097,-0.4097,-0.4097,-0.4097,-0.4645,-0.5266,-0.4308,-0.3498,-0.2551,-0.0,-0.0,-0.0,-0.0,-0.0,-0.0,-0.0,-0.0,-0.0,-0.0,-0.0,-0.0,-0.0,-0.0,-0.0,-0.0,-0.0,-0.0,-0.0,-0.0,-0.0559,-0.1786,-0.2065,-0.2178,-0.2178,-0.2178,-0.2852,-0.4095,-0.4095,-0.4095,-0.4095,-0.4095,-0.4095,-0.4095,-0.4086,-0.4258,-0.4497,-0.42,-0.4082,-0.4141,-0.4379,-0.432,-0.4082,-0.4092,-0.4095,-0.4095,-0.4095,-0.4095,-0.4095,-0.4095,-0.4095,-0.4095,-0.4095,-0.4095,-0.4154,-0.4442,-0.3588,-0.2458,-0.1953,-0.2745,-0.3831,-0.4347,-0.3151,-0.1852,-0.1843,-0.2802,-0.3716,-0.3716,-0.1738,-0.0,-0.0,-0.0,-0.0,-0.0,-0.0,-0.0,-0.0,-0.0,-0.0,-0.0,-0.0,-0.0,-0.0,-0.0,-0.0,-0.0,-0.0,-0.0,-0.0,-0.0,-0.0,-0.0,-0.0,-0.0,-0.0,-0.0,-0.0,-0.0,-0.1246,-0.1967,-0.221,-0.221,-0.221,-0.221,-0.221,-0.221,-0.221,-0.221,-0.221,-0.221,-0.221,-0.3159,-0.4456,-0.4456,-0.2559,-0.0,-0.0,-0.0,-0.0,-0.0,-0.0,-0.0,-0.0,-0.0,-0.0,-0.0,-0.0,-0.0,-0.0,-0.0,-0.0,-0.0,-0.0,-0.0,-0.0,-0.0,-0.0112,-0.028,-0.1514,-0.2189,-0.2189,-0.2189,-0.2298,-0.2512,-0.2512,-0.2512,-0.2512,-0.2512,-0.2512,-0.2512,-0.251,-0.3244,-0.4438,-0.3074,-0.251,-0.2623,-0.3981,-0.3697,-0.251,-0.2512,-0.2512,-0.2512,-0.2512,-0.2512,-0.2512,-0.2512,-0.2512,-0.2512,-0.2512,-0.2512,-0.2794,-0.4107,-0.434,-0.3599,-0.1008,-0.0448,-0.1234,-0.384,-0.2361,-0.028,-0.028,-0.0448,-0.0617,-0.0617,-0.028,-0.0,-0.0,-0.0,-0.0,-0.0,-0.0,-0.0,-0.0,-0.0,-0.0,-0.0,-0.0,-0.0,-0.0,-0.0,-0.0,-0.0,-0.0,-0.0,-0.0,-0.0,-0.0,-0.0,-0.0,-0.0,-0.0,-0.0,-0.0,-0.0,-0.0201,-0.0335,-0.0337,-0.0337,-0.0337,-0.0337,-0.0337,-0.0337,-0.0337,-0.0337,-0.0337,-0.0337,-0.0337,-0.0539,-0.0741,-0.0741,-0.0404,-0.0,-0.0,-0.0,-0.0,-0.0,-0.0,-0.0,-0.0,-0.0,-0.0,-0.0,-0.0,-0.0,-0.0,-0.0,-0.0,-0.0,-0.0,-0.0,-0.0,-0.0,-0.0,-0.0,-0.0617,-0.0954,-0.0954,-0.0954,-0.0952,-0.095,-0.095,-0.095,-0.095,-0.095,-0.095,-0.095,-0.0949,-0.1341,-0.2071,-0.3084,-0.2517,-0.1004,-0.1734,-0.2577,-0.3309,-0.1621,-0.095,-0.095,-0.095,-0.095,-0.095,-0.095,-0.095,-0.095,-0.095,-0.095,-0.1119,-0.1793,-0.1964,-0.1682,-0.0336,-0.0,-0.0336,-0.1629,-0.101,-0.0,-0.0,-0.0,-0.0,-0.0,-0.0,-0.0,-0.0,-0.0,-0.0,-0.0,-0.0,-0.0,-0.0,-0.0,-0.0,-0.0,-0.0,-0.0,-0.0,-0.0,-0.0,-0.0,-0.0,-0.0,-0.0,-0.0,-0.0,-0.0,-0.0,-0.0,-0.0,-0.0,-0.0,-0.0,-0.0,-0.0,-0.0,-0.0,-0.0,-0.0,-0.0,-0.0,-0.0,-0.0,-0.0,-0.0,-0.0,-0.0,-0.0,-0.0,-0.0,-0.0]},{"header":{"parameterUnit":"m.s-1","parameterCategory":1,"la1":30.6,"la2":28.766,"lo1":-90.7593,"lo2":-88.6598,"dy":0.0162,"dx":0.0183,"nx":116,"ny":114,"refTime":"2023-10-20T12:00:00:Z","depth":0,"parameterNumber":3,"parameterNumberName":"V-component_of_WINDS"},"data":[0.0,0.0,0.0,0.0,0.0,0.0,0.0,0.0,0.0,0.0,0.0,0.0,0.0,0.0,0.0,0.0,0.0,0.0,0.0,0.0,0.0,0.0,0.0,0.0,0.0,0.0,0.0,0.0,0.0,0.0,0.0,0.0,0.0,0.0,0.0,0.0,0.0,0.0,0.0,0.0,0.0,0.0,0.0,0.0,0.0,0.0,0.0,0.0,0.0,0.0,0.0,0.0,0.0,0.0,0.0,0.0,0.0,0.0,0.0,0.0,0.0,0.0,0.0,0.0,0.0,0.0,0.0,0.0,0.0,0.0,0.0,0.0,0.0,0.0,0.0,0.0,0.0,0.0,0.0,0.0,0.0,0.0,0.0,0.0,0.0,0.0,0.0,0.0,0.0,0.0,0.0,0.0,0.0,0.0,0.0,0.0,0.0,0.0,0.0,0.0,0.0,0.0,0.0,0.0,0.0,0.0,0.0,0.0,0.0,0.0,0.0,0.0,0.0,0.0,0.0,0.0,0.0,0.0,0.0,0.0,0.0,0.0,0.0,0.0,0.0,0.0,0.0,0.0,0.0,0.0,0.0,0.0,0.0,0.0,0.0,0.0,0.0,0.0,0.0,0.0,0.0,0.0,0.0,0.0,0.0,0.0,0.0,0.0,0.0,0.0,0.0,0.0,0.0,0.0,0.0,0.0,0.0,0.0,0.0,0.0,0.0,0.0,0.0,0.0,0.0,0.0,0.0,0.0,0.0,0.0,0.0,0.0,0.0,0.0,0.0,0.0,0.0,0.0,0.0,0.0,0.0,0.0,0.0,0.0,0.0,0.0,0.0,0.0,0.0,0.0,0.0,0.0,0.0,0.0,0.0,0.0,0.0,0.0,0.0,0.0,0.0,0.0,0.0,0.0,0.0,0.0,0.0,0.0,0.0,0.0,0.0,0.0,0.0,0.0,0.0,0.0,0.0,0.0,0.0,0.0,0.0,0.0,0.0,0.0,0.0,0.0,0.0,0.0,0.0,0.0,0.0,0.0,0.0,0.0,0.0,0.0,0.0,0.0,0.0,0.0,0.0,0.0,0.0,0.0,0.0,0.0,0.0,0.0,0.0,0.0,0.0,0.0,0.0,0.0,0.0,0.0,0.0,0.0,0.0,0.0,0.0,0.0,0.0,0.0,0.0,0.0,0.0,0.0,0.0,0.0,0.0,0.0,0.0,0.0,0.0,0.0,0.0,0.0,0.0,0.0,0.0,0.0,0.0,0.0,0.0,0.0,0.0,0.0,0.0,0.0,0.0,0.0,0.0,0.0,0.0,0.0,0.0,0.0,0.0,0.0,0.0,0.0,0.0,0.0,0.0,0.0,0.0,0.0,0.0,0.0,0.0,0.0,0.0,0.0,0.0,0.0,0.0,0.0,0.0,0.0,0.0,0.0,0.0,0.0,0.0,0.0,0.0,0.0,0.0,0.0,0.0,0.0,0.0,0.0,0.0,0.0,0.0,0.0,0.0,0.0,0.0,0.0,0.0,0.0,0.0,0.0,0.0,0.0,0.0,0.0,0.0,0.0,0.0,0.0,0.0,0.0,0.0,0.0,0.0,0.0,0.0,0.0,0.0,0.0,0.0,0.0,0.0,0.0,0.0,0.0,0.0,0.0,0.0,0.0,0.0,0.0,0.0,0.0,0.0,0.0,0.0,0.0,0.0,0.0,0.0,0.0,0.0,0.0,0.0,0.0,0.0,0.0,0.0,0.0,0.0,0.0,0.0,0.0,0.0,0.0,0.0,0.0,0.0,0.0,0.0,0.0,0.0,0.0,0.0,0.0,0.0,0.0,0.0,0.0,0.0,0.0,0.0,0.0,0.0,0.0,0.0,0.0,0.0,0.0,0.0,0.0,0.0,0.0,0.0,0.0,0.0,0.0,0.0,0.0,0.0,0.0,0.0,0.0,0.0,0.0,0.0,0.0,0.0,0.0,0.0,0.0,0.0,0.0,0.0,0.0,0.0,0.0,0.0,0.0,0.0,0.0,0.0,0.0,0.0,0.0,0.0,0.0,0.0,0.0,0.0,0.0,0.0,0.0,0.0,0.0,0.0,0.0,0.0,0.0,0.0,0.0,0.0,0.0,0.0,0.0,0.0,0.0,0.0,0.0,0.0,0.0,0.0,0.0,0.0,0.0,0.0,0.0,0.0,0.0,0.0,0.0,0.0,0.0,0.0,0.0,0.0,0.0,0.0,0.0,0.0,0.0,0.0,0.0,0.0,0.0,0.0,0.0,0.0,0.0,0.0,0.0,0.0,0.0,0.0,0.0,0.0,0.0,0.0,0.0,0.0,0.0,0.0,0.0,0.0,0.0,0.0,0.0,0.0,0.0,0.0,0.0,0.0,0.0,0.0,0.0,0.0,0.0,0.0,0.0,0.0,0.0,0.0,0.0,0.0,0.0,0.0,0.0,0.0,0.0,0.0,0.0,0.0,0.0,0.0,0.0,0.0,0.0,0.0,0.0,0.0,0.0,0.0,0.0,0.0,0.0,0.0,0.0,0.0,0.0,0.0,0.0,0.0,0.0,0.0,0.0,0.0,0.0,0.0,0.0,0.0,0.0,0.0,0.0,0.0,0.0,0.0,0.0,0.0,0.0,0.0,0.0,0.0,0.0,0.0,0.0,0.0,0.0,0.0,0.0,0.0,0.0,0.0,0.0,0.0,0.0,0.0,0.0,0.0,0.0,0.0,0.0,0.0,0.0,0.0,0.0,0.0,0.0,0.0,0.0,0.0,0.0,0.0,0.0,0.0,0.0,0.0,0.0,0.0,0.0,0.0,0.0,0.0,0.0,0.0,0.0,0.0,0.0,0.0,0.0,0.0,0.0,0.0,0.0,0.0,0.0,0.0,0.0,0.0,0.0,0.0,0.0,0.0,0.0,0.0,0.0,0.0,0.0,0.0,0.0,0.0,0.0,0.0,0.0,0.0,0.0,0.0,0.0,0.0,0.0,0.0,0.0,0.0,0.0,0.0,0.0,0.0,0.0,0.0,0.0,0.0,0.0,0.0,0.0,0.0,0.0,0.0,0.0,0.0,0.0,0.0,0.0,0.0,0.0,0.0,0.0,0.0,0.0,0.0,0.0,0.0,0.0,0.0,0.0,0.0,0.0,0.0,0.0,0.0,0.0,0.0,0.0,0.0,0.0,0.0,0.0,0.0,0.0,0.0,0.0,0.0,0.0,0.0,0.0,0.0,0.0,0.0,0.0,0.0,0.0,0.0,0.0,0.0,0.0,0.0,0.0,0.0,0.0,0.0,0.0,0.0,0.0,0.0,0.0,0.0,0.0,0.0,0.0,0.0,0.0,0.0,0.0,0.0,0.0,0.0,0.0,0.0,0.0,0.0,0.0,0.0,0.0,0.0,0.0,0.0,0.0,0.0,0.0,0.0,0.0,0.0,0.0,0.0,0.0,0.0,0.0,0.0,0.0,0.0,0.0,0.0,0.0,0.0,0.0,0.0,0.0,0.0,0.0,0.0,0.0,0.0,0.0,0.0,0.0,0.0,0.0,0.0,0.0,0.0,0.0,0.0,0.0,0.0,0.0,0.0,0.0,0.0,0.0,0.0,0.0,0.0,0.0,0.0,0.0,0.0,0.0,0.0,0.0,0.0,0.0,0.0,0.0,0.0,0.0,0.0,0.0,0.0,0.0,0.0,0.0,0.0,0.0,0.0,0.0,0.0,0.0,0.0,0.0,0.0,0.0,0.0,0.0,0.0,0.0,0.0,0.0,0.0,0.0,0.0,0.0,0.0,0.0,0.0,0.0,0.0,0.0,0.0,0.0,0.0,0.0,0.0,0.0,0.0,0.0,0.0,0.0,0.0,0.0,0.0,0.0,0.0,0.0,0.0,0.0,0.0,0.0,0.0,0.0,0.0,0.0,0.0,0.0,0.0,0.0,0.0,0.0,0.0,0.0,0.0,0.0,0.0,0.0,0.0,0.0,0.0,0.0,0.0,0.0,0.0,0.0,0.0,0.0,0.0,0.0,0.0,0.0,0.0,0.0,0.0,0.0,0.0,0.0,0.0,0.0,0.0,0.0,0.0,0.0,0.0,0.0,0.0,0.0,0.0,0.0,0.0,0.0,0.0,0.0,0.0,0.0,0.0,0.0,0.0,0.0,0.0,0.0,0.0,0.0,0.0,0.0,0.0,0.0,0.0,0.0,0.0,0.0,0.0,0.0,0.0,0.0,0.0,0.0,0.0,0.0,0.0,0.0,0.0,0.0,0.0,0.0,0.0,0.0,0.0,0.0,0.0,0.0,0.0,0.0,0.0,0.0,0.0,0.0,0.0,0.0,0.0,0.0,0.0,0.0,0.0,0.0,0.0,0.0,0.0,0.0,0.0,0.0,0.0,0.0,0.0,0.0,0.0,0.0,0.0,0.0,0.0,0.0,0.0,0.0,0.0,0.0,0.0,0.0,0.0,0.0,0.0,0.0,0.0,0.0,0.0,0.0,0.0,0.0,0.0,0.0,0.0,0.0,0.0,0.0,0.0,0.0,0.0,0.0,0.0,0.0,0.0,0.0,0.0,0.0,0.0,0.0,0.0,0.0,0.0,0.0,0.0,0.0,0.0,0.0,0.0,0.0,0.0,0.0,0.0,0.0,0.0,0.0,0.0,0.0,0.0,0.0,0.0,0.0,0.0,0.0,0.0,0.0,0.0,0.0,0.0,0.0,0.0,0.0,0.0,0.0,0.0,0.0,0.0,0.0,0.0,0.0,0.0,0.0,0.0,0.0,0.0,0.0,0.0,0.0,0.0,0.0,0.0,0.0,0.0,0.0,0.0,0.0,0.0,0.0,0.0,0.0,0.0,0.0,0.0,0.0,0.0,0.0,0.0,0.0,0.0,0.0,0.0,0.0,0.0,0.0,0.0,0.0,0.0,0.0,0.0,0.0,0.0,0.0,0.0,0.0,0.0,0.0,0.0,0.0,0.0,0.0,0.0,0.0,0.0,0.0,0.0,0.0,0.0,0.0,0.0,0.0,0.0,0.0,0.0,0.0,0.0,0.0,0.0,0.0,0.0,0.0,0.0,0.0,0.0,0.0,0.0,0.0,0.0,0.0,0.0,0.0,0.0,0.0,0.0,0.0,0.0,0.0,0.0,0.0,0.0,0.0,0.0,0.0,0.0,0.0,0.0,0.0,0.0,0.0,0.0,0.0,0.0,0.0,0.0,0.0,0.0,0.0,0.0,0.0,0.0,0.0,0.0,0.0,0.0,0.0,0.0,0.0,0.0,0.0,0.0,0.0,0.0,0.0,0.0,0.0,0.0,0.0,0.0,0.0,0.0,0.0,0.0,0.0,0.0,0.0,0.0,0.0,0.0,0.0,0.0,0.0,0.0,0.0,0.0,0.0,0.0,0.0,0.0,0.0,0.0,0.0,0.0,0.0,0.0,0.0,0.0,0.0,0.0,0.0,0.0,0.0,0.0,0.0,0.0,0.0,0.0,0.0,0.0,0.0,0.0,0.0,0.0,0.0,0.0,0.0,0.0,0.0,0.0,0.0,0.0,0.0,0.0,0.0,0.0,0.0,0.0,0.0,0.0,0.0,0.0,0.0,0.0,0.0,0.0,0.0,0.0,0.0,0.0,0.0,0.0,0.0,0.0,0.0,0.0,0.0,0.0,0.0,0.0,0.0,0.0,0.0,0.0,0.0,0.0,0.0,0.0,0.0,0.0,0.0,0.0,0.0,0.0,0.0,0.0,0.0,0.0,0.0,0.0,0.0,0.0,0.0,0.0,0.0,0.0,0.0,0.0,0.0,0.0,0.0,0.0,0.0,0.0,0.0,0.0,0.0,0.0,0.0,0.0,0.0,0.0,0.0,0.0,0.0,0.0,0.0,0.0,0.0,0.0,0.0,0.0,0.0,0.0,0.0,0.0,0.0,0.0,0.0,0.0,0.0,0.0,0.0,0.0,0.0,0.0,0.0,0.0,0.0,0.0,0.0,0.0,0.0,0.0,0.0,0.0,0.0,0.0,0.0,0.0,0.0,0.0,0.0,0.0,0.0,0.0,0.0,0.0,0.0,0.0,0.0,0.0,0.0,0.0,0.0,0.0,0.0,0.0,0.0,0.0654,0.0,0.0,0.0,0.0,0.0,0.0,0.0,0.0,0.0,0.0,0.0,0.0,0.0,0.0,0.0,0.0,0.0,0.0,0.0,0.0,0.0,0.0,0.0,0.0,0.0,0.0,0.0,0.0,0.0,0.0,0.0,0.0,0.0,0.0,0.0,0.0,0.0,0.0,0.0,0.0,0.0,0.0,0.0,0.0,0.0,0.0,0.0,0.0,0.0,0.0,0.0,0.0,0.0,0.0,0.0,0.0,0.0,0.0,0.0,0.0,0.0,0.0,0.0,0.0,0.0,0.0,0.0,0.0,0.0,0.0,0.0,0.0,0.0,0.0,0.0,0.0,0.0,0.0,0.0,0.0,0.0,0.0,0.0,0.0,0.0,0.0,0.0,0.0,0.0,0.0,0.0,0.0,0.0,0.0,0.0,0.0,0.0,0.0,0.0,0.0,0.0,0.0,0.0,0.0,0.0,0.0,0.0,0.0,0.0,0.0,0.0,0.0,0.0,0.0,0.0,0.0,0.1696,0.0,0.0,0.0,0.0,0.0,0.0,0.0,0.0,0.0,0.0,0.0,0.0,0.0,0.0,0.0,0.0,0.0,0.0,0.0,0.0,0.0,0.0,0.0,0.0,0.0,0.0,0.0,0.0,0.0,0.0,0.0,0.0,0.0,0.0,0.0,0.0,0.0,0.0,0.0,0.0,0.0,0.0,0.0,0.0,0.0,0.0,0.0,0.0,0.0,0.0,0.0,0.0,0.0,0.0,0.0,0.0,0.0,0.0,0.0,0.0,0.0,0.0,0.0,0.0,0.0,0.0,0.0,0.0,0.0,0.0,0.0,0.0,0.0,0.0,0.0,0.0,0.0,0.0,0.0,0.0,0.0,0.0,0.0,0.0,0.0,0.0,0.0,0.0,0.0,0.0,0.0,0.0,0.0,0.0,0.0,0.0,0.0,0.0,0.0,0.0,0.0,0.0,0.0,0.0,0.0,0.0,0.0,0.0,0.0,1.1802,1.1986,1.181,1.1712,1.1488,0.7242,0.4974,0.424,0.0,0.0,0.0,0.0,0.0,0.0,0.0,0.0,0.0,0.0,0.0,0.0,0.0,0.0,0.0,0.0,0.0,0.0,0.0,0.0,0.0,0.0,0.0,0.0,0.0,0.0,0.0,0.0,0.0,0.0,0.0,0.0,0.0,0.0,0.0,0.0,0.0,0.0,0.0,2.1262,2.2043,2.1141,1.8661,1.2985,0.0,0.0,0.0,0.0,0.0,0.0,0.0,0.0,0.0,0.0,0.0,0.0,0.0,0.0,0.0,0.0,0.0,0.0,0.0,0.0,0.0,0.0,0.0,0.0,0.0,0.0,0.0,0.0,0.0,0.0,0.0,0.0,0.0,0.0,0.0,0.0,0.0,0.0,0.0,0.0,0.0,0.0,0.0,1.3435,1.2553,0.0,0.0,0.0,0.0,0.0,0.0,0.0,0.0,0.0,0.0,0.0,0.0,0.0,0.0,1.603,1.6834,1.705,1.6717,1.752,1.7762,1.7499,1.6154,1.5507,1.5394,1.3424,0.0,0.8155,0.6461,0.0,0.0,0.0,0.0,0.0,0.0,0.0,0.0,0.0,0.0,0.0,0.0,0.0,0.0,0.0,0.0,0.0,0.0,0.0,0.0,0.0,0.0,0.0,0.0,0.0,0.0,0.0,0.0,0.0,0.0,0.0,0.0,0.0,0.0,0.0,0.0,2.6596,2.7129,2.7157,2.7171,2.6505,2.5157,2.2051,1.7574,1.2167,1.0251,0.0,0.0,0.0,0.0,0.0,0.0,0.0,0.0,0.0,0.0,0.0,0.0,0.0,0.0,0.0,0.0,0.0,0.0,0.0,0.0,0.0,0.0,0.0,0.0,0.0,0.0,0.0,0.0,0.0,0.0,0.0,0.0,0.0,0.0,0.0,0.0,0.0,0.0,0.0,1.4768,1.493,1.3785,1.3103,1.2232,0.0,0.0,0.0,0.0,0.0,0.0,0.0,0.0,0.0,1.8569,1.8828,1.936,2.0262,2.0316,1.988,1.9032,1.8828,1.8572,1.8321,1.761,1.7352,1.7243,1.6454,1.5296,1.3714,1.1028,0.9807,0.9674,0.0,0.0,0.0,0.0,0.0,0.8614,0.0,0.0,0.0,0.0,0.0,0.0,0.0,0.0,0.0,0.0,0.0,0.0,0.0,0.0,0.0,2.1849,0.0,0.0,0.0,0.0,0.0,0.0,0.0,0.0,0.0,0.0,0.0,2.9766,3.1028,3.1871,3.2361,3.1932,3.111,3.0037,2.9665,2.5162,1.7765,1.5912,1.3148,0.0,0.0,0.0,0.0,0.0,0.0,0.0,0.0,0.0,0.0,0.0,0.0,0.0,0.0,0.0,0.0,0.0,0.0,0.0,0.0,0.0,0.0,0.0,0.0,0.0,0.0,0.0,0.0,0.0,0.0,0.0,0.0,0.0,0.0,0.0,0.0,0.0,0.0,1.6596,1.7214,1.5788,1.6184,1.6039,0.0,0.0,0.0,0.0,0.0,0.0,2.0329,2.0239,2.1007,2.295,2.31,2.3327,2.3837,2.314,2.2421,2.1467,2.0504,1.9822,1.9493,1.9396,1.9141,1.8793,1.8508,1.8293,1.7934,1.4851,1.3498,1.3295,1.265,1.2109,1.1725,1.2029,1.1963,1.1537,0.0,0.0,0.0,0.0,0.0,0.0,0.0,0.0,0.0,0.0,0.0,0.0,0.0,0.0,2.4714,2.5183,2.4821,2.3945,0.0,0.0,0.0,0.0,0.0,0.0,0.0,0.0,0.0,3.3264,3.4794,3.5394,3.5223,3.5813,3.5205,3.3532,3.3503,2.9907,2.3711,2.1039,1.8626,1.6111,0.0,0.0,0.0,0.0,0.0,0.0,0.0,0.0,0.0,0.0,0.0,0.0,0.0,0.0,0.0,0.0,0.0,0.0,0.0,0.0,0.0,0.0,0.0,0.0,0.0,0.0,0.0,0.0,0.0,0.0,0.0,0.0,0.0,0.0,0.0,0.0,0.0,0.0,0.0,1.9809,2.1322,0.0,0.0,0.0,0.0,2.1725,2.1699,2.278,2.5563,2.4896,2.5153,2.6823,2.6039,2.5833,2.6349,2.5739,2.5344,2.5333,2.4711,2.3939,2.306,2.2635,2.1754,2.044,2.0013,1.9597,1.9043,1.6676,1.5667,1.5551,1.4554,1.3915,1.3465,1.349,1.3418,1.3148,0.0,0.0,0.0,0.0,0.0,0.0,0.0,0.0,0.0,0.0,0.0,0.0,0.0,2.5812,2.7437,2.7186,2.7656,2.7331,2.5832,0.0,0.0,0.0,0.0,0.0,0.0,0.0,3.4777,3.7426,3.7573,3.7599,3.7538,3.7383,3.6754,3.5704,3.6152,3.4781,3.1801,2.8,2.4369,2.0905,1.7469,1.4758,0.0,0.0,0.0,0.0,0.0,0.0,0.0,0.0,0.0,0.0,0.0,0.0,0.0,0.0,0.0,0.0,0.0,0.0,0.0,0.0,0.0,0.0,0.0,0.0,0.0,0.0,0.0,0.0,0.0,0.0,0.0,0.0,0.0,0.0,0.0,0.0,0.0,2.3905,2.5038,0.0,0.0,2.3567,2.4429,2.6145,2.6299,2.7364,2.9672,2.9429,2.9701,3.0665,2.9387,2.8838,2.9025,2.7138,2.5872,2.5222,2.4269,2.3323,2.2353,2.2263,2.1883,2.1434,2.1264,2.1094,2.0903,1.9751,1.8605,1.7509,1.6633,1.6011,1.5586,1.5586,1.5411,1.5022,0.0,0.0,0.0,0.0,0.0,0.0,0.0,0.0,0.0,0.0,0.0,2.5298,2.5496,2.8353,3.0068,2.9612,3.0036,2.9553,2.7767,0.0,0.0,0.0,0.0,0.0,0.0,3.5019,3.7217,3.9569,3.9399,3.9198,3.8912,3.8539,3.7961,3.7239,3.7715,3.7339,3.618,3.3436,2.9896,2.5874,2.3048,2.0431,1.7917,0.0,0.0,0.0,0.0,0.0,0.0,0.0,0.0,0.0,0.0,0.0,0.0,0.0,0.0,0.0,0.0,0.0,0.0,0.0,0.0,0.0,0.0,0.0,0.0,0.0,0.0,0.0,0.0,0.0,0.0,0.0,0.0,0.0,0.0,0.0,2.7734,2.7685,2.9022,2.9458,2.8254,2.8559,2.938,3.0802,3.1008,3.1782,3.3316,3.3128,3.2987,3.3121,3.1654,3.0699,3.0472,2.8382,2.6914,2.6258,2.5071,2.4038,2.3117,2.2873,2.2455,2.2014,2.1789,2.1475,2.1141,2.0818,1.9943,1.8649,1.8287,1.781,1.7216,1.7216,1.698,1.6483,0.0,0.0,0.0,0.0,0.0,0.0,0.0,0.0,0.0,0.0,2.5816,2.7414,2.8887,3.108,3.2446,3.2446,3.1703,3.0287,2.8096,2.6606,0.0,0.0,0.0,0.0,3.4143,3.6915,3.875,3.9575,4.0265,4.02,3.9398,3.9416,3.9,3.8207,3.8242,3.7572,3.6469,3.7176,3.5181,3.1291,2.8293,2.5952,2.3907,0.0,0.0,0.0,0.0,0.0,0.0,0.0,0.0,0.0,0.0,0.0,0.0,0.0,0.0,0.0,0.0,0.0,0.0,0.0,0.0,0.0,0.0,0.0,0.0,0.0,0.0,0.0,0.0,0.0,0.0,0.0,0.0,0.0,2.7029,3.0107,3.2129,3.1114,3.338,3.4471,3.3159,3.3775,3.4653,3.5608,3.5587,3.5836,3.6599,3.5763,3.4971,3.4235,3.2611,3.1423,3.0594,2.9398,2.8779,2.8724,2.7556,2.6472,2.5598,2.4786,2.3646,2.2372,2.1601,2.0691,1.9817,1.9829,1.9476,1.8992,1.9471,1.9081,1.8315,1.8282,1.7958,1.74,0.0,0.0,0.0,0.0,0.0,0.0,0.0,0.0,0.0,0.0,2.6358,2.7604,2.7852,2.9908,3.1267,3.1267,2.9966,2.9061,2.8925,0.0,0.0,0.0,0.0,0.0,3.6211,3.822,3.9926,4.1322,4.112,4.0504,3.9543,3.9625,3.9171,3.8286,3.8831,3.8874,3.8556,3.8764,3.7872,3.6059,3.3161,3.1106,2.959,0.0,0.0,0.0,0.0,0.0,0.0,0.0,0.0,0.0,0.0,0.0,0.0,0.0,0.0,0.0,0.0,0.0,0.0,0.0,0.0,0.0,0.0,0.0,0.0,0.0,0.0,0.0,0.0,0.0,0.0,0.0,0.0,3.2757,3.1319,3.3263,3.5118,3.5783,3.6569,3.6853,3.6501,3.6669,3.69,3.7155,3.7181,3.7038,3.6695,3.6457,3.5979,3.5222,3.371,3.2287,3.1143,2.9674,2.8254,2.6909,2.6579,2.6065,2.5429,2.4741,2.4446,2.4474,2.2802,2.2178,2.2286,2.142,2.0738,2.0084,1.9068,1.855,1.8237,1.7456,1.6888,1.6391,0.0,0.0,0.0,0.0,0.0,0.0,0.0,0.0,0.0,0.0,2.6895,2.8122,2.8281,2.983,3.0846,3.0846,2.9315,2.8363,2.8409,0.0,0.0,0.0,0.0,3.5109,3.6449,3.8328,3.9578,4.0113,4.0365,3.9991,3.9055,3.9497,3.9213,3.8332,3.9134,3.9179,3.8703,3.9372,3.9171,3.8281,3.6899,3.5381,3.3738,3.2351,3.0689,2.8906,2.8308,2.7214,2.5772,2.3595,0.0,0.0,0.0,0.0,0.0,0.0,0.0,0.0,0.0,0.0,0.0,0.0,0.0,0.0,0.0,0.0,0.0,0.0,0.0,0.0,0.0,0.0,0.0,0.0,3.3972,3.622,3.5762,3.6798,3.7765,3.8269,3.8281,3.8166,3.7871,3.7838,3.7714,3.7371,3.766,3.7535,3.6756,3.6747,3.6388,3.5667,3.4174,3.2851,3.1813,3.0063,2.863,2.7578,2.6763,2.6226,2.5854,2.4888,2.4647,0.0,2.3445,2.2937,2.3004,2.2247,2.1471,0.0,0.0,0.0,0.0,0.0,1.6892,1.6184,0.0,0.0,0.0,0.0,0.0,0.0,0.0,0.0,0.0,0.0,0.0,2.8412,2.9147,2.9981,3.049,3.049,2.9041,2.7905,0.0,0.0,0.0,3.0928,3.4023,3.5733,3.5747,3.7777,3.8412,3.7594,3.8779,3.8953,3.8275,3.9006,3.9003,3.8376,3.9109,3.885,3.7932,3.9359,3.9497,3.8878,3.9588,3.8708,3.6854,3.64,3.5235,3.3674,3.2953,3.1498,2.9759,2.8943,0.0,0.0,0.0,0.0,0.0,0.0,0.0,0.0,0.0,0.0,0.0,0.0,0.0,0.0,0.0,0.0,0.0,0.0,0.0,0.0,0.0,0.0,0.0,0.0,3.7411,3.9,3.9886,4.0048,3.9798,3.9073,3.892,3.8616,3.7973,3.7905,3.7614,3.6885,3.7433,3.7398,3.6621,0.0,0.0,0.0,0.0,3.3172,3.2496,3.0572,2.9461,2.9221,2.7443,2.6579,2.6452,2.5126,2.4558,2.4566,2.3713,2.3078,2.2685,2.2511,2.1667,2.0518,1.9965,1.9359,1.8781,1.8292,1.739,0.0,0.0,0.0,0.0,0.0,0.0,0.0,0.0,0.0,0.0,2.5563,2.6143,2.6643,2.6905,2.7517,2.7911,2.7911,2.7089,2.688,0.0,0.0,3.1125,3.2647,3.473,3.6123,3.6725,3.7849,3.8326,3.8152,3.8298,3.8207,3.7891,3.7903,3.8118,3.8459,3.8515,3.8799,3.9223,3.9561,3.9583,3.9495,4.0285,4.0258,3.9774,3.9678,3.943,3.8986,3.7862,3.7151,3.6292,3.3552,3.2555,3.2269,3.0876,0.0,0.0,0.0,0.0,0.0,0.0,0.0,0.0,0.0,0.0,0.0,0.0,0.0,0.0,0.0,0.0,0.0,0.0,0.0,0.0,3.7595,3.923,4.0518,4.1311,4.0523,3.9633,3.9054,3.8464,3.8075,3.7922,3.7905,3.7858,3.7679,3.7283,3.6658,3.5879,3.5245,0.0,3.4734,3.3876,3.3144,3.2528,3.0952,2.9399,2.7891,0.0,0.0,2.5779,2.4967,2.486,2.529,2.3594,2.3083,2.3369,2.1788,2.0402,1.9249,1.9182,1.8568,1.7689,1.7576,1.7085,1.6486,0.0,0.0,0.0,0.0,0.0,0.0,0.0,0.0,0.0,0.0,2.6052,2.6476,2.6536,2.6802,2.6955,2.6955,2.6606,0.0,0.0,3.0411,3.2204,3.388,3.5237,3.6105,3.6445,3.6883,3.7079,3.7,3.7372,3.7714,3.8054,3.7943,3.8325,3.9039,3.8979,3.9185,3.9642,4.0504,4.072,4.0615,4.1474,4.1606,4.1342,4.127,4.1082,4.08,4.0446,3.9976,3.9361,3.7736,3.6949,3.6476,3.5104,3.4202,3.3228,0.0,0.0,0.0,0.0,0.0,0.0,0.0,0.0,0.0,0.0,0.0,0.0,0.0,0.0,3.3752,0.0,0.0,3.8007,4.0077,4.0998,4.1517,4.1604,4.0495,3.9573,3.9302,3.7769,3.6695,3.66,3.6021,3.5656,3.5656,3.5301,3.4912,3.4539,3.415,3.3947,3.3947,3.322,3.2521,3.1842,3.0477,2.8939,2.7375,2.6655,2.5682,2.4582,2.4197,2.3867,2.3566,2.2625,2.2394,2.26,2.1311,2.0232,1.9376,1.9083,1.8273,1.7316,1.7024,1.6773,1.6522,0.0,0.0,0.0,0.0,0.0,0.0,0.0,0.0,0.0,0.0,2.6121,2.6548,2.6548,2.6501,2.6459,0.0,0.0,0.0,0.0,3.1296,3.304,3.4629,3.5527,3.5957,3.5906,3.587,3.5804,3.5693,3.6397,3.7079,3.7795,3.7779,3.8221,3.9087,3.924,3.9481,3.9903,4.1247,4.1743,4.1649,4.2203,4.2272,4.2052,4.1875,4.1595,4.1306,4.1518,4.1067,4.0377,4.0366,3.9871,3.9095,3.8302,3.7953,3.7227,3.3785,3.3223,0.0,0.0,0.0,0.0,0.0,0.0,0.0,0.0,0.0,3.388,3.6,3.6552,3.7122,3.8655,3.8966,3.9745,4.2024,4.2154,4.1832,4.1337,3.9943,3.9009,3.9089,3.698,3.5412,3.5094,3.4127,3.3422,3.3203,3.3051,3.2916,3.278,3.2763,3.2831,3.2966,3.2256,3.1647,3.119,2.9532,2.8148,2.7042,2.6165,2.4854,2.336,2.3247,2.2646,2.1695,2.1695,2.162,2.1461,2.0907,2.0367,1.9817,1.9164,1.8331,1.7394,1.6837,1.6595,1.6522,0.0,0.0,0.0,0.0,0.0,0.0,0.0,0.0,0.0,0.0,0.0,0.0,0.0,0.0,0.0,0.0,0.0,0.0,2.9511,3.1894,3.3691,3.4668,3.5476,3.5913,3.5896,3.5778,3.5713,3.5699,3.5731,3.5848,3.5997,3.5876,3.6309,3.7239,3.789,3.9069,4.0589,4.0788,4.1311,4.1974,4.1313,4.1429,4.1981,4.1598,4.1629,4.179,4.1084,4.0315,3.9599,3.954,3.9001,3.8462,3.9041,3.9247,3.8642,3.5447,0.0,3.4023,3.0857,3.0712,3.1915,3.3793,3.3933,3.4921,0.0,0.0,3.8787,4.0818,4.18,4.2184,4.1889,4.2014,4.2298,4.2607,4.1647,4.0846,4.0788,3.8485,3.7031,3.7476,3.6177,3.4996,3.4276,3.4098,3.3573,3.25,3.1816,3.1157,3.0514,3.048,3.0784,3.1427,3.0734,3.0615,3.119,2.8397,2.6701,2.6118,2.4671,2.3446,2.2455,2.2416,2.214,2.1695,2.1695,2.1365,2.0827,2.0735,2.0333,1.967,1.9121,1.8553,1.7947,1.7435,1.6909,1.6522,0.0,0.0,0.0,0.0,0.0,0.0,0.0,0.0,0.0,0.0,0.0,0.0,0.0,0.0,0.0,0.0,0.0,0.0,2.9445,3.1007,3.2465,3.3773,3.414,3.4574,3.5076,3.5028,3.5224,3.5703,3.5663,3.5936,3.643,3.589,3.6372,3.7722,3.8029,3.8873,4.012,4.1094,4.1738,4.2116,4.2252,4.2181,4.1931,4.1254,4.0351,3.9456,3.9695,3.9838,0.0,0.0,3.8395,3.8489,3.8491,3.8402,3.7819,3.5232,3.504,0.0,3.4887,3.475,0.0,0.0,3.8164,3.9305,4.1653,4.1329,4.1034,4.281,4.3295,4.3208,4.265,4.2629,4.2577,0.0,4.1362,4.0247,3.903,3.7504,3.5889,3.423,3.3552,3.3104,3.2867,3.1812,3.0912,3.0417,3.0074,2.977,2.9465,2.9448,2.9583,2.9905,2.9617,2.9178,2.8586,2.7317,2.6,2.4676,2.4298,2.3307,2.1734,2.2043,2.1569,2.0528,2.0528,2.0363,2.0124,2.0124,1.9944,1.969,1.9442,1.8855,1.8027,1.7504,1.6951,1.6522,0.0,0.0,0.0,0.0,0.0,0.0,0.0,0.0,0.0,0.0,0.0,0.0,0.0,0.0,0.0,0.0,0.0,0.0,0.0,3.0017,3.1289,3.2453,3.3148,3.3808,3.4431,3.4653,3.5027,3.5534,3.5534,3.5824,3.6346,3.5716,3.6104,3.7325,3.7547,3.8306,3.9519,4.0723,4.1598,4.2186,4.2576,4.2303,4.1554,4.0378,3.8838,3.7354,3.7995,3.8245,0.0,0.0,3.6822,3.7106,3.693,3.6945,3.6648,3.484,3.4898,3.5745,3.6785,0.0,0.0,3.9589,4.1264,4.254,4.2839,4.2674,4.2754,4.3932,4.3767,4.3193,4.25,4.2099,0.0,4.1321,4.0141,3.8799,3.7266,3.5788,3.3987,3.1645,3.0851,3.06,3.0842,2.9638,2.8796,2.867,2.8467,2.8264,2.8061,2.8433,2.8467,2.8061,2.8247,2.7723,2.6404,2.5981,2.5059,2.3635,2.3799,2.2945,2.1217,2.1355,2.0794,1.969,1.969,1.969,1.969,1.969,1.969,1.969,1.953,1.8893,1.8027,1.7504,1.6951,1.6522,0.0,0.0,0.0,0.0,0.0,0.0,0.0,0.0,0.0,0.0,0.0,0.0,0.0,0.0,0.0,0.0,0.0,0.0,0.0,2.9279,3.072,3.0778,3.3028,3.4284,3.4304,3.5058,3.5345,3.5119,3.5119,3.4999,3.4773,3.4734,3.4753,3.4849,3.5625,3.7107,3.9017,3.9066,4.0334,4.221,4.141,4.0974,4.063,3.8791,3.7392,3.6396,3.6101,0.0,0.0,0.0,3.3794,3.3338,3.4292,3.5127,0.0,3.4814,3.4112,0.0,0.0,0.0,3.7814,4.0406,4.2161,4.3567,4.4744,4.4749,4.4523,4.458,4.3855,4.288,4.1741,4.0642,3.9874,3.9874,3.7618,3.5877,3.5926,3.2898,3.0663,3.0537,2.86,2.7519,0.0,2.8406,2.8335,2.7893,2.7182,2.6454,2.5744,2.708,2.7199,2.5761,2.6404,2.6404,2.5642,2.4205,2.3477,2.338,2.2716,2.1906,2.0991,2.0135,1.9741,1.969,1.969,1.969,1.969,1.969,1.969,1.9639,1.9132,1.8574,1.8027,1.7504,1.6951,1.6522,0.0,0.0,0.0,0.0,0.0,0.0,0.0,0.0,0.0,0.0,0.0,0.0,0.0,0.0,0.0,0.0,0.0,0.0,0.0,2.7569,2.8516,2.9583,3.0423,3.1561,3.3067,3.3359,3.3925,3.4832,3.5362,3.5303,3.4713,3.526,3.5222,3.4732,3.5545,3.6574,3.7738,3.7978,3.8882,4.0129,3.9461,3.9178,3.8867,3.642,3.5053,3.4206,0.0,0.0,0.0,3.1312,3.1551,3.2303,3.2763,0.0,3.2486,3.2275,3.2978,3.4276,0.0,0.0,4.0916,4.2869,4.4168,4.503,4.5361,4.4988,4.458,4.458,4.2092,3.9652,3.8869,3.7703,3.6928,3.7011,3.6675,3.6114,3.5247,3.3625,3.1602,2.9307,2.9127,0.0,0.0,0.0,0.0,2.7046,2.5913,2.5338,2.5592,2.5609,2.5372,2.4881,2.5101,2.4881,2.4154,2.3646,2.3156,2.2665,2.2103,2.1538,2.0959,2.0364,1.9929,1.969,1.969,1.9479,1.9169,1.9169,1.8968,1.8612,1.8458,1.8027,1.7544,1.7394,1.676,1.6019,0.0,0.0,0.0,0.0,0.0,0.0,0.0,0.0,0.0,0.0,0.0,0.0,0.0,0.0,0.0,0.0,0.0,0.0,0.0,0.0,2.6913,2.7962,2.8594,2.9598,3.108,3.1404,3.1951,3.2822,3.3489,3.3493,3.2896,3.3857,3.3883,3.3165,3.3944,3.4889,3.5908,3.5907,3.6632,3.7691,3.7121,3.6736,3.6241,3.4068,3.2808,0.0,0.0,0.0,0.0,2.9737,3.0,3.0733,3.1311,3.1381,3.1293,3.1611,3.3082,3.5242,3.8176,4.0505,4.2582,4.4558,4.5448,4.5692,4.5291,4.4645,4.4058,4.3768,4.0603,3.7683,3.6987,3.5469,3.4226,3.4041,3.4028,3.3879,3.3578,3.2187,3.0697,2.9259,2.9323,0.0,0.0,0.0,0.0,2.6657,2.5321,2.4726,2.5169,2.4746,2.4269,2.3714,2.3951,2.3748,2.3004,2.3004,2.2784,2.2282,2.144,2.0902,2.0607,1.9743,1.9353,1.9331,1.9331,1.9148,1.8893,1.8893,1.8574,1.8066,1.7907,1.7585,1.7244,1.6664,1.6039,1.5509,0.0,0.0,0.0,0.0,0.0,0.0,0.0,0.0,0.0,0.0,0.0,0.0,0.0,0.0,0.0,0.0,0.0,0.0,0.0,0.0,0.0,2.5959,2.7554,2.8477,2.8537,2.929,2.9549,2.9339,2.9824,2.9862,2.9512,3.0713,3.0831,3.014,3.0849,3.2013,3.3442,3.2906,3.3596,3.5039,3.4444,3.3769,3.2999,3.1826,0.0,0.0,0.0,0.0,0.0,0.0,0.0,0.0,0.0,3.1274,3.2144,3.2918,3.4433,3.6618,3.9939,4.1483,4.2792,4.534,4.5821,4.5461,4.4615,4.3771,4.2944,4.2121,3.9331,3.6789,0.0,0.0,3.2032,3.1382,3.0249,2.9963,3.1467,2.9302,2.8334,0.0,0.0,0.0,0.0,0.0,0.0,2.6708,0.0,2.4472,2.4506,2.4438,2.3748,2.2344,2.2987,2.3004,2.231,2.2276,2.2215,2.2169,2.0708,1.9947,1.9871,1.8389,1.8074,1.8668,1.8668,1.8714,1.876,1.8803,1.8468,1.7892,1.7409,1.7162,1.6946,1.5512,1.4929,1.4911,0.0,0.0,0.0,0.0,0.0,0.0,0.0,0.0,0.0,0.0,0.0,0.0,0.0,0.0,0.0,0.0,0.0,0.0,0.0,0.0,0.0,0.0,0.0,0.0,0.0,0.0,0.0,2.8428,2.9151,2.8971,2.7982,2.8893,2.871,2.7712,2.7903,2.8823,3.0252,2.9906,3.0655,3.2077,0.0,3.1799,3.1964,0.0,0.0,0.0,0.0,0.0,0.0,0.0,0.0,0.0,0.0,3.4528,3.4674,3.494,3.665,3.8674,3.9719,4.1579,4.3372,4.4078,4.4124,4.3878,4.3357,4.2335,4.1216,4.0158,3.6499,3.3244,0.0,0.0,0.0,3.2383,3.4082,0.0,3.5402,3.3839,0.0,0.0,0.0,2.9872,2.826,2.8518,0.0,0.0,2.4814,2.39,2.4472,2.346,2.2699,2.2327,2.2496,2.2496,2.231,2.1752,2.1339,2.1038,2.008,1.9325,1.8794,1.8408,1.8175,1.81,1.81,1.7738,1.7124,1.7517,1.6872,1.5686,1.5954,1.5567,1.4877,1.4448,1.3857,1.3231,0.0,0.0,0.0,0.0,0.0,0.0,0.0,0.0,0.0,0.0,0.0,0.0,0.0,0.0,0.0,0.0,0.0,0.0,0.0,0.0,0.0,0.0,0.0,0.0,0.0,0.0,0.0,0.0,0.0,0.0,2.5582,2.6341,2.6167,2.5246,2.5564,2.6473,2.7748,2.7366,0.0,0.0,0.0,0.0,0.0,0.0,0.0,0.0,0.0,0.0,0.0,0.0,0.0,3.567,3.6165,3.6279,3.6211,3.62,0.0,3.8953,3.9519,4.0978,4.2381,4.2446,4.2266,4.1722,4.0389,3.93,3.8193,3.6801,3.3592,0.0,0.0,0.0,0.0,0.0,0.0,0.0,3.5052,3.3684,3.2523,0.0,3.1374,0.0,2.8627,2.8492,2.7856,0.0,2.4931,2.4245,2.4489,2.3105,2.231,2.231,2.231,2.231,2.231,2.1395,2.0827,2.0582,1.9223,1.8374,1.7955,1.7469,1.7223,1.7102,0.0,1.7107,1.6507,1.6611,1.6045,1.5116,1.4767,1.4416,1.4023,1.3373,1.2792,1.22,0.0,0.0,0.0,0.0,0.0,0.0,0.0,0.0,0.0,0.0,0.0,0.0,0.0,0.0,0.0,0.0,0.0,0.0,0.0,0.0,0.0,0.0,0.0,0.0,0.0,0.0,0.0,0.0,0.0,0.0,0.0,0.0,0.0,0.0,0.0,0.0,0.0,0.0,0.0,0.0,0.0,0.0,0.0,0.0,0.0,0.0,0.0,0.0,0.0,0.0,3.8096,3.763,3.7695,3.7611,3.7477,3.7238,3.7602,3.8302,3.9198,3.9857,4.032,4.042,4.0035,3.9011,3.664,3.5496,3.4479,3.2794,0.0,2.9566,3.0089,0.0,2.9195,2.9485,0.0,3.0855,3.3087,3.1756,3.119,3.2981,3.1365,2.9773,2.8934,2.7841,2.6739,2.5603,2.5183,2.4781,2.4371,2.3054,2.231,2.231,2.2226,2.2158,2.2158,2.0933,2.0289,2.0216,1.8206,1.721,1.7065,1.6111,1.577,1.5937,0.0,0.0,1.6075,1.5796,1.5475,1.4978,1.3754,1.3424,1.3507,1.2221,1.173,1.1535,0.0,0.0,0.0,0.0,0.0,0.0,0.0,0.0,0.0,0.0,0.0,0.0,0.0,0.0,0.0,0.0,0.0,0.0,0.0,0.0,0.0,0.0,0.0,0.0,0.0,0.0,0.0,0.0,0.0,0.0,0.0,0.0,0.0,0.0,0.0,0.0,0.0,0.0,0.0,0.0,0.0,0.0,0.0,0.0,0.0,0.0,0.0,0.0,0.0,0.0,3.9263,4.0444,4.1164,4.0842,4.0085,3.9326,3.8627,3.817,3.8525,3.8135,3.7634,3.755,3.659,3.5304,3.379,3.2523,0.0,0.0,0.0,2.7932,2.6738,2.7994,0.0,3.1116,0.0,0.0,0.0,0.0,3.2632,0.0,0.0,0.0,0.0,0.0,0.0,0.0,0.0,0.0,2.3608,2.2784,2.231,2.231,2.1701,2.138,2.138,1.9667,1.8641,1.8356,1.7078,1.6133,1.549,1.5298,1.5121,1.4962,0.0,0.0,1.3909,1.4785,1.4064,1.2419,1.2561,1.2173,1.1437,1.1163,1.0845,1.0537,0.0,0.0,0.0,0.0,0.0,0.0,0.0,0.0,0.0,0.0,0.0,0.0,0.0,0.0,0.0,0.0,0.0,0.0,0.0,0.0,0.0,0.0,0.0,0.0,0.0,0.0,0.0,0.0,0.0,0.0,0.0,0.0,0.0,0.0,0.0,0.0,0.0,0.0,0.0,0.0,0.0,0.0,0.0,0.0,0.0,0.0,0.0,0.0,0.0,0.0,3.7973,3.9322,4.108,4.131,4.0596,3.8785,3.7557,3.6742,3.6456,3.5586,3.4644,3.4119,3.3264,3.2009,2.9927,0.0,0.0,0.0,0.0,2.6606,2.6269,0.0,0.0,0.0,0.0,0.0,0.0,0.0,0.0,0.0,0.0,0.0,0.0,0.0,0.0,0.0,0.0,0.0,2.3405,2.2699,2.218,2.1928,2.1239,2.08,2.0574,1.8767,1.7812,1.763,1.6298,1.5477,1.5104,1.4876,1.4589,1.4317,1.4862,0.0,1.3317,1.3619,1.3114,1.2088,1.1552,1.1175,1.0879,1.0664,1.0459,1.0283,0.0,0.0,0.0,0.0,0.0,0.0,0.0,0.0,0.0,0.0,0.0,0.0,0.0,0.0,0.0,0.0,0.0,0.0,0.0,0.0,0.0,0.0,0.0,0.0,0.0,0.0,0.0,0.0,0.0,0.0,0.0,0.0,0.0,0.0,0.0,0.0,0.0,0.0,0.0,0.0,0.0,0.0,0.0,0.0,0.0,0.0,0.0,0.0,0.0,0.0,3.5597,3.6302,3.8436,3.9448,3.9351,3.6884,3.56,3.4835,3.4194,3.3064,3.1884,3.1046,3.0224,2.8985,2.6419,2.5663,0.0,0.0,2.4979,2.5261,2.5956,0.0,0.0,0.0,0.0,0.0,0.0,0.0,0.0,0.0,0.0,0.0,0.0,0.0,0.0,0.0,0.0,0.0,2.3151,2.2615,2.2022,2.1398,2.0718,2.0115,1.9562,1.7956,1.7145,1.7145,1.5773,1.5043,1.4968,1.4564,1.4149,1.3775,1.4337,0.0,0.0,1.2689,1.2352,1.1913,1.0736,1.0478,1.0732,1.04,1.0283,1.0283,0.0,0.0,0.0,0.0,0.0,0.0,0.0,0.0,0.0,0.0,0.0,0.0,0.0,0.0,0.0,0.0,0.0,0.0,0.0,0.0,0.0,0.0,0.0,0.0,0.0,0.0,0.0,0.0,0.0,0.0,0.0,0.0,0.0,0.0,0.0,0.0,0.0,0.0,0.0,0.0,0.0,0.0,0.0,0.0,0.0,0.0,0.0,0.0,0.0,0.0,0.0,3.1961,3.2701,3.4386,3.5753,3.3981,0.0,0.0,3.258,3.1317,2.9889,2.9214,2.7773,2.6058,2.4342,0.0,0.0,2.3086,2.3308,2.3612,2.3697,2.3765,2.4271,0.0,0.0,0.0,0.0,0.0,0.0,0.0,0.0,0.0,0.0,0.0,0.0,0.0,0.0,0.0,0.0,2.2344,2.1804,2.073,1.9987,1.9116,1.8086,1.6972,1.6394,1.6394,1.5507,1.4907,1.4533,1.4149,1.3715,1.3292,0.0,0.0,0.0,1.24,1.1765,1.0508,1.0351,1.0303,1.0332,1.0293,1.0283,1.0235,0.0,0.0,0.0,0.0,0.0,0.0,0.0,0.0,0.0,0.0,0.0,0.0,0.0,0.0,0.0,0.0,0.0,0.0,0.0,0.0,0.0,0.0,0.0,0.0,0.0,0.0,0.0,0.0,0.0,0.0,0.0,0.0,0.0,0.0,0.0,0.0,0.0,0.0,0.0,0.0,0.0,0.0,0.0,0.0,0.0,0.0,0.0,0.0,0.0,0.0,0.0,0.0,2.7708,2.8514,0.0,0.0,3.1207,3.0669,3.0769,2.9349,2.7629,2.6853,2.5438,2.3967,2.3023,0.0,0.0,2.2345,2.2683,2.2995,2.2995,2.321,2.3444,2.3596,0.0,0.0,0.0,0.0,0.0,0.0,0.0,0.0,0.0,0.0,0.0,0.0,0.0,0.0,0.0,2.1634,2.1217,2.0251,1.913,1.8111,1.7192,1.6388,1.6011,1.5983,1.515,1.4658,1.447,1.3802,1.3207,1.2803,0.0,0.0,0.0,1.1562,1.112,1.0283,1.0283,1.0283,1.0283,1.0283,1.0079,0.9804,0.0,0.0,0.0,0.0,0.0,0.0,0.0,0.0,0.0,0.0,0.0,0.0,0.0,0.0,0.0,0.0,0.0,0.0,0.0,0.0,0.0,0.0,0.0,0.0,0.0,0.0,0.0,0.0,0.0,0.0,0.0,0.0,0.0,0.0,0.0,0.0,0.0,0.0,0.0,0.0,0.0,0.0,0.0,0.0,0.0,0.0,0.0,0.0,0.0,0.0,0.0,0.0,0.0,0.0,0.0,0.0,2.8349,2.7974,2.8105,2.6813,2.5296,2.4563,2.3366,2.2207,0.0,0.0,2.0987,2.1572,2.184,2.2085,2.2458,2.2628,2.2528,2.1999,0.0,2.3113,0.0,0.0,0.0,0.0,0.0,0.0,0.0,0.0,0.0,0.0,0.0,0.0,0.0,2.0488,2.0069,1.9386,1.8323,1.7327,1.6428,1.5862,1.558,1.558,1.4721,1.431,1.431,1.3547,1.2943,1.2508,0.0,0.0,0.0,1.1019,1.0725,1.0283,1.0283,1.0283,1.0283,1.0283,1.004,0.9677,0.0,0.0,0.0,0.0,0.0,0.0,0.0,0.0,0.0,0.0,0.0,0.0,0.0,0.0,0.0,0.0,0.0,0.0,0.0,0.0,0.0,0.0,0.0,0.0,0.0,0.0,0.0,1.673,1.4619,0.0,0.0,0.0,0.0,0.0,0.0,0.0,0.0,0.0,0.0,0.0,0.0,0.0,0.0,0.0,0.0,0.0,0.0,0.0,0.0,0.0,0.0,0.0,0.0,2.2013,2.1494,0.0,2.4279,2.4694,2.4357,2.3658,2.297,2.26,2.1702,2.0765,0.0,0.0,1.9895,2.0595,2.0472,2.0608,2.1871,2.1487,2.1007,2.0991,2.1337,0.0,0.0,0.0,0.0,0.0,0.0,0.0,0.0,0.0,0.0,0.0,0.0,0.0,0.0,1.8821,1.8271,1.7936,1.7606,1.6882,1.5814,1.5359,1.5104,1.5104,1.4278,1.3901,1.3901,1.3425,1.2943,0.0,0.0,0.0,0.0,1.1019,1.0725,1.0283,1.0283,1.0283,1.0283,1.0283,1.0283,1.0118,0.0,0.0,0.0,0.0,0.0,0.0,0.0,0.0,0.0,0.0,0.0,0.0,0.0,0.0,0.0,0.0,0.0,0.0,0.0,0.0,0.0,0.0,0.0,0.0,0.0,0.0,0.0,1.3265,1.2157,1.0376,0.0,0.0,0.0,0.0,0.0,0.0,0.0,0.0,0.0,0.0,0.0,0.0,0.0,0.0,0.0,0.0,0.0,0.0,0.0,0.0,0.0,0.0,0.0,0.0,0.0,2.0374,2.1278,2.2183,2.2267,2.1588,2.0854,2.079,1.994,1.9114,1.9239,0.0,1.8658,1.8867,1.9087,1.9462,2.0268,2.0426,2.0553,2.0959,2.1118,0.0,0.0,0.0,0.0,0.0,0.0,0.0,0.0,0.0,0.0,0.0,0.0,0.0,0.0,0.0,1.7144,1.7546,1.6955,1.6222,1.5329,1.5165,1.4968,1.469,1.4149,1.3901,1.3868,1.3425,0.0,0.0,0.0,0.0,0.0,1.0649,1.0428,1.0283,1.0283,1.0283,1.0283,1.0283,1.0079,0.9637,0.0,0.0,0.0,0.0,0.0,0.0,0.0,0.0,0.0,0.0,0.0,0.0,0.0,0.0,0.0,0.0,0.0,0.0,0.0,0.0,0.0,0.0,0.0,0.0,0.0,0.0,1.2253,1.1382,1.0428,0.8741,0.643,0.4002,0.121,0.0,0.0,0.0,0.0,0.0,0.0,0.0,0.0,0.0,2.0805,0.0,0.0,0.0,0.0,0.0,0.0,0.0,0.0,0.0,0.0,0.0,0.0,0.0,1.9084,1.9677,0.0,1.974,1.9263,1.9323,1.8604,0.0,0.0,0.0,1.7544,1.7747,1.8182,1.8707,1.9222,1.9728,2.0112,2.0465,2.0632,0.0,0.0,0.0,0.0,0.0,0.0,0.0,0.0,0.0,0.0,0.0,0.0,0.0,0.0,0.0,1.6189,1.6529,1.6093,1.5504,1.4818,1.4701,1.4408,1.3924,1.373,1.3648,1.3648,1.3323,0.0,0.0,0.0,0.0,0.0,1.0428,1.0283,1.0283,1.0283,1.0283,1.0283,1.0283,1.0088,0.9677,0.0,0.0,0.0,0.0,0.0,0.0,0.0,0.0,0.0,0.0,0.0,0.0,0.0,0.0,0.0,0.0,0.0,0.0,0.0,0.0,0.0,0.0,0.0,0.0,0.0,0.9629,1.0054,1.072,0.9459,0.8057,0.6536,0.3661,0.1099,-0.1217,-0.3424,0.0,0.0,0.0,0.0,0.0,0.0,0.0,0.0,0.0,0.0,0.0,0.0,0.0,0.0,0.0,0.0,0.0,0.0,0.0,0.0,0.0,0.0,0.0,0.0,1.814,0.0,0.0,0.0,0.0,0.0,0.0,0.0,1.7188,1.7747,1.8263,1.8727,1.9281,1.9639,1.969,2.0035,0.0,0.0,0.0,0.0,0.0,0.0,0.0,0.0,0.0,0.0,0.0,0.0,0.0,0.0,0.0,1.5418,1.5074,1.5043,1.4787,1.427,1.4038,1.361,1.3037,1.3124,1.3198,1.3198,1.3198,0.0,0.0,0.0,0.0,0.0,1.0322,1.0283,1.0283,1.0283,1.0283,1.0283,1.0283,1.0283,1.0166,0.0,0.0,0.0,0.0,0.0,0.0,0.0,0.0,0.0,0.0,0.0,0.0,0.0,0.0,0.0,0.0,0.0,0.0,0.0,0.0,0.0,0.0,0.0,0.0,0.0,0.9179,0.9805,1.0064,1.0214,0.9284,0.7278,0.4904,0.2069,-0.1198,-0.3395,0.0,0.0,0.0,0.0,0.0,0.0,0.0,0.0,0.0,0.0,0.0,1.8468,1.9006,0.0,0.0,0.0,0.0,0.0,0.0,0.0,0.0,1.8027,1.7444,1.8051,0.0,1.7023,1.7471,1.7149,0.0,0.0,0.0,0.0,0.0,0.0,0.0,0.0,1.8727,1.9207,1.9639,2.0035,0.0,0.0,0.0,0.0,0.0,0.0,0.0,0.0,0.0,0.0,0.0,0.0,0.0,0.0,0.0,1.5045,1.4658,1.4342,1.4114,1.4011,1.392,1.3637,1.3154,1.3191,1.3198,1.3198,1.3198,0.0,0.0,0.0,0.0,1.0802,1.0467,1.0283,1.0283,1.0283,1.0283,1.0283,1.0283,1.0283,1.0166,0.0,0.0,0.0,0.0,0.0,0.0,0.0,0.0,0.0,0.0,0.0,0.0,0.0,0.0,0.0,0.0,0.0,0.0,0.0,0.0,0.0,0.0,0.0,0.0,0.0,0.903,0.9908,1.0261,1.0939,1.0327,0.8502,0.597,0.3037,-0.0271,-0.3827,0.0,0.0,0.0,0.0,0.0,0.0689,0.0,0.0,0.0,0.0,0.0,1.809,1.8855,0.0,1.9281,1.9442,1.969,0.0,0.0,0.0,0.0,1.8708,1.8535,1.8601,1.7952,1.7426,1.799,1.7903,1.7814,0.0,0.0,0.0,0.0,0.0,0.0,0.0,0.0,0.0,0.0,0.0,0.0,0.0,0.0,0.0,0.0,0.0,0.0,0.0,0.0,0.0,0.0,0.0,0.0,0.0,0.0,1.4721,1.4501,1.3901,1.3539,1.3491,1.3539,1.3217,1.2506,1.2751,1.2768,1.2544,1.2544,0.0,0.0,0.0,0.0,1.0649,1.039,1.0283,1.0283,1.0283,1.0283,1.0283,1.0283,1.0283,1.0166,0.0,0.0,0.0,0.0,0.0,0.0,0.0,0.0,0.0,0.0,0.0,0.0,0.0,0.0,0.0,0.0,0.0,0.0,0.0,0.0,0.0,0.0,0.0,0.0,0.7966,0.932,1.0394,1.1249,1.1895,1.1522,1.0124,0.7222,0.4,0.0382,-0.4328,0.0,0.0,0.0,0.0,0.0,-0.285,0.0,0.0,0.0,0.0,0.0,0.0,0.0,0.0,1.9406,1.9639,1.969,1.9603,0.0,0.0,0.0,0.0,0.0,1.9431,1.9137,1.8968,1.9226,1.9302,1.9368,1.9409,0.0,0.0,0.0,0.0,0.0,0.0,0.0,0.0,0.0,0.0,0.0,0.0,0.0,0.0,0.0,0.0,0.0,0.0,0.0,0.0,0.0,0.0,0.0,0.0,0.0,0.0,1.431,1.3581,1.3149,1.304,1.307,1.2675,1.182,1.2224,1.2174,1.1811,1.1811,0.0,0.0,0.0,0.0,1.0283,1.0283,1.0283,1.0283,1.0283,1.0283,1.0283,1.0283,1.0283,1.0196,0.0,0.0,0.0,0.0,0.0,0.0,0.0,0.0,0.0,0.0,0.0,0.0,0.0,0.0,0.0,0.0,0.0,0.0,0.0,0.0,0.0,0.0,0.0,0.8808,0.9307,1.0673,1.199,1.326,1.3924,1.3575,1.225,0.9394,0.4568,-0.1808,-0.4501,-0.6849,-0.8947,-1.0041,-0.9725,-0.8319,-0.5623,0.0,0.0,0.0,0.0,0.0,0.0,0.0,0.0,1.9006,1.9332,1.9603,1.9169,0.0,0.0,0.0,0.0,0.0,2.021,2.1206,2.1773,2.0844,2.0671,2.0872,0.0,0.0,0.0,0.0,0.0,0.0,0.0,0.0,0.0,0.0,0.0,0.0,0.0,0.0,0.0,0.0,0.0,0.0,0.0,0.0,0.0,0.0,0.0,0.0,0.0,0.0,0.0,1.3425,1.3267,1.3195,1.3162,1.2789,1.2543,1.2389,1.2067,1.1884,1.1811,1.1811,1.1505,0.0,0.0,1.0725,1.0283,1.0283,1.0283,1.0283,1.0283,1.0283,1.0283,1.0283,1.0283,1.0157,0.0,0.0,0.0,0.0,0.0,0.0,0.0,0.0,0.0,0.0,0.0,0.0,0.0,0.0,0.0,0.0,0.0,0.0,0.0,0.0,0.0,0.0,1.2314,1.1619,1.1158,1.2531,1.3641,1.4575,1.4959,1.4471,1.3114,0.8444,0.3205,-0.2305,-0.4501,-0.6679,-0.8731,-0.9436,-0.9547,-0.9044,0.0,0.0,0.0,0.0,0.0,0.0,0.0,0.0,0.0,0.0,1.9479,1.9639,1.9406,0.0,0.0,0.0,0.0,0.0,2.0558,2.1945,2.3059,2.2481,2.2928,2.342,0.0,0.0,0.0,0.0,0.0,0.0,0.0,0.0,0.0,0.0,0.0,0.0,0.0,0.0,0.0,0.0,0.0,0.0,0.0,0.0,0.0,0.0,0.0,0.0,0.0,0.0,0.0,0.0,1.3459,1.3198,1.3198,1.272,1.2354,1.2102,1.1616,1.1207,1.0992,1.0992,1.084,1.0611,0.0,1.0505,1.0283,1.0283,1.0283,1.0283,1.0283,1.0283,1.0283,1.0283,1.0283,1.0205,0.0,0.0,0.0,0.0,0.0,0.0,0.0,0.0,0.0,0.0,0.0,0.0,0.0,0.0,0.0,0.0,0.0,0.0,0.0,0.0,1.357,1.4293,1.4475,1.4286,1.3564,1.4575,1.5425,1.6103,1.6113,1.4977,1.2738,0.7189,0.2431,-0.1539,-0.3902,-0.6084,-0.7976,-0.8554,-0.9099,-0.934,0.0,0.0,0.0,0.0,0.0,0.0,0.0,0.0,0.0,0.0,0.0,0.0,0.0,0.0,0.0,1.969,2.0064,2.0513,2.0677,2.2128,2.3565,2.3415,0.0,0.0,0.0,0.0,0.0,0.0,0.0,0.0,0.0,0.0,0.0,0.0,0.0,0.0,0.0,0.0,0.0,0.0,0.0,0.0,0.0,0.0,0.0,0.0,0.0,0.0,0.0,0.0,0.0,0.0,1.3615,1.3198,1.3198,1.272,1.2246,1.1774,1.1244,1.0764,1.0283,1.0283,1.0283,1.0283,1.0283,1.0283,1.0283,1.0283,1.0283,1.0283,1.0283,1.0283,1.0283,1.0283,1.0283,1.0205,0.0,0.0,0.0,0.0,0.0,0.0,0.0,0.0,0.0,0.0,0.0,0.0,0.0,0.0,0.0,0.0,0.0,0.0,0.0,0.0,1.277,1.3787,1.4503,1.5405,1.6547,1.6815,1.745,1.856,1.806,1.5398,1.0647,0.7004,0.371,0.0719,-0.2153,-0.4297,-0.5873,-0.787,-0.8764,-0.8738,-0.71,0.0,0.0,0.0,0.0,0.0,0.0,0.0,0.0,0.0,0.0,0.0,0.0,0.0,1.969,1.969,1.972,1.9899,2.0543,2.2128,2.346,2.2877,2.3702,0.0,0.0,0.0,0.0,0.0,0.0,0.0,0.0,0.0,0.0,0.0,0.0,0.0,0.0,0.0,0.0,0.0,0.0,0.0,0.0,0.0,0.0,0.0,0.0,0.0,0.0,0.0,0.0,0.0,0.0,1.3198,1.3198,1.272,1.2246,1.1774,1.1244,1.0764,1.0283,1.0283,1.0283,1.0283,1.0283,1.0283,1.0283,1.0283,1.0283,1.0283,1.0283,1.0283,1.0283,1.0283,1.0283,1.0205,0.0,0.0,0.0,0.0,0.0,0.0,0.0,0.0,0.0,0.0,0.0,0.0,0.0,0.0,0.0,0.0,0.0,0.0,0.0,0.0,1.2263,1.2922,1.4185,1.5541,1.6886,1.8054,1.9009,1.9733,1.7436,1.4181,0.9999,0.7441,0.4784,0.2003,-0.0645,-0.2689,-0.4256,-0.5983,-0.7075,-0.7494,-0.6332,-0.4209,0.0,0.0,0.0,0.0,0.0,0.0,0.0,0.0,1.8727,1.8968,1.9281,1.953,1.969,1.969,1.969,1.975,2.0004,2.1216,2.2435,2.2443,2.3147,0.0,0.0,0.0,0.0,0.0,0.0,0.0,0.0,0.0,0.0,0.0,0.0,0.0,0.0,0.0,0.0,0.0,0.0,0.0,0.0,0.0,0.0,0.0,0.0,0.0,0.0,0.0,0.0,0.0,0.0,1.3198,1.3198,1.3012,1.2544,1.1774,1.1244,1.0764,1.0283,1.0283,1.0283,1.0283,0.9961,1.0,1.0283,0.9922,1.0,1.0283,1.0283,1.0283,1.0283,1.0283,1.0283,1.0283,0.0,0.0,0.0,0.0,0.0,0.0,0.0,0.0,0.0,0.0,0.0,0.0,0.0,0.0,0.0,0.0,0.0,0.0,0.0,0.0,0.9893,1.0531,1.2096,1.3671,1.5177,1.6901,1.8452,1.9818,1.6427,1.3128,1.0038,0.7582,0.5362,0.3246,0.0599,-0.1316,-0.2619,-0.4152,-0.5297,-0.6034,-0.5132,-0.3468,0.0,0.0,0.0,0.0,0.0,0.0,0.0,0.0,1.8482,1.8765,1.9479,1.969,1.969,1.969,1.9839,2.004,2.0207,2.1228,2.23,0.0,0.0,0.0,0.0,0.0,0.0,0.0,0.0,0.0,0.0,0.0,0.0,0.0,0.0,0.0,0.0,0.0,0.0,0.0,0.0,0.0,0.0,0.0,0.0,0.0,0.0,0.0,0.0,0.0,0.0,0.0,0.0,0.0,1.3198,1.3047,1.2579,1.1774,1.1244,1.0764,1.0283,1.0283,1.0283,1.0283,0.9716,0.9725,1.0,0.9478,0.9558,1.004,1.0235,1.0283,1.0283,1.0283,1.0283,1.0283,0.0,0.0,0.0,0.0,0.0,0.0,0.0,0.0,0.0,0.0,0.0,0.0,0.0,0.0,0.0,0.0,0.0,0.0,0.0,0.392,0.5304,0.6424,0.7905,0.9585,1.1496,1.3028,1.5435,1.874,1.5219,1.2539,1.0597,0.7318,0.5396,0.4599,0.1575,-0.0175,-0.0982,-0.2575,-0.3695,-0.4338,-0.3589,-0.198,0.0219,0.0,0.0,0.0,0.0,0.0,0.0,0.0,1.7572,1.8302,1.9369,1.969,1.969,1.969,2.0168,2.082,2.1327,2.2434,2.3351,0.0,0.0,0.0,0.0,0.0,0.0,0.0,0.0,0.0,0.0,0.0,0.0,0.0,0.0,0.0,0.0,0.0,0.0,0.0,0.0,0.0,0.0,0.0,0.0,0.0,0.0,0.0,0.0,0.0,0.0,0.0,0.0,0.0,1.3198,1.272,1.2246,1.1774,1.1244,1.0764,1.0283,1.0283,1.0283,1.0283,0.9725,0.9478,0.9439,0.8918,0.8999,0.9558,1.0079,1.0283,1.0283,1.0283,1.0283,1.0283,0.0,0.0,0.0,0.0,0.0,0.0,0.0,0.0,0.0,0.0,0.0,0.0,0.0,0.0,0.0,0.0,0.0,0.0,0.0,0.1473,0.3318,0.3487,0.5563,0.7354,0.8612,1.1015,1.332,1.5545,1.3697,1.1995,1.0466,0.9202,0.7636,0.5847,0.4499,0.2686,0.042,-0.0582,-0.1781,-0.3042,-0.2693,-0.1833,-0.0555,0.0,0.0,0.0,0.0,0.0,0.0,0.0,0.0,0.0,1.8788,1.973,2.0318,1.9824,2.0168,2.0678,2.0674,2.1667,0.0,0.0,0.0,0.0,0.0,0.0,0.0,0.0,0.0,0.0,0.0,0.0,0.0,0.0,0.0,0.0,0.0,0.0,0.0,0.0,0.0,0.0,0.0,0.0,0.0,0.0,0.0,0.0,0.0,0.0,0.0,0.0,0.0,0.0,1.3198,1.2346,1.1897,1.1774,1.1244,1.0764,1.0283,1.0283,1.0283,1.0244,0.9319,0.9159,0.9439,0.8918,0.8797,0.8999,0.9518,0.9716,0.9804,1.0157,1.0283,1.0322,0.0,0.0,0.0,0.0,0.0,0.0,0.0,0.0,0.0,0.0,-1.6418,-1.5325,0.0,0.0,0.0,0.0,0.0,0.0,0.0,0.0,0.0449,0.0884,0.2625,0.4577,0.6784,0.9446,1.1601,1.3283,1.2561,1.178,1.0966,1.0079,0.8618,0.6822,0.5765,0.4159,0.2137,0.1227,0.0115,-0.1033,-0.0955,-0.0613,-0.0056,0.0,0.0,0.0,0.0,0.0,0.0,0.0,0.0,0.0,1.8101,0.0,2.0019,2.0328,2.0877,2.1498,2.203,0.0,0.0,0.0,0.0,0.0,0.0,0.0,0.0,0.0,0.0,0.0,0.0,0.0,0.0,0.0,0.0,0.0,0.0,0.0,0.0,0.0,0.0,0.0,0.0,0.0,0.0,0.0,0.0,0.0,0.0,0.0,0.0,0.0,0.0,0.0,1.258,1.185,1.1365,1.1191,1.0699,1.022,0.9785,1.0127,1.0098,0.9738,0.8706,0.829,0.8325,0.8214,0.8175,0.8262,0.8939,0.9199,0.9239,0.9804,1.0,1.0039,0.0,0.0,0.0,0.0,0.0,0.0,0.0,0.0,0.0,0.0,-1.471,-1.3832,0.0,0.0,0.0,0.0,0.0,0.0,0.0,0.0,-0.2662,-0.1284,-0.0391,0.1862,0.5698,0.8103,1.0151,1.1824,1.1835,1.1913,0.0,0.0,0.8979,0.7644,0.0,0.482,0.3761,0.2746,0.1898,0.1174,0.1174,0.1174,0.1284,0.2009,0.0,0.0,0.0,0.0,0.0,0.0,0.0,0.0,1.7195,1.8299,1.9217,2.0855,2.1838,2.2729,2.4339,0.0,0.0,0.0,0.0,0.0,0.0,0.0,0.0,0.0,0.0,0.0,0.0,0.0,0.0,0.0,0.0,0.0,0.0,0.0,0.0,0.0,0.0,0.0,0.0,0.0,0.0,0.0,0.0,0.0,0.0,0.0,0.0,0.0,0.0,0.0,1.1724,1.1296,1.0799,0.0,0.9832,0.9355,0.8975,0.9834,0.9775,0.8867,0.7991,0.7226,0.6664,0.7146,0.7347,0.7416,0.8287,0.8643,0.8675,0.9239,0.9439,0.9487,0.0,0.0,0.0,0.0,0.0,0.0,0.0,0.0,0.0,0.0,0.0,0.0,0.0,0.0,0.0,0.0,0.0,0.0,0.0,0.0,-0.2952,-0.2009,-0.0172,0.1879,0.3977,0.6094,0.8549,1.1457,1.2358,0.0,0.0,0.0,0.0,0.9239,0.0,0.6241,0.4244,0.3471,0.2676,0.1952,0.1952,0.1952,0.2063,0.2788,0.3718,0.0,0.0,0.0,0.0,0.0,0.0,0.0,1.5358,1.7334,1.9101,1.9826,2.113,2.2525,0.0,2.4612,0.0,0.0,0.0,0.0,0.0,0.0,0.0,0.0,0.0,0.0,0.0,0.0,0.0,0.0,0.0,0.0,0.0,0.0,0.0,0.0,0.0,0.0,0.0,0.0,0.0,0.0,0.0,0.0,0.0,0.0,0.0,0.0,0.0,1.3037,1.2694,1.1465,1.0674,0.0,0.9816,0.9217,0.8545,0.9385,0.923,0.8341,0.7815,0.7276,0.6774,0.6758,0.6777,0.6851,0.7736,0.8077,0.816,0.8675,0.8878,0.892,0.0,0.0,0.0,0.0,0.0,0.0,0.0,0.0,0.0,0.0,0.0,0.0,0.0,0.0,0.0,0.0,0.0,0.0,0.0,0.0,0.0,0.0,-0.0348,0.1599,0.359,0.5806,0.8287,0.0,0.0,0.0,0.0,0.0,0.0,1.0073,0.0,0.7544,0.5213,0.4668,0.3782,0.2788,0.2788,0.2565,0.2286,0.3065,0.3561,0.4103,0.5575,0.0,0.0,0.0,0.0,0.0,0.0,0.0,1.7073,1.8673,2.0459,2.2153,0.0,0.0,0.0,0.0,0.0,0.0,0.0,0.0,0.0,0.0,0.0,0.0,0.0,0.0,0.0,0.0,0.0,0.0,0.0,0.0,0.0,0.0,0.0,0.0,0.0,0.0,0.0,0.0,0.0,0.0,0.0,0.0,0.0,0.0,1.3805,1.3138,1.1919,1.1492,1.092,1.0256,0.9831,0.9197,0.842,0.8613,0.8517,0.814,0.7391,0.6887,0.6532,0.6281,0.6253,0.6451,0.7067,0.7361,0.753,0.8111,0.8316,0.8381,0.0,0.0,0.0,0.0,0.0,0.0,0.0,0.0,0.0,0.0,0.0,0.0,0.0,0.0,0.0,0.0,0.0,0.0,0.0,0.0,0.0,0.0,-0.0994,0.0,0.0,0.5502,0.7885,0.0,0.0,0.0,0.0,0.0,0.0,1.0822,0.0,0.8633,0.6506,0.6005,0.5018,0.3785,0.3785,0.3284,0.2676,0.3345,0.3566,0.3732,0.4886,0.5324,0.5538,0.6811,0.0,0.0,0.0,0.0,1.4361,1.7096,1.9301,2.1337,0.0,0.0,0.0,0.0,0.0,0.0,0.0,0.0,0.0,0.0,0.0,0.0,0.0,0.0,0.0,0.0,0.0,0.0,0.0,0.0,0.0,0.0,0.0,0.0,0.0,0.0,0.0,0.0,0.0,0.0,0.0,0.0,1.499,1.319,1.3931,1.3293,1.1069,1.1517,1.1231,1.0183,0.9695,0.9098,0.8376,0.792,0.7859,0.8063,0.6972,0.6434,0.6293,0.5944,0.5932,0.623,0.6533,0.6807,0.7063,0.7572,0.7746,0.7829,0.0,0.0,0.0,0.0,0.0,0.0,0.0,0.0,0.0,0.0,-0.9361,-0.8956,0.0,0.0,0.0,0.0,0.0,0.0,0.0,0.0,0.0,0.0,-0.2342,0.0,0.0673,0.2696,0.538,0.0,0.0,0.0,0.0,0.0,0.0,1.2236,0.0,0.0,0.7869,0.7182,0.6253,0.521,0.521,0.4831,0.4184,0.4294,0.4349,0.4405,0.457,0.4625,0.4732,0.5538,0.6274,0.0,0.0,0.0,1.2214,1.4071,1.6721,1.9339,0.0,0.0,0.0,0.0,0.0,0.0,0.0,0.0,0.0,0.0,0.0,0.0,0.0,0.0,0.0,0.0,0.0,0.0,0.0,0.0,0.0,0.0,0.0,0.0,0.0,0.0,0.0,0.0,0.0,0.0,0.0,1.6123,1.5397,1.4555,1.4055,1.3355,1.2444,1.1899,1.1154,1.0183,0.9025,0.8437,0.8288,0.789,0.7734,0.7701,0.6872,0.6482,0.6457,0.6229,0.6156,0.625,0.6754,0.6945,0.7021,0.7105,0.7105,0.7147,0.0,0.0,0.0,0.0,0.0,0.0,0.0,0.0,0.0,0.0,0.0,-0.8985,0.0,0.0,0.0,0.0,0.0,0.0,0.0,0.0,0.0,0.0,0.0,0.0,-0.0536,0.0,0.0,0.0,0.0,0.0,0.0,1.3275,1.3357,0.0,0.0,0.0,0.0,0.8101,0.7123,0.6091,0.5651,0.5324,0.5003,0.4625,0.4519,0.4519,0.4519,0.4519,0.4574,0.4842,0.516,0.5584,0.6567,0.0,0.0,0.0,1.3939,0.0,0.0,0.0,0.0,0.0,0.0,0.0,0.0,0.0,0.0,0.0,0.0,0.0,0.0,0.0,0.0,0.0,0.0,0.0,0.0,0.0,0.0,0.0,0.0,0.0,0.0,0.0,0.0,0.0,0.0,0.0,1.6528,1.6246,1.5609,1.4536,1.4295,1.375,1.2869,1.2615,1.1876,1.0654,0.9555,0.8782,0.829,0.7899,0.7695,0.7666,0.7098,0.678,0.6714,0.6397,0.6311,0.6465,0.668,0.688,0.6979,0.6979,0.6979,0.6979,0.0,0.0,0.0,0.0,0.0,0.0,0.0,0.0,0.0,0.0,0.0,0.0,0.0,0.0,0.0,0.0,0.0,0.0,0.0,0.0,0.0,0.0,0.0,0.0,-0.1727,0.0,0.0,0.0,0.0,0.0,1.1036,1.1797,1.2625,0.0,1.2915,1.1623,0.0,0.0,0.0,0.6937,0.6109,0.5651,0.5433,0.4732,0.4519,0.4519,0.4519,0.4519,0.4519,0.4519,0.4519,0.457,0.5109,0.5923,0.0,0.0,0.0,0.0,0.0,0.0,0.0,0.0,0.0,0.0,0.0,0.0,0.0,0.0,0.0,0.0,0.0,0.0,0.0,0.0,0.0,0.0,0.0,0.0,0.0,0.0,0.0,0.0,0.0,0.0,0.0,0.0,0.0,0.0,1.6565,1.6394,1.5759,1.4604,1.4483,1.4015,1.3124,1.3057,1.2366,1.1155,1.0214,0.9298,0.8421,0.8145,0.7881,0.7666,0.7275,0.7028,0.686,0.656,0.6477,0.6593,0.6673,0.6834,0.6979,0.6979,0.6894,0.6816,0.0,0.0,0.0,0.0,0.0,0.0,0.0,0.0,0.0,0.0,0.0,0.0,0.0,0.0,-0.7413,-0.6696,0.0,0.0,0.0,0.0,0.0,0.0,0.0,0.0,0.0,0.0,0.0,0.0,0.0,0.0,0.8427,0.9153,1.0239,1.1654,1.2562,1.1874,1.0067,0.0,0.0,0.0,0.0,0.0,0.5433,0.4732,0.0,0.0,0.0,0.0,0.4519,0.4519,0.4519,0.4519,0.4519,0.4553,0.4685,0.0,0.0,0.0,0.0,0.0,0.0,0.0,0.0,0.0,0.0,0.0,0.0,0.0,0.0,0.0,0.0,0.0,0.0,0.0,0.0,0.0,0.0,0.0,0.0,0.0,0.0,0.0,0.0,0.0,0.0,0.0,0.0,0.0,1.7248,1.6644,1.5991,1.5268,1.4646,1.4041,1.3484,1.2799,1.2165,1.1545,1.0622,0.9671,0.8773,0.881,0.843,0.7666,0.7275,0.7028,0.6876,0.681,0.6713,0.662,0.6894,0.7007,0.6979,0.6979,0.6683,0.6221,0.0,0.0,0.0,0.0,0.0,0.0,0.0,0.0,0.0,0.0,0.0,0.0,0.0,-0.793,-0.7131,-0.6652,-0.4878,0.0,0.0,0.0,0.0,0.0,0.0,0.0,0.0,0.0,0.0,0.0,0.0,0.2644,0.5481,0.6138,0.7386,0.9091,1.1011,1.1511,1.0802,1.0233,0.0,0.0,0.0,0.0,0.0,0.0,0.0,0.0,0.0,0.0,0.0,0.4609,0.4609,0.4532,0.3928,0.3729,0.3825,0.4497,0.6691,0.0,0.0,0.0,0.0,0.0,0.0,0.0,0.0,0.0,0.0,0.0,0.0,0.0,0.0,0.0,0.0,0.0,0.0,0.0,0.0,0.0,0.0,0.0,0.0,0.0,0.0,0.0,0.0,0.0,0.0,0.0,1.732,1.6876,1.6418,1.5971,1.5196,1.449,1.3776,1.2859,1.2316,1.2115,1.1161,1.0365,0.9738,0.9509,0.9094,0.8513,0.8038,0.7577,0.7247,0.7491,0.7299,0.688,0.6981,0.6979,0.6979,0.6979,0.6894,0.6647,0.0,0.0,0.0,0.0,0.0,0.0,0.0,0.0,0.0,0.0,0.0,0.0,0.0,0.0,-0.6462,-0.5214,-0.3611,-0.2399,-0.1842,-0.2508,0.0,0.0,0.0,0.0,0.0,0.0,0.0,0.0,0.0,0.0,0.0,0.2956,0.4201,0.6013,0.7921,0.9219,0.0,0.0,0.0,0.9253,0.0,0.0,0.8222,0.0,0.0,0.0,0.0,0.0,0.0,0.0,0.0,0.0,0.3653,0.3037,0.267,0.3087,0.0,0.0,0.0,0.0,0.0,0.0,0.0,0.0,0.0,0.0,0.0,0.0,0.0,0.0,0.0,0.0,0.0,0.0,0.0,0.0,0.0,0.0,0.0,0.0,0.0,0.0,0.0,0.0,0.0,0.0,0.0,0.0,1.7462,1.7027,1.6581,1.6151,1.5463,1.4685,1.3834,1.3201,1.2552,1.1821,1.1591,1.0947,1.0029,1.0092,0.969,0.8989,0.8729,0.8258,0.7617,0.7692,0.743,0.6979,0.6979,0.6979,0.6979,0.6979,0.6761,0.638,0.0,0.0,0.0,0.0,0.0,0.0,0.0,0.0,0.0,0.0,0.0,0.0,0.0,0.0,0.0,-0.2456,-0.1564,-0.1118,-0.1118,-0.1786,0.0,0.0,0.0,0.0,0.0,0.0,0.0,0.0,0.0,0.0,0.0,0.0,0.0835,0.2529,0.3268,0.497,0.7339,0.0,0.8557,0.8622,0.0,0.8622,0.8563,0.0,0.0,0.0,0.7488,0.6952,0.0,0.0,0.0,0.0,0.0,0.0,0.0,0.0,0.0,0.0,0.0,0.0,0.0,0.0,0.0,0.0,0.0,0.0,0.0,0.0,0.0,0.0,0.0,0.0,0.0,0.0,0.0,0.0,0.0,0.0,0.0,0.0,0.0,0.0,0.0,0.0,0.0,0.0,0.0,1.8134,1.7833,1.7191,1.6501,1.5827,1.5344,1.4683,1.375,1.3821,1.2842,1.0809,1.1889,1.1402,0.9596,1.051,1.0244,0.9057,0.9336,0.8902,0.7994,0.744,0.7117,0.6979,0.6979,0.6979,0.6979,0.6979,0.6295,0.5303,0.0,0.0,0.0,0.0,0.0,0.0,0.0,0.0,0.0,0.0,0.0,0.0,-1.0854,-0.8507,-0.5736,-0.2659,-0.2093,-0.1675,-0.1118,-0.1786,-0.2565,-0.3345,-0.407,0.0,0.0,0.0,0.0,0.0,0.0,0.0,0.0,0.0,0.0,0.0,0.0672,0.1687,0.3076,0.5955,0.0,0.0,0.8757,0.9126,0.0,0.0,0.0,0.0,0.0,0.6983,0.0,0.0,0.5156,0.4574,0.0,0.0,0.0,0.0,0.0,0.0,0.2238,0.0,0.0,0.0,0.0,0.0,0.0,0.0,0.0,0.0,0.0,0.0,0.0,0.0,0.0,0.0,0.0,0.0,0.0,0.0,0.0,0.0,0.0,0.0,0.0,0.0,0.0,0.0,1.9949,1.9347,1.8151,1.7492,1.6834,1.6191,1.5694,1.5228,1.4726,1.3748,1.3164,1.3017,1.2602,1.1983,1.1169,1.1438,1.0951,0.9904,0.9222,0.8778,0.8447,0.7931,0.741,0.6979,0.6979,0.6979,0.6979,0.6979,0.6556,0.5873,0.0,0.0,0.0,0.0,0.0,0.0,0.0,0.0,0.0,0.0,0.0,0.0,0.0,-0.8927,-0.6649,-0.3806,-0.3217,-0.2607,-0.1804,-0.2411,-0.3017,-0.3473,-0.4157,-0.4519,0.0,0.0,0.0,0.0,0.0,0.0,0.0,0.0,0.0,0.0,0.0,0.0,0.0,0.0,0.0,0.0,0.807,0.0,0.0,0.9052,0.8749,0.0,0.0,0.0,0.6433,0.5925,0.5206,0.0,0.0,0.0,0.0,0.0,0.0,0.0,0.0,0.0,0.0,0.0,0.0,0.0,1.4989,1.7514,0.0,0.0,0.0,0.0,0.0,0.0,0.0,0.0,0.0,0.0,0.0,0.0,0.0,0.0,0.0,0.0,0.0,0.0,0.0,0.0,2.0695,1.9672,1.8095,1.7823,1.7385,1.6543,1.6102,1.5587,1.4993,1.4081,1.3481,1.3174,1.2688,1.2092,1.1425,1.1454,1.1029,1.0244,0.9159,0.8545,0.8277,0.7516,0.7112,0.6979,0.6768,0.6647,0.6641,0.638,0.5947,0.5394,0.0,0.0,0.0,0.0,0.0,0.0,0.0,0.0,0.0,0.0,0.0,0.0,0.0,0.0,-0.8049,-0.5611,-0.4689,-0.3964,-0.319,-0.3515,-0.3807,-0.3865,-0.4273,-0.4543,-0.4543,0.0,0.0,0.0,0.0,0.0,0.0,0.0,0.0,0.0,0.0,0.0,0.0,0.0,0.0,0.4884,0.678,0.7754,0.0,0.0,0.8027,0.0,0.7897,0.7372,0.665,0.6433,0.5198,0.0,0.0,0.0,0.0,0.0,-0.1284,0.0,0.0,0.0,0.0,0.0,0.0,0.0,1.1615,1.4602,1.7191,0.0,0.0,0.0,0.0,0.0,0.0,0.0,0.0,0.0,0.0,0.0,0.0,0.0,0.0,0.0,0.0,0.0,2.3243,2.2696,2.1205,1.9678,1.8159,1.8349,1.8029,1.6917,1.6554,1.5922,1.4996,1.4654,1.3809,1.2468,1.2531,1.2037,1.1009,1.1052,1.0753,1.0157,0.9159,0.8366,0.7721,0.6628,0.6428,0.6761,0.6301,0.6093,0.605,0.548,0.4913,0.4387,-2.6691,0.0,0.0,0.0,0.0,0.0,0.0,0.0,0.0,0.0,0.0,0.0,0.0,0.0,0.0,-0.7466,-0.6435,-0.5887,-0.5708,-0.5024,-0.489,-0.5489,-0.4944,-0.4646,-0.4646,0.0,0.0,0.0,0.0,0.0,0.0,0.0,0.0,0.0,0.0,0.0,0.0,0.0,0.0,0.2509,0.5476,0.0,0.8027,0.8027,0.8027,0.7897,0.7177,0.685,0.6433,0.0,0.3717,0.271,0.0,0.0,0.0,0.0,0.0,0.0,0.0,0.0,0.0,0.0,0.0,0.0,0.6264,0.9055,1.1527,0.0,0.0,0.0,0.0,0.0,0.0,0.0,0.0,0.0,0.0,0.0,0.0,0.0,0.0,0.0,0.0,0.0,2.407,2.2997,2.1825,2.0906,2.0322,1.9586,1.8694,1.7568,1.6986,1.6475,1.6015,1.5003,1.4345,1.4032,1.3365,1.2567,1.1628,1.1656,1.0905,0.9637,0.8958,0.839,0.7773,0.6683,0.5959,0.5604,0.5524,0.548,0.548,0.5351,0.4913,0.4387,-2.6691,0.0,0.0,0.0,0.0,0.0,0.0,0.0,0.0,0.0,0.0,0.0,0.0,0.0,0.0,0.0,0.0,-0.8081,0.0,0.0,-0.6442,-0.6818,-0.637,-0.6086,-0.6086,-0.7298,0.0,0.0,0.0,0.0,0.0,0.0,0.0,0.0,0.0,0.0,0.0,0.0,-0.0973,0.1164,0.3979,0.0,0.6728,0.6728,0.6668,0.6467,0.5636,0.5064,0.4455,0.3023,0.2572,0.0,0.0,-0.0235,-0.1252,0.0,-0.273,-0.3231,0.0,0.0,0.0,-0.083,0.0,0.0,0.0,0.5162,0.7247,0.0,0.0,0.0,0.0,0.0,0.0,0.0,0.0,0.0,0.0,0.0,0.0,0.0,0.0,0.0,0.0,0.0,2.4454,2.3335,2.2904,2.2299,2.135,2.0581,1.966,1.8594,1.7689,1.7019,1.6554,1.536,1.4662,1.4501,1.3387,1.2461,1.1774,1.1505,1.0705,0.9478,0.8918,0.8218,0.7349,0.6204,0.5394,0.487,0.487,0.487,0.4826,0.4574,0.4268,0.4008,-2.6725,0.0,0.0,0.0,0.0,0.0,0.0,0.0,0.0,0.0,0.0,0.0,0.0,0.0,0.0,0.0,0.0,0.0,0.0,0.0,0.0,0.0,-0.7673,-0.7524,-0.7478,-0.8289,-0.8676,0.0,0.0,0.0,0.0,0.0,0.0,0.0,0.0,0.0,0.0,0.0,0.0,-0.0369,0.0,0.3751,0.5087,0.4926,0.4909,0.4756,0.3994,0.3304,0.2589,0.1596,0.0,0.1984,0.0309,-0.0296,0.0,0.0,0.0,0.0,0.0,0.0,0.0,0.0,0.0,-0.0543,0.0,0.0,0.0,0.3792,0.0,0.0,0.0,0.0,0.0,0.0,0.0,0.0,0.0,0.0,0.0,0.0,0.0,0.0,0.0,0.0,2.4655,2.3866,2.4014,2.3541,2.2131,2.1551,2.0853,1.9867,1.8598,1.7659,1.712,1.5779,1.4897,1.4501,1.3306,1.2425,1.1774,1.1356,1.0475,0.9319,0.8878,0.8005,0.6784,0.5728,0.4957,0.4387,0.4303,0.4264,0.4176,0.3751,0.3534,0.3442,-2.6791,-2.6691,0.0,0.0,0.0,0.0,0.0,0.0,0.0,0.0,0.0,0.0,0.0,0.0,0.0,0.0,0.0,0.0,-1.1869,0.0,0.0,0.0,0.0,0.0,-0.7354,-0.8567,-0.9062,0.0,0.0,0.0,0.0,0.0,0.0,0.0,-1.1287,0.0,0.0,0.0,-0.5516,0.0,-0.1293,0.1329,0.0,0.3318,0.3471,0.4027,0.313,0.2776,0.2579,0.0,0.1352,0.1148,0.0,-0.144,0.0,0.0,0.0,0.0,0.0,0.0,0.0,0.0,-0.3118,0.0,0.0,0.0,-0.1725,-0.2061,0.0,0.0,0.0,0.0,0.0,0.0,0.0,0.0,0.0,0.0,0.0,0.0,0.0,0.0,0.0,0.0,0.0,2.4908,2.4793,2.4308,2.3347,2.2891,2.2282,2.1456,1.971,1.8586,1.8228,1.6425,1.5183,1.4501,1.3986,1.3067,1.1811,1.1737,1.0657,0.8797,0.8716,0.7799,0.6221,0.5567,0.4957,0.4347,0.388,0.3711,0.3667,0.3622,0.3262,0.2807,-2.6725,-2.6691,0.0,0.0,0.0,0.0,0.0,0.0,0.0,0.0,0.0,0.0,0.0,0.0,0.0,0.0,0.0,-1.3722,0.0,0.0,0.0,0.0,0.0,0.0,0.0,-1.0939,-1.1381,-1.1236,-1.1766,0.0,0.0,0.0,0.0,0.0,-1.2549,0.0,-1.0477,0.0,0.0,0.0,0.0,0.0,0.0,0.1251,0.2187,0.2369,0.1937,0.1527,0.1066,0.0,0.0559,0.0,0.0,0.0,0.0,0.0,0.0,0.0,0.0,0.0,0.0,0.0,0.0,0.0,0.0,0.0,-0.4887,0.0,0.0,0.0,0.0,0.0,0.0,0.0,0.0,0.0,0.0,0.0,0.0,0.0,0.0,0.0,0.0,0.0,0.0,0.0,0.0,2.484,2.4391,2.3693,2.3034,2.2405,2.0997,1.9842,1.8982,1.7127,1.5798,1.5045,1.3731,1.2626,1.1774,1.1148,1.007,0.8675,0.8357,0.7482,0.6136,0.5567,0.473,0.3811,0.3296,0.3078,0.3034,0.2677,0.241,0.2184,-2.6725,0.0,0.0,0.0,0.0,0.0,0.0,0.0,0.0,0.0,0.0,0.0,-2.2467,-2.0662,0.0,0.0,0.0,-1.5337,0.0,0.0,-1.329,0.0,0.0,0.0,0.0,0.0,0.0,0.0,0.0,0.0,0.0,0.0,0.0,0.0,0.0,-1.3569,-1.2479,0.0,0.0,-1.0112,-0.9279,-0.7628,-0.5214,-0.1018,0.048,0.0299,0.0233,-0.0177,-0.0608,-0.0608,-0.0599,0.0,-0.1467,0.0,0.0,0.0,0.0,0.0,-0.4519,0.0,0.0,0.0,0.0,0.0,0.0,0.0,0.0,0.0,0.0,0.0,0.0,0.0,0.0,0.0,0.0,0.0,0.0,0.0,0.0,0.0,0.0,0.0,0.0,0.0,0.0,0.0,2.5208,0.0,2.5126,2.435,2.3725,2.3303,2.1984,2.0708,1.9498,1.756,1.6142,1.5227,1.3492,1.2249,1.154,1.0621,0.9473,0.8211,0.7814,0.693,0.5653,0.5038,0.4204,0.3196,0.2492,0.2228,0.2184,0.1917,0.1697,0.1563,-2.6791,-2.6691,0.0,0.0,0.0,0.0,0.0,0.0,0.0,0.0,0.0,0.0,0.0,0.0,0.0,0.0,0.0,-1.6251,-1.666,0.0,-1.3936,0.0,0.0,-1.3752,0.0,0.0,0.0,0.0,0.0,0.0,0.0,0.0,0.0,0.0,0.0,-1.6623,-1.6192,-1.5372,-1.4515,-1.366,-1.2658,-1.0602,-0.7738,0.0,-0.1996,-0.2069,-0.2068,0.0,0.0,-0.2113,-0.2112,0.0,0.0,0.0,0.0,0.0,0.0,0.0,0.0,0.0,0.0,-0.5487,0.0,0.0,0.0,0.0,-0.8748,0.0,0.0,0.0,0.0,0.0,-1.0189,-0.9807,0.0,0.0,0.0,0.0,0.0,0.0,0.0,0.0,0.0,0.0,0.0,2.4313,2.5052,2.5457,2.5386,2.4994,2.4617,2.4269,2.2457,2.0909,1.9702,1.7575,1.5886,1.4599,1.3514,1.2274,1.0912,1.041,0.9041,0.7071,0.7029,0.6052,0.443,0.3807,0.324,0.2627,0.1429,0.0939,0.1029,0.1607,0.1429,0.094,0.0,0.0,0.0,0.0,0.0,0.0,0.0,-2.5744,0.0,0.0,0.0,0.0,0.0,0.0,-2.1934,0.0,0.0,-1.8131,-1.7991,-1.6938,0.0,0.0,0.0,-1.5478,0.0,0.0,0.0,0.0,0.0,0.0,0.0,0.0,0.0,0.0,0.0,-1.8024,0.0,0.0,0.0,0.0,0.0,-1.2191,-0.972,0.0,0.0,-0.2938,-0.2938,-0.2633,0.0,-0.2213,-0.2546,-0.3046,-0.3778,-0.4356,-0.4918,-0.5655,-0.5882,0.0,0.0,0.0,-0.6956,-0.6956,0.0,0.0,0.0,0.0,0.0,0.0,0.0,0.0,0.0,0.0,-1.1379,-1.1573,-1.1737,-1.179,0.0,0.0,0.0,0.0,0.0,0.0,0.0,0.0,0.0,2.2985,2.4306,2.5168,0.0,2.5166,2.4679,2.3859,2.22,2.0666,1.9329,1.6487,1.4649,1.3898,1.1606,1.0247,0.9716,0.8409,0.7438,0.6728,0.6209,0.524,0.3964,0.3629,0.2483,0.0889,0.0446,-0.0178,-0.0803,-0.0223,-0.0134,-0.0358,-2.7046,0.0,0.0,0.0,0.0,0.0,0.0,0.0,0.0,0.0,-2.7195,0.0,-2.6553,0.0,-2.314,0.0,-2.1027,-1.9866,-1.9555,-1.8887,0.0,-1.7129,-1.7744,0.0,0.0,0.0,0.0,0.0,0.0,-1.6565,0.0,0.0,0.0,0.0,0.0,0.0,0.0,0.0,-1.9838,0.0,0.0,-1.4094,0.0,0.0,-0.6702,-0.4837,0.0,-0.4358,-0.3773,-0.3773,-0.4097,-0.4532,-0.5031,-0.5521,-0.6009,-0.647,-0.6588,-0.6588,-0.6588,-0.7337,0.0,-0.8078,-0.9124,0.0,-1.0167,0.0,0.0,0.0,0.0,0.0,0.0,0.0,-1.2388,-1.3056,-1.344,-1.3973,0.0,-1.0185,0.0,0.0,0.0,0.0,0.0,0.0,1.6516,1.809,2.0386,2.2486,0.0,0.0,2.4166,2.31,2.1133,1.9418,1.8007,1.4862,1.2918,1.2116,0.9594,0.8118,0.768,0.6347,0.5572,0.5189,0.4726,0.3954,0.3061,0.2481,0.1374,-0.0044,-0.049,-0.1114,-0.1741,-0.1385,-0.1339,-0.1604,0.0,0.0,0.0,0.0,-2.5704,0.0,0.0,0.0,-2.7594,0.0,-2.8035,-2.7641,-2.556,-2.4919,-2.4114,-2.2738,-2.1812,0.0,-2.1274,-2.0848,0.0,0.0,-2.0333,-1.9838,-1.8131,0.0,0.0,0.0,0.0,0.0,0.0,0.0,0.0,0.0,-1.9579,0.0,-2.0855,-2.0855,-2.0798,-2.0566,-1.8171,-1.6196,-1.4499,-1.3397,0.0,-0.7858,-0.7706,-0.7202,-0.6642,-0.6588,-0.6642,-0.6691,-0.6691,-0.6745,-0.6799,-0.6799,-0.6799,-0.6799,-0.6799,-0.7794,-0.8783,-0.8783,0.0,0.0,0.0,0.0,-1.2101,0.0,0.0,0.0,0.0,0.0,0.0,-1.4481,-1.469,-1.5031,-1.5992,0.0,0.0,0.0,0.0,0.0,0.0,0.1541,0.5023,0.9915,1.3507,0.0,0.0,0.0,2.288,2.1986,1.9321,1.718,1.5719,1.2745,1.0606,0.9264,0.7572,0.6077,0.486,0.4356,0.3575,0.2555,0.2551,0.2227,0.1564,0.0408,-0.0089,-0.0267,-0.1426,-0.1917,-0.1962,-0.1917,-0.2268,-0.2923,-2.7637,-2.8174,-2.8293,0.0,-2.6356,-2.5932,0.0,0.0,0.0,0.0,-2.8341,-2.814,-2.7554,-2.6493,-2.5422,-2.4532,-2.3293,0.0,0.0,0.0,0.0,-2.0411,-2.0523,-2.0415,-1.9968,-2.0015,0.0,-1.9106,0.0,0.0,-1.9008,0.0,0.0,0.0,0.0,0.0,-2.1454,-2.1454,-2.0941,-2.0017,-1.8478,-1.7087,0.0,0.0,-1.38,-1.118,-0.9172,-0.7935,-0.725,-0.674,-0.7272,-0.8159,-0.8159,-0.8888,-0.9717,-0.9717,-0.9717,-0.9717,-0.9717,-0.9982,-1.0246,-1.0246,-1.0897,-1.1657,0.0,0.0,0.0,0.0,0.0,0.0,0.0,0.0,0.0,-1.5296,-1.6614,-1.7695,0.0,0.0,0.0,-1.7837,0.0,0.0,-0.4273,-0.3862,-0.2019,0.2798,0.7008,0.0,0.0,0.0,0.0,1.9755,1.6512,1.379,1.179,0.912,0.7315,0.6408,0.4915,0.3785,0.2915,0.2207,0.1451,0.0697,0.0706,0.0344,-0.0245,-0.0549,-0.1417,-0.2612,-0.2926,-0.3632,-0.4291,-0.3413,-0.3719,-0.4639,-2.8112,0.0,0.0,-2.9121,0.0,0.0,-2.7829,0.0,0.0,-2.8547,-2.8754,0.0,-2.8008,-2.7258,-2.6356,-2.5307,-2.4527,0.0,0.0,0.0,0.0,-2.2699,-2.236,-2.2065,-2.1682,-2.1342,0.0,-2.0239,0.0,0.0,-2.0324,0.0,0.0,0.0,0.0,-2.1857,0.0,-2.183,-2.0893,-1.9489,-1.8789,0.0,0.0,-1.6769,-1.5624,-1.3721,-1.1908,-1.0285,-0.8919,-0.8574,-0.894,-0.9614,-0.9614,-1.0136,-1.0813,-1.0813,-1.0813,-1.0813,-1.0813,-1.1015,-1.1316,-1.1598,-1.2199,-1.2831,-1.349,-1.3935,-1.4411,0.0,0.0,0.0,0.0,0.0,0.0,0.0,0.0,0.0,0.0,0.0,0.0,0.0,0.0,0.0,-1.2614,-1.1649,-0.9565,-0.5244,0.0,0.0,0.0,0.0,0.0,1.3713,1.1479,0.9581,0.8091,0.5444,0.3746,0.3042,0.1922,0.0993,0.0276,-0.0166,-0.0555,-0.0939,-0.0942,-0.1329,-0.1985,-0.2251,-0.3044,-0.4166,-0.4478,-0.5229,-0.5973,-0.5551,-0.5647,-0.6107,0.0,0.0,0.0,0.0,0.0,0.0,0.0,-2.8354,0.0,-2.8628,0.0,-2.8964,-2.7661,-2.7422,-2.6892,-2.566,0.0,-2.5508,-2.5398,-2.5398,-2.5398,-2.5398,-2.4794,-2.4066,-2.3357,-2.2567,0.0,0.0,0.0,-2.0893,-2.1343,0.0,0.0,0.0,0.0,0.0,0.0,-2.1901,-2.0715,0.0,-1.9173,-1.8459,-1.7533,-1.7533,-1.6714,-1.5522,-1.4952,-1.3224,-1.1149,-1.0956,-1.0956,-1.1057,-1.1057,-1.1107,-1.1208,-1.1308,-1.1299,-1.1299,-1.1299,-1.1747,-1.2337,-1.2918,-1.3511,-1.4097,-1.4778,-1.4915,-1.5264,-1.6378,-1.6213,-1.6316,0.0,0.0,0.0,0.0,0.0,0.0,0.0,0.0,0.0,0.0,0.0,0.0,0.0,-1.9439,0.0,0.0,0.0,0.0,0.0,0.0,0.0,0.5722,0.4945,0.0,0.3773,0.0,-0.0163,-0.0872,-0.1375,-0.2047,-0.2777,-0.2668,-0.267,-0.2777,-0.2737,-0.3161,-0.3877,-0.4392,-0.4914,-0.5525,-0.6302,-0.6989,-0.756,-0.8123,-0.801,-0.7731,0.0,0.0,0.0,0.0,0.0,-2.9884,-2.917,-2.9657,-2.9689,-2.8678,-2.8611,0.0,-2.7637,-2.7095,-2.6629,-2.6361,-2.6283,0.0,0.0,0.0,0.0,-2.5398,-2.5287,-2.5119,-2.498,-2.4253,-2.38,0.0,-2.3101,-2.2643,-2.2228,-2.2865,0.0,0.0,0.0,0.0,-2.2607,-2.1435,0.0,-2.0457,-1.9904,-1.9258,-1.8722,-1.8722,-1.7678,-1.6221,-1.6115,-1.4846,-1.3022,-1.1908,-1.1966,-1.2425,-1.2425,-1.2822,-1.3369,-1.3878,-1.4018,-1.4018,-1.4018,-1.4122,-1.4215,-1.4318,-1.4468,-1.4824,-1.586,-1.6089,-1.6421,-1.7558,-1.772,-1.7746,-1.8052,0.0,0.0,0.0,0.0,0.0,0.0,0.0,0.0,0.0,0.0,0.0,0.0,0.0,0.0,0.0,0.0,0.0,0.0,0.0,0.0,0.0,0.0,0.0,0.0,0.0,-0.506,-0.5255,-0.4873,-0.5011,-0.5735,-0.5163,-0.5241,-0.5801,-0.5706,-0.6064,-0.6683,-0.6687,-0.7361,-0.8427,-0.8995,-0.9642,-1.0293,-1.0822,-1.0974,-1.0735,0.0,0.0,0.0,0.0,0.0,0.0,0.0,-2.9263,0.0,-2.8505,-2.807,-2.7715,-2.7396,-2.6842,-2.6637,-2.6946,-2.6722,-2.6564,-2.652,-2.6534,-2.6534,-2.6534,-2.6162,0.0,-2.596,-2.5231,-2.4851,-2.4851,-2.4285,-2.3823,-2.3482,-2.3629,0.0,0.0,0.0,-2.3108,0.0,0.0,0.0,-2.085,-2.081,-2.0647,-2.0382,-2.0043,-1.9232,-1.817,-1.7828,-1.6773,-1.5316,-1.3767,-1.347,-1.3784,-1.3784,-1.3982,-1.4329,-1.4606,-1.4698,-1.4698,-1.4698,-1.4698,-1.4835,-1.5443,-1.5564,-1.586,-1.7011,-1.7259,-1.7518,-1.8327,-1.8496,-1.8612,-1.8893,-1.9492,0.0,0.0,0.0,0.0,0.0,0.0,0.0,0.0,0.0,0.0,0.0,0.0,0.0,0.0,0.0,0.0,0.0,0.0,0.0,0.0,0.0,0.0,0.0,0.0,0.0,-0.8062,-0.7719,-0.7599,-0.7652,-0.7289,-0.7365,-0.7706,-0.7628,-0.7979,-0.8609,-0.8762,-0.9219,-0.9831,-1.0561,-1.1013,-1.1441,-1.2277,-1.26,-1.2494,0.0,-2.904,0.0,0.0,-2.9323,0.0,0.0,-2.8605,-2.8624,-2.8285,-2.7644,-2.7192,-2.7185,-2.6675,-2.6616,-2.73,-2.6964,-2.6957,-2.7488,-2.7436,-2.7338,-2.7338,-2.6806,-2.6518,-2.6518,-2.5943,-2.5618,0.0,-2.5171,-2.4803,-2.4517,-2.4365,-2.4158,0.0,0.0,0.0,0.0,0.0,-2.2136,-2.1304,-2.1578,-2.1697,-2.1627,-2.0877,-2.0285,-1.9804,-1.9031,-1.818,-1.7244,-1.5903,-1.5174,-1.4915,-1.5174,-1.5084,-1.496,-1.5297,-1.5342,-1.5264,-1.5264,-1.5353,-1.5596,-1.6391,-1.6689,-1.7011,-1.8052,-1.8263,-1.8419,-1.8968,-1.908,-1.9244,-1.9732,-2.0158,0.0,0.0,0.0,0.0,0.0,0.0,0.0,0.0,0.0,0.0,0.0,0.0,0.0,0.0,0.0,0.0,0.0,0.0,0.0,0.0,0.0,-1.3666,-1.2546,0.0,-1.1808,0.0,-1.0516,-1.0147,-0.9585,-0.9387,-0.9291,-0.9144,-0.9144,-0.9607,-1.042,-1.1059,-1.1289,-1.1395,-1.2188,-1.2581,-1.2797,-1.372,-1.4117,-1.4237,0.0,0.0,0.0,0.0,0.0,0.0,0.0,-2.8526,-2.7964,-2.8112,-2.7531,-2.714,-2.7205,-2.6627,-2.649,-2.7148,-2.7153,-2.7184,-2.7205,-2.6785,-2.6533,-2.6533,-2.6572,-2.6579,-2.6579,-2.6468,-2.6404,0.0,0.0,-2.5673,0.0,-2.5737,0.0,0.0,0.0,0.0,0.0,-2.2905,-2.262,-2.2472,-2.1932,-2.1697,-2.1572,-2.0426,-1.9956,-1.9749,-1.8589,-1.8108,-1.7987,-1.7854,-1.676,-1.5708,-1.668,-1.6311,-1.5784,-1.7341,-1.745,-1.705,-1.705,-1.7409,-1.7679,-1.7299,-1.7572,-1.8092,-1.8688,-1.8817,-1.8968,-1.953,-1.9639,-1.9732,-2.0193,-2.0616,-2.1055,0.0,0.0,0.0,0.0,0.0,0.0,0.0,0.0,0.0,0.0,0.0,0.0,0.0,0.0,0.0,0.0,0.0,0.0,-2.2432,0.0,-2.0086,-1.8235,-1.6685,0.0,-1.4228,-1.3627,-1.3012,-1.2406,-1.1742,-1.1115,-1.0602,-1.0602,-1.134,-1.2609,-1.3778,-1.4299,-1.4334,-1.49,-1.5492,-1.596,-1.6101,-1.6477,-1.6916,0.0,0.0,0.0,0.0,0.0,0.0,0.0,-2.8163,-2.7889,-2.7956,-2.7335,-2.6883,-2.6912,-2.6421,-2.6346,-2.6967,-2.6752,-2.6796,-2.7169,-2.6988,-2.6902,-2.6902,-2.7371,-2.764,-2.764,-2.7646,-2.7715,0.0,0.0,0.0,0.0,0.0,0.0,0.0,0.0,-2.4787,-2.4149,-2.3496,-2.3246,-2.3231,-2.2935,-2.2628,-2.2207,-2.1322,-2.0741,-2.0237,-1.9377,-1.8855,-1.8612,-1.8968,-1.8196,-1.7177,-1.7585,-1.7464,-1.7218,-1.7894,-1.7947,-1.7787,-1.7787,-1.7947,-1.8145,-1.8224,-1.8419,-1.8727,-1.9244,-1.9369,-1.9515,-1.9965,-2.0261,-2.0532,-2.0682,-2.1086,-2.1399,0.0,0.0,0.0,0.0,0.0,0.0,0.0,0.0,0.0,0.0,0.0,-2.4086,0.0,0.0,0.0,0.0,0.0,0.0,-2.4599,0.0,-2.1625,-2.04,-1.8806,-1.7251,-1.5696,-1.5106,-1.4516,-1.3924,-1.3622,-1.3375,-1.3148,-1.3148,-1.3433,-1.3982,-1.4503,-1.4903,-1.5229,-1.5792,-1.6384,-1.6902,-1.73,-1.7571,-1.7813,-2.7888,0.0,-2.8559,0.0,-2.8566,-2.8642,-2.8136,-2.7964,-2.7897,-2.7897,-2.7426,-2.6987,-2.6906,-2.647,-2.6391,-2.6816,-2.6531,-2.6552,-2.7016,-2.6929,-2.6865,-2.6865,-2.7358,0.0,-2.7684,-2.8194,-2.8436,-2.8436,-2.8211,0.0,0.0,0.0,0.0,0.0,-2.6099,-2.5699,-2.5068,-2.4365,-2.3991,-2.3837,-2.3837,-2.3495,-2.2862,-2.2009,-2.141,-2.0887,-2.0004,-1.9442,-1.9207,-1.9717,-1.9303,-1.8574,-1.8574,-1.8341,-1.8185,-1.8496,-1.8458,-1.8341,-1.8341,-1.8458,-1.8612,-1.8855,-1.9103,-1.9398,-1.9788,-1.998,-2.0174,-2.0449,-2.0764,-2.1039,-2.115,-2.1399,-2.1672,-2.189,0.0,0.0,0.0,0.0,0.0,0.0,0.0,-2.2848,-2.2848,0.0,0.0,0.0,0.0,0.0,0.0,0.0,0.0,0.0,0.0,0.0,0.0,-2.0206,-1.8604,-1.7174,-1.6625,-1.6034,-1.5419,-1.5229,-1.5184,-1.5184,-1.5363,-1.5463,-1.5463,-1.564,-1.5922,-1.6316,-1.6902,-1.7356,-1.7759,-1.8338,-1.8622,-1.8797,-2.7805,-2.7824,-2.8058,-2.8847,-2.8676,-2.8394,-2.8394,-2.8102,-2.7897,-2.7897,-2.7897,-2.7736,-2.7334,-2.6939,-2.6691,-2.6708,-2.6708,-2.6708,-2.6725,-2.6279,-2.603,0.0,0.0,-2.6222,-2.6222,-2.7604,-2.8307,-2.8307,0.0,0.0,-2.8405,0.0,-2.8388,-2.834,-2.7624,-2.6894,-2.6246,-2.5486,-2.4855,-2.4389,-2.4389,-2.4074,-2.3445,-2.2173,-2.1695,-2.15,-2.0168,-1.969,-1.9747,-2.0158,-2.0035,-1.969,-1.969,-1.8968,-1.8302,-1.9369,-1.9332,-1.8893,-1.8893,-1.9281,-1.9566,-1.9043,-1.96,-2.028,-2.028,-2.0649,-2.1007,-2.0991,-2.1007,-2.1118,-2.1521,-2.1582,-2.1832,-2.2565,0.0,0.0,0.0,0.0,0.0,0.0,-2.3189,-2.3189,-2.3189,0.0,0.0,0.0,0.0,0.0,0.0,0.0,0.0,-2.5535,-2.5031,0.0,-2.3389,-2.106,-1.9603,-1.9058,-1.8382,-1.7746,-1.7124,-1.6561,-1.6283,-1.6296,-1.6892,-1.7179,-1.722,-1.78,-1.8052,-1.8131,-1.865,-1.8878,-1.893,-1.9405,-1.9869,-2.0265,-2.717,-2.7087,-2.7236,-2.8044,-2.7624,-2.7356,-2.7903,-2.7906,-2.7834,-2.7834,-2.807,-2.8192,-2.8057,-2.7718,-2.7409,0.0,-2.7115,-2.6987,0.0,-2.6556,-2.647,-2.647,-2.6997,-2.7557,-2.8089,-2.8115,-2.8673,-2.9678,0.0,0.0,0.0,-2.988,-2.9806,-2.8911,-2.8232,-2.7591,-2.6919,-2.5718,-2.5105,-2.495,-2.495,-2.4586,-2.3912,-2.2979,-2.2389,-2.1839,-2.0928,-2.0599,-2.0599,-2.0731,-2.0698,-2.0599,-2.0599,-1.9934,-1.9303,-1.9914,-1.9788,-1.9515,-1.9793,-1.9969,-2.0158,-2.0299,-2.055,-2.0797,-2.0797,-2.1102,-2.1399,-2.1399,-2.1675,-2.1969,-2.2296,-2.2351,-2.2495,-2.2972,-2.3045,0.0,0.0,0.0,0.0,0.0,0.0,-2.4675,0.0,-2.6287,0.0,0.0,0.0,0.0,0.0,0.0,0.0,0.0,-2.5624,0.0,-2.4492,-2.2663,-2.1465,-2.0862,-1.944,-1.8438,-1.78,-1.7599,-1.7545,-1.7558,-1.7746,-1.7826,-1.7866,-1.8363,-1.8608,-1.8727,-1.9504,-1.9803,-1.9919,-2.04,-2.0649,-2.0781,-2.6541,-2.6395,-2.6536,-2.7329,-2.6988,-2.6778,-2.7273,-2.7346,-2.7346,-2.7346,-2.7825,-2.8161,-2.8161,-2.8258,0.0,-2.756,-2.7396,-2.721,-2.6939,-2.6774,-2.6691,-2.6691,-2.7148,-2.7621,-2.8112,0.0,0.0,-2.937,-2.8812,-2.8902,-2.9559,-3.0106,-2.9938,-2.911,-2.836,-2.7838,-2.7431,-2.6253,-2.5672,-2.5503,-2.5503,-2.5153,-2.4484,-2.3795,-2.325,-2.2756,-2.176,-2.1407,-2.1408,-2.1278,-2.1118,-2.1071,-2.1401,-2.0894,-2.0243,-2.0483,-2.0398,-2.0243,-2.0483,-2.055,-2.0616,-2.0926,-2.1118,-2.1275,-2.1462,-2.1761,-2.2017,-2.2017,-2.233,-2.2669,-2.2848,-2.2898,-2.2996,-2.3346,-2.3392,-2.3414,-2.3566,0.0,0.0,0.0,0.0,0.0,0.0,-2.727,0.0,0.0,0.0,0.0,0.0,0.0,0.0,-2.7427,-2.603,0.0,-2.5372,-2.3929,-2.301,-2.2609,-2.1,-2.0003,-1.959,-1.9332,-1.9192,-1.9192,-1.9192,-1.9192,-1.9214,-1.9504,-1.9662,-1.9728,-2.0286,-2.0518,-2.0616,-2.1039,-2.1213,-2.1244,-2.5925,-2.5766,0.0,0.0,-2.6632,0.0,-2.6523,-2.6542,-2.656,-2.6594,-2.7291,-2.7824,-2.7879,-2.8503,-2.867,-2.8037,0.0,0.0,0.0,-2.6971,-2.6758,-2.6758,-2.6758,-2.6775,-2.6826,-2.7436,-2.7774,-2.7789,-2.8602,-2.9347,-3.0023,-2.9313,-2.9011,-2.8941,-2.8163,-2.7789,-2.7739,-2.7012,-2.6436,-2.6049,-2.6049,-2.5762,-2.5201,-2.4498,-2.4209,-2.4051,-2.2633,-2.2149,-2.215,-2.1817,-2.1513,-2.1374,-2.2132,-2.1817,-2.1151,-2.1071,-2.1023,-2.1007,-2.1023,-2.1023,-2.1055,-2.1071,-2.1399,-2.1807,-2.222,-2.2554,-2.2746,-2.2746,-2.2996,-2.3212,-2.3212,-2.3236,-2.3346,-2.3671,-2.3735,-2.3837,-2.4171,0.0,0.0,0.0,0.0,0.0,0.0,-2.7718,-2.8103,0.0,0.0,0.0,0.0,0.0,-2.7561,-2.6798,-2.6301,-2.6049,-2.6049,-2.4912,-2.4285,-2.4184,-2.2868,-2.2178,-2.2066,-2.1391,-2.1039,-2.0991,-2.0991,-2.0991,-2.0991,-2.1023,-2.1039,-2.1007,-2.1071,-2.1055,-2.1086,-2.1491,-2.1658,-2.1718,0.0,0.0,-2.528,-2.6075,-2.5684,-2.5379,-2.5838,-2.5913,-2.6078,-2.6542,-2.7291,-2.8026,-2.865,-2.8338,-2.8251,-2.8713,-2.8368,-2.8029,-2.7765,-2.7378,-2.7147,-2.7147,-2.7147,-2.7422,-2.7975,-2.7629,-2.7552,-2.7789,-2.8602,-2.9076,-2.9245,-2.9059,-2.9011,-2.8941,-2.8163,-2.7789,-2.7739,-2.7012,-2.6624,-2.6539,-2.6539,-2.647,-2.6199,-2.4912,-2.4427,-2.4243,-2.2789,-2.2622,-2.3087,-2.2979,-2.3281,-2.362,-2.3249,-2.3005,-2.2645,-2.1732,-2.1244,-2.1055,-2.1368,-2.146,-2.1538,-2.1915,-2.2209,-2.2459,-2.2582,-2.2848,-2.3069,-2.3069,-2.3141,-2.3277,-2.3544,-2.3566,-2.3692,-2.4016,-2.4074,-2.4153,-2.441,-2.4461,0.0,0.0,-2.6513,-2.7207,-2.797,-2.869,-2.9076,0.0,0.0,0.0,0.0,-2.854,-2.8067,-2.7632,-2.6916,-2.6539,-2.6539,-2.5903,-2.5131,-2.42,-2.3863,-2.3141,-2.2082,-2.1921,-2.1519,-2.0991,-2.0991,-2.0991,-2.1023,-2.1337,-2.1275,-2.1071,-2.1721,-2.1781,-2.1491,-2.1974,-2.2135,-2.2192,-2.513,-2.5005,-2.5029,-2.547,-2.513,-2.4911,-2.5239,-2.5281,-2.5383,-2.5597,-2.6334,-2.6977,-2.7331,-2.7622,-2.797,-2.8411,-2.807,-2.7921,-2.8112,-2.7794,-2.756,-2.756,-2.756,-2.777,-2.8159,-2.7787,-2.7823,-2.8332,-2.827,-2.8408,-2.8698,-2.8184,-2.8066,-2.8203,-2.7775,-2.7587,-2.7553,-2.7142,-2.6873,-2.6691,-2.6691,-2.6488,-2.615,-2.5676,-2.5193,-2.468,-2.4247,-2.4207,-2.4313,-2.3984,-2.4123,-2.433,-2.3542,-2.3317,-2.3187,-2.2508,-2.2068,-2.1857,-2.2235,-2.2317,-2.2388,-2.2643,-2.2704,-2.2746,-2.288,-2.3189,-2.3414,-2.3414,-2.3544,-2.3714,-2.3896,-2.3917,-2.3996,-2.417,-2.4266,-2.4375,-2.4478,-2.4973,0.0,-2.6607,-2.7437,-2.8206,-2.894,-2.9232,-2.9351,-2.9225,0.0,0.0,-2.8994,-2.8633,-2.8264,-2.7926,-2.7487,-2.7147,-2.6971,-2.6888,-2.6453,-2.5613,-2.528,-2.463,-2.3671,-2.2996,-2.2578,-2.2285,-2.1807,-2.1744,-2.1995,-2.1953,-2.1948,-2.2051,-2.2358,-2.2412,-2.2361,-2.2599,-2.2712,-2.2721,-2.5303,-2.5163,-2.5046,-2.5046,-2.4943,-2.4874,-2.4828,-2.4828,-2.4813,-2.4746,-2.5312,-2.5744,-2.5668,-2.6792,-2.7585,-2.7714,-2.7264,-2.7399,-2.8424,-2.8049,-2.7857,-2.7964,-2.7982,-2.7982,-2.7982,-2.7982,-2.8273,-2.8824,-2.7874,-2.7726,-2.8288,-2.7328,-2.7051,-2.7378,-2.7378,-2.7378,-2.7378,-2.7378,-2.721,-2.6873,-2.6873,-2.643,-2.5851,-2.6465,-2.6021,-2.516,-2.5849,-2.5865,-2.5401,-2.4789,-2.4577,-2.441,-2.3614,-2.3383,-2.3348,-2.3294,-2.3069,-2.2898,-2.3141,-2.3189,-2.3189,-2.3189,-2.3021,-2.2923,-2.3212,-2.3544,-2.3774,-2.3774,-2.3996,-2.419,-2.419,-2.419,-2.419,-2.419,-2.4375,-2.4495,-2.4495,0.0,-2.6619,-2.7445,-2.8155,-2.8795,-2.9396,-2.9288,-2.9005,-2.865,-2.8847,-2.8938,0.0,-2.85,-2.819,-2.7964,-2.7926,-2.7701,-2.7222,-2.7425,-2.7425,-2.7204,-2.6561,-2.6105,-2.5732,-2.4334,-2.3876,-2.4083,-2.3059,-2.2963,-2.3519,-2.3005,-2.3093,-2.3543,-2.3255,-2.3252,-2.3407,-2.3531,-2.3496,-2.3407,-2.5303,-2.5274,-2.5253,-2.5253,-2.5243,-2.5171,-2.4986,-2.4974,-2.5164,-2.5706,-2.5882,-2.6204,-2.6866,-2.6531,-2.6549,-2.7225,-2.6451,-2.6776,-2.8782,-2.7906,-2.7597,-2.8306,-2.8316,-2.8316,-2.8316,-2.8316,-2.8237,-2.8074,-2.7893,-2.7864,-2.7988,-2.7806,-2.7754,-2.7811,-2.7811,-2.7811,-2.7811,-2.7811,-2.7783,-2.7707,-2.7707,-2.7238,-2.6542,-2.6722,-2.6231,-2.5447,-2.5623,-2.5614,-2.549,-2.5366,-2.5322,-2.5208,-2.4378,-2.4131,-2.4056,-2.3719,-2.3588,-2.3482,-2.3259,-2.3189,-2.3189,-2.3189,-2.3369,-2.3566,-2.361,-2.3876,-2.4113,-2.4113,-2.417,-2.419,-2.419,-2.419,-2.419,-2.419,-2.4375,-2.4495,-2.4495,0.0,-2.6548,-2.7188,-2.7365,-2.77,-2.8297,-2.817,-2.7739,-2.7034,-2.8223,-2.8705,-2.8026,-2.7926,-2.8038,-2.8306,-2.8047,-2.755,-2.6803,-2.6188,-2.6188,-2.6785,-2.6679,-2.6609,-2.6591,-2.5614,-2.5226,-2.5295,-2.4433,-2.4501,-2.523,-2.5128,-2.5128,-2.523,-2.5161,-2.4772,-2.4293,-2.4999,-2.4797,-2.439,-2.5303,-2.5303,-2.5303,-2.5303,-2.5303,-2.5264,-2.5192,-2.5163,-2.5241,-2.5449,-2.546,-2.5589,-2.5884,-2.5966,-2.6155,-2.6516,-2.6134,-2.6483,-2.794,-2.7699,-2.7893,-2.8688,-2.8707,-2.8707,-2.8707,-2.8707,-2.8651,-2.8482,-2.8281,-2.8183,-2.8156,-2.7964,-2.801,-2.8183,-2.8183,-2.8183,-2.8148,-2.7692,-2.7424,-2.7214,-2.679,-2.6127,-2.5508,-2.6401,-2.5824,-2.4712,-2.6007,-2.6303,-2.6026,-2.5574,-2.5737,-2.5876,-2.4649,-2.4252,-2.4201,-2.4026,-2.3976,-2.3955,-2.3774,-2.3628,-2.3522,-2.3692,-2.3714,-2.3753,-2.3917,-2.4094,-2.419,-2.419,-2.419,-2.4228,-2.4339,-2.4357,-2.4357,-2.4357,-2.4588,0.0,0.0,-2.5697,-2.6546,-2.6836,-2.7148,-2.7464,-2.7749,-2.7603,-2.7307,-2.6954,-2.7605,-2.7866,-2.7493,-2.7475,-2.7547,-2.774,-2.7616,-2.7456,-2.7308,-2.6489,-2.6159,-2.6318,-2.6754,-2.689,-2.6719,-2.6357,-2.6294,-2.6419,-2.5458,-2.5457,-2.6103,-2.5754,-2.5804,-2.6103,-2.5943,-2.5751,-2.5638,-2.6129,-2.6085,-2.5853,-2.5303,-2.5303,-2.5303,-2.5303,-2.5303,-2.5303,-2.5303,-2.5303,-2.5234,-2.5088,-2.5077,-2.503,-2.4923,-2.547,-2.5835,-2.5835,-2.5788,-2.6212,-2.7198,-2.7513,-2.8017,-2.8827,-2.9023,-2.9067,-2.8994,-2.8994,-2.8994,-2.8994,-2.8682,-2.854,-2.854,-2.8281,-2.8308,-2.854,-2.854,-2.8431,-2.8214,-2.7598,-2.709,-2.6613,-2.6007,-2.5258,-2.4706,-2.6132,-2.559,-2.436,-2.6349,-2.6745,-2.6227,-2.5623,-2.5676,-2.5841,-2.4593,-2.419,-2.4209,-2.4266,-2.4266,-2.4266,-2.4209,-2.4016,-2.3876,-2.4151,-2.3996,-2.3896,-2.4151,-2.419,-2.4209,-2.4266,-2.4266,-2.4339,-2.4545,-2.4559,-2.4559,-2.4559,0.0,0.0,0.0,-2.5848,-2.6591,-2.654,-2.6931,-2.7216,-2.7216,-2.7051,-2.6836,-2.6663,-2.6987,-2.7118,-2.693,-2.693,-2.693,-2.693,-2.6882,-2.6991,-2.7303,-2.6468,-2.6063,-2.6144,-2.6584,-2.6927,-2.7228,-2.6897,-2.7069,-2.7562,-2.6554,-2.6506,-2.712,-2.6598,-2.6687,-2.7141,-2.6886,-2.6849,-2.6995,-2.7344,-2.7382,-2.7323,-2.5303,-2.5303,-2.5303,-2.5303,-2.5303,-2.5303,-2.5303,-2.5303,-2.5284,-2.5274,-2.5274,-2.5274,-2.5264,-2.5311,-2.5349,-2.5349,-2.5184,-2.5755,-2.738,-2.7324,-2.7591,-2.842,-2.9044,-2.9246,-2.9017,-2.8994,-2.8994,-2.8994,-2.8952,-2.897,-2.897,-2.8929,-2.8929,-2.897,-2.897,-2.853,-2.7838,-2.7783,-2.7303,-2.6603,-2.6548,-2.6036,-2.5395,-2.6292,-2.6057,-2.5381,-2.6295,-2.6151,-2.5495,-2.5421,-2.4924,-2.4355,-2.4245,-2.419,-2.4247,-2.4409,-2.4478,-2.4445,-2.4266,-2.417,-2.417,-2.419,-2.417,-2.417,-2.419,-2.419,-2.4247,-2.4426,-2.4478,-2.4545,-2.4746,-2.4775,-2.4775,-2.4775,0.0,0.0,-2.4832,-2.5848,-2.6529,-2.6333,-2.6365,-2.639,-2.639,-2.6214,-2.5778,-2.5035,-2.6362,-2.6874,-2.6136,-2.6098,-2.6098,-2.6098,-2.5907,-2.582,-2.5856,-2.4874,-2.5106,-2.6551,-2.5858,-2.6698,-2.8777,-2.7299,-2.7427,-2.8824,-2.7999,-2.8091,-2.881,-2.8787,-2.8787,-2.881,-2.8787,-2.8473,-2.8089,-2.8909,-2.8858,-2.852,-2.5428,-2.539,-2.537,-2.537,-2.5322,-2.5303,-2.5303,-2.5303,-2.5303,-2.5303,-2.5303,-2.5303,-2.5303,-2.5303,-2.5303,-2.5303,-2.5224,-2.5461,-2.6082,-2.707,-2.8103,-2.9166,-2.9438,-2.9533,-2.9436,-2.9436,-2.9436,-2.9436,-2.9436,-2.9436,-2.9436,-2.9436,-2.9375,-2.9246,-2.9246,-2.8716,-2.7769,-2.7273,-2.6594,-2.5805,-2.5309,-2.4924,-2.474,-2.5548,-2.5346,-2.4759,-2.5566,-2.5658,-2.5349,-2.4968,-2.4893,-2.4891,-2.4644,-2.4495,-2.4428,-2.4623,-2.4685,-2.467,-2.4591,-2.4478,-2.4393,-2.4393,-2.4478,-2.4559,-2.4559,-2.4559,-2.4591,-2.467,-2.4685,-2.4727,-2.4904,-2.4911,-2.4911,-2.4911,0.0,-2.513,-2.4956,-2.5428,-2.5773,-2.5702,-2.5672,-2.5672,-2.5672,-2.5616,-2.5447,-2.5134,-2.5683,-2.5881,-2.5588,-2.5569,-2.5569,-2.5569,-2.5378,-2.5469,-2.5893,-2.5508,-2.5622,-2.6241,-2.6969,-2.781,-2.8689,-2.8559,-2.8779,-2.9228,-2.906,-2.9077,-2.9267,-2.9377,-2.9436,-2.9436,-2.9436,-2.9308,-2.9156,-2.9599,-2.9639,-2.9521,-2.5495,-2.5459,-2.5423,-2.5418,-2.539,-2.537,-2.537,-2.537,-2.537,-2.5322,-2.5322,-2.5322,-2.5303,-2.5303,-2.5303,-2.5303,-2.5303,-2.5418,-2.5687,-2.7082,-2.8472,-2.9756,-2.9796,-2.9763,-2.9696,-2.9696,-2.9696,-2.9696,-2.9696,-2.9696,-2.9677,-2.9413,-2.9212,-2.9063,-2.882,-2.8164,-2.7189,-2.6652,-2.5949,-2.5171,-2.4615,-2.4393,-2.4448,-2.5004,-2.4874,-2.4467,-2.5004,-2.5208,-2.5152,-2.4729,-2.4867,-2.5151,-2.4885,-2.4727,-2.4682,-2.4775,-2.4828,-2.4855,-2.4818,-2.4727,-2.4651,-2.4607,-2.47,-2.4804,-2.4804,-2.4804,-2.4818,-2.4855,-2.4869,-2.4904,-2.5065,-2.5099,-2.5099,-2.5099,-2.5214,-2.5253,-2.5111,-2.5214,-2.5303,-2.5303,-2.5303,-2.5303,-2.5303,-2.5303,-2.5303,-2.5322,-2.5322,-2.5341,-2.537,-2.537,-2.5341,-2.5322,-2.5201,-2.5335,-2.5777,-2.5924,-2.6125,-2.639,-2.7557,-2.8388,-2.8881,-2.9202,-2.9399,-2.9494,-2.9625,-2.9607,-2.9494,-2.9643,-2.9696,-2.9696,-2.9696,-2.9748,-2.9813,-2.9954,-3.0042,-3.015,-2.5516,-2.5493,-2.5504,-2.5495,-2.5505,-2.5505,-2.5505,-2.5505,-2.5486,-2.5409,-2.5409,-2.539,-2.5303,-2.5303,-2.5303,-2.5303,-2.5303,-2.5668,-2.6544,-2.7409,-2.8514,-2.9918,-2.998,-2.9889,-2.9695,-2.9713,-2.9713,-2.9713,-2.9713,-2.9695,-2.9676,-2.8791,-2.8395,-2.8357,-2.7552,-2.6742,-2.6004,-2.6004,-2.5548,-2.4804,-2.4804,-2.4804,-2.4804,-2.4804,-2.4804,-2.4804,-2.4804,-2.4804,-2.4804,-2.4804,-2.4804,-2.4804,-2.4804,-2.4891,-2.4974,-2.4842,-2.4891,-2.4974,-2.4842,-2.4904,-2.4974,-2.4828,-2.4804,-2.4804,-2.4804,-2.4804,-2.4842,-2.4974,-2.501,-2.5057,-2.5264,-2.5303,-2.5303,-2.5303,-2.5303,-2.5303,-2.5303,-2.5303,-2.5303,-2.5303,-2.5303,-2.5303,-2.5303,-2.5303,-2.5322,-2.5409,-2.5409,-2.5428,-2.5505,-2.5505,-2.5466,-2.5409,-2.5409,-2.537,-2.5303,-2.5779,-2.6427,-2.7204,-2.7289,-2.8161,-2.9676,-2.8879,-2.8938,-2.9713,-2.9713,-2.9713,-2.9713,-2.9713,-2.9713,-2.9713,-2.9713,-2.9829,-2.9999,-2.9999,-3.0163,-3.0398,-2.5638,-2.5597,-2.5574,-2.5573,-2.5532,-2.5499,-2.5499,-2.5499,-2.548,-2.546,-2.5479,-2.5466,-2.5447,-2.5447,-2.5428,-2.537,-2.537,-2.5717,-2.6544,-2.6832,-2.7445,-2.8476,-2.907,-2.9334,-2.9283,-2.9876,-2.9895,-2.9283,-2.9283,-2.8996,-2.8428,-2.8173,-2.7943,-2.7747,-2.7519,-2.6896,-2.6004,-2.6004,-2.5548,-2.4804,-2.4804,-2.4804,-2.4804,-2.4804,-2.4804,-2.4804,-2.4804,-2.4804,-2.4799,-2.4917,-2.4877,-2.4818,-2.4917,-2.5065,-2.5203,-2.516,-2.5182,-2.5203,-2.516,-2.5182,-2.5182,-2.4993,-2.5049,-2.5149,-2.5149,-2.5149,-2.516,-2.5203,-2.5214,-2.5224,-2.5303,-2.5303,-2.5303,-2.5303,-2.5303,-2.5303,-2.5303,-2.5341,-2.537,-2.537,-2.5409,-2.5447,-2.5447,-2.5447,-2.5447,-2.5466,-2.5461,-2.548,-2.5499,-2.5499,-2.548,-2.546,-2.5481,-2.5466,-2.5447,-2.6688,-2.7458,-2.7713,-2.8894,-2.9736,-3.0182,-2.9934,-2.9865,-2.9924,-3.0114,-3.008,-2.9924,-3.0109,-3.0202,-3.0202,-3.0202,-3.0228,-3.0267,-3.0267,-3.0362,-3.0467,-2.5703,-2.5664,-2.5644,-2.5644,-2.5615,-2.557,-2.557,-2.557,-2.557,-2.5531,-2.5537,-2.5531,-2.5499,-2.5492,-2.5472,-2.5434,-2.5446,-2.564,-2.6101,-2.614,-2.6351,-2.6851,-2.7659,-2.8275,-2.8621,-2.914,-2.9159,-2.8621,-2.8621,-2.8371,-2.789,-2.7544,-2.7297,-2.7127,-2.6771,-2.6301,-2.5722,-2.5722,-2.545,-2.5006,-2.5006,-2.5006,-2.5006,-2.5006,-2.5006,-2.5006,-2.5006,-2.5006,-2.5,-2.5077,-2.5072,-2.5,-2.5088,-2.5203,-2.5303,-2.5303,-2.5303,-2.5303,-2.5303,-2.5322,-2.5312,-2.519,-2.5233,-2.5303,-2.5303,-2.5322,-2.5341,-2.5341,-2.537,-2.539,-2.539,-2.539,-2.539,-2.539,-2.539,-2.539,-2.539,-2.5409,-2.5447,-2.5437,-2.5472,-2.5492,-2.5492,-2.5492,-2.5509,-2.5534,-2.556,-2.557,-2.557,-2.557,-2.557,-2.5531,-2.5534,-2.5697,-2.6002,-2.7318,-2.7961,-2.7956,-2.9256,-3.0083,-3.0398,-3.0398,-3.0311,-3.0182,-3.0323,-3.0311,-3.0163,-3.0323,-3.0398,-3.0398,-3.0398,-3.0417,-3.0448,-3.0448,-3.0487,-3.0537,-2.5703,-2.5703,-2.5703,-2.5703,-2.5703,-2.5703,-2.5703,-2.5703,-2.5684,-2.5625,-2.5605,-2.5581,-2.552,-2.5526,-2.5526,-2.5507,-2.5495,-2.5457,-2.5399,-2.5418,-2.539,-2.5322,-2.6082,-2.6871,-2.7659,-2.7832,-2.7852,-2.7775,-2.7775,-2.7736,-2.764,-2.6851,-2.6486,-2.6447,-2.5649,-2.5303,-2.5303,-2.5303,-2.5303,-2.5303,-2.5303,-2.5303,-2.5303,-2.5303,-2.5303,-2.5303,-2.5303,-2.5303,-2.5303,-2.5303,-2.5303,-2.5303,-2.5303,-2.5303,-2.5303,-2.5303,-2.5303,-2.5303,-2.5322,-2.537,-2.5409,-2.5418,-2.5361,-2.5313,-2.5313,-2.537,-2.5409,-2.5418,-2.5457,-2.5505,-2.5505,-2.5505,-2.5505,-2.5505,-2.5505,-2.5505,-2.5505,-2.5515,-2.5511,-2.5515,-2.5513,-2.5526,-2.5526,-2.5526,-2.5535,-2.5608,-2.5675,-2.5703,-2.5703,-2.5703,-2.5703,-2.5723,-2.5723,-2.6115,-2.6919,-2.7727,-2.8106,-2.8129,-2.889,-2.964,-3.0417,-3.0417,-3.0417,-3.0417,-3.0417,-3.0417,-3.0417,-3.0417,-3.0417,-3.0417,-3.0417,-3.0467,-3.0506,-3.051,-3.0548,-3.0609,-2.5703,-2.5703,-2.5703,-2.5703,-2.5703,-2.5703,-2.5703,-2.5703,-2.5684,-2.5684,-2.5684,-2.5664,-2.566,-2.5659,-2.564,-2.5581,-2.5539,-2.5485,-2.5485,-2.5479,-2.5466,-2.5466,-2.564,-2.5832,-2.6024,-2.7255,-2.7563,-2.689,-2.689,-2.6524,-2.587,-2.5668,-2.5572,-2.5572,-2.538,-2.5303,-2.5303,-2.5303,-2.5303,-2.5303,-2.5303,-2.5303,-2.5303,-2.5303,-2.5303,-2.5303,-2.5303,-2.5303,-2.5303,-2.5303,-2.5303,-2.5303,-2.5303,-2.5303,-2.5303,-2.537,-2.539,-2.539,-2.5447,-2.5466,-2.5475,-2.5486,-2.5465,-2.5467,-2.5456,-2.5466,-2.5484,-2.5473,-2.5485,-2.5504,-2.5504,-2.5504,-2.5504,-2.5504,-2.5504,-2.5504,-2.5504,-2.5545,-2.5582,-2.558,-2.5613,-2.5659,-2.5659,-2.5659,-2.5657,-2.5685,-2.5681,-2.5703,-2.5703,-2.5703,-2.6016,-2.668,-2.6691,-2.7114,-2.796,-2.8116,-2.8495,-2.911,-2.9894,-3.0371,-3.0564,-3.0564,-3.0564,-3.0564,-3.0564,-3.0564,-3.0564,-3.0564,-3.0564,-3.0564,-3.0564,-3.0564,-3.0568,-3.0582,-3.0616,-3.07,-2.5703,-2.5703,-2.5703,-2.5703,-2.5703,-2.5703,-2.5703,-2.5703,-2.5703,-2.5703,-2.5703,-2.5703,-2.5703,-2.5703,-2.5684,-2.5644,-2.5615,-2.5579,-2.554,-2.5554,-2.5523,-2.5503,-2.5495,-2.5495,-2.5495,-2.6328,-2.6522,-2.6082,-2.6082,-2.5851,-2.5409,-2.5409,-2.5409,-2.539,-2.537,-2.537,-2.539,-2.537,-2.5341,-2.5341,-2.539,-2.539,-2.5341,-2.539,-2.5409,-2.5409,-2.5409,-2.5409,-2.5409,-2.5409,-2.5409,-2.5409,-2.5409,-2.5409,-2.5409,-2.5447,-2.5453,-2.5456,-2.5495,-2.552,-2.5553,-2.5546,-2.5576,-2.559,-2.5498,-2.5511,-2.5543,-2.5546,-2.5576,-2.5598,-2.5598,-2.5598,-2.5598,-2.5598,-2.5598,-2.5598,-2.5598,-2.5636,-2.5654,-2.5654,-2.5685,-2.5703,-2.5703,-2.5703,-2.5703,-2.5703,-2.5703,-2.5703,-2.5703,-2.6094,-2.6523,-2.6992,-2.7402,-2.8044,-2.8903,-2.8884,-2.9296,-3.0102,-3.0067,-3.0227,-3.0606,-3.0606,-3.0606,-3.0606,-3.0606,-3.0606,-3.0606,-3.0606,-3.0606,-3.0606,-3.0606,-3.0626,-3.0645,-3.0656,-3.07,-3.0695,-2.5703,-2.5703,-2.5703,-2.5703,-2.5703,-2.5703,-2.5703,-2.5703,-2.5703,-2.5703,-2.5703,-2.5703,-2.5703,-2.5703,-2.5703,-2.5703,-2.5703,-2.5684,-2.5625,-2.5625,-2.5599,-2.5543,-2.5522,-2.5532,-2.5532,-2.5532,-2.5525,-2.5493,-2.5493,-2.5493,-2.5493,-2.5493,-2.5493,-2.5493,-2.5436,-2.5447,-2.5505,-2.5437,-2.5416,-2.5427,-2.5486,-2.5476,-2.5416,-2.5474,-2.5493,-2.5493,-2.5493,-2.5493,-2.5493,-2.5493,-2.5493,-2.5493,-2.5493,-2.5493,-2.5504,-2.5515,-2.553,-2.5526,-2.5531,-2.5576,-2.5633,-2.563,-2.5667,-2.5675,-2.5559,-2.5589,-2.563,-2.563,-2.5664,-2.5703,-2.5703,-2.5703,-2.5703,-2.5703,-2.5703,-2.5703,-2.5703,-2.5703,-2.5703,-2.5703,-2.5703,-2.5703,-2.5703,-2.5703,-2.5703,-2.5703,-2.5703,-2.5703,-2.5703,-2.6523,-2.707,-2.7226,-2.8066,-2.8945,-2.9805,-2.9824,-3.0176,-3.0898,-3.0052,-3.0014,-3.0643,-3.0643,-3.0643,-3.0643,-3.0643,-3.0643,-3.0643,-3.0643,-3.0643,-3.0643,-3.0643,-3.0697,-3.0733,-3.0733,-3.0792,-3.0684,-2.5703,-2.5703,-2.5703,-2.5703,-2.5703,-2.5703,-2.5703,-2.5703,-2.5703,-2.5703,-2.5703,-2.5703,-2.5703,-2.5703,-2.5703,-2.5703,-2.5703,-2.5703,-2.5684,-2.5684,-2.5683,-2.5662,-2.5678,-2.5668,-2.5668,-2.5668,-2.562,-2.5502,-2.5502,-2.5502,-2.5502,-2.5502,-2.5502,-2.5502,-2.5482,-2.5498,-2.5495,-2.5499,-2.5482,-2.549,-2.5492,-2.5495,-2.5482,-2.5502,-2.5502,-2.5502,-2.5502,-2.5502,-2.5502,-2.5502,-2.5502,-2.5502,-2.5502,-2.5502,-2.5511,-2.5571,-2.5592,-2.5608,-2.5664,-2.568,-2.5693,-2.5691,-2.5692,-2.5702,-2.5682,-2.568,-2.5696,-2.5696,-2.5682,-2.5703,-2.5703,-2.5703,-2.5703,-2.5703,-2.5703,-2.5703,-2.5703,-2.5703,-2.5703,-2.5703,-2.5703,-2.5703,-2.5703,-2.5703,-2.5703,-2.5703,-2.5703,-2.5703,-2.5703,-2.6523,-2.7344,-2.8105,-2.8965,-2.9844,-3.0723,-3.0723,-3.0781,-3.0898,-3.0761,-3.074,-3.0857,-3.0857,-3.0857,-3.0857,-3.0857,-3.0857,-3.0857,-3.0857,-3.0857,-3.0857,-3.0857,-3.0855,-3.087,-3.087,-3.0876,-3.0879,-2.5703,-2.5703,-2.5703,-2.5703,-2.5703,-2.5703,-2.5703,-2.5703,-2.5703,-2.5703,-2.5703,-2.5703,-2.5703,-2.5703,-2.5703,-2.5703,-2.5703,-2.5703,-2.5703,-2.5703,-2.5703,-2.5703,-2.5696,-2.5705,-2.5705,-2.5705,-2.5666,-2.5607,-2.5607,-2.5607,-2.5607,-2.5607,-2.5607,-2.5607,-2.5568,-2.559,-2.56,-2.5576,-2.556,-2.5566,-2.5605,-2.5593,-2.5568,-2.5593,-2.5607,-2.5607,-2.5607,-2.5607,-2.5607,-2.5607,-2.5607,-2.5607,-2.5607,-2.5607,-2.562,-2.564,-2.5667,-2.5668,-2.5681,-2.5703,-2.5701,-2.571,-2.5703,-2.5703,-2.5703,-2.5703,-2.5703,-2.5703,-2.5703,-2.5703,-2.5703,-2.5703,-2.5703,-2.5703,-2.5703,-2.5703,-2.5703,-2.5703,-2.5703,-2.5703,-2.5703,-2.5703,-2.5703,-2.5703,-2.5703,-2.5703,-2.6152,-2.6426,-2.6426,-2.7715,-2.8633,-2.9004,-2.9863,-3.0508,-3.0898,-3.0898,-3.0898,-3.0898,-3.0898,-3.0898,-3.0898,-3.0898,-3.0898,-3.0898,-3.0898,-3.0898,-3.0898,-3.0898,-3.0898,-3.0898,-3.0898,-3.0898,-3.0898,-3.0898,-3.0898,-3.082]}]]